Wetterdaten: Mittwoch, 06.04.2016
Datum Zeit Temp. A. Feuchte A. Luftdruck Regen Wind Richtung Richtung Sonnenschein ET UV Solar Taupunkt Windchill Windben Empfang
06.04.2016 00:00 14,1 C 74 % 1007,0 hPa 0,0 l/m 12,5 km/h (3 Bft) SW 235 0 min 0,000 mm 0,0 UV-I 0 W/m 9,5 C 11,0 C 16,1 km/h (3 Bft) 97,37 %
06.04.2016 00:02 14,1 C 75 % 1007,0 hPa 0,0 l/m 13,9 km/h (3 Bft) SW 234 0 min 0,000 mm 0,0 UV-I 0 W/m 9,7 C 10,5 C 19,3 km/h (3 Bft) 97,14 %
06.04.2016 00:03 14,1 C 75 % 1007,0 hPa 0,0 l/m 12,7 km/h (3 Bft) SW 236 0 min 0,000 mm 0,0 UV-I 0 W/m 9,7 C 11,0 C 16,1 km/h (3 Bft) 100,00 %
06.04.2016 00:04 14,2 C 75 % 1007,0 hPa 0,0 l/m 14,7 km/h (3 Bft) SW 217 0 min 0,000 mm 0,0 UV-I 0 W/m 9,8 C 10,3 C 20,9 km/h (4 Bft) 100,00 %
06.04.2016 00:05 14,1 C 75 % 1007,0 hPa 0,0 l/m 14,7 km/h (3 Bft) SW 225 0 min 0,000 mm 0,0 UV-I 0 W/m 9,7 C 10,2 C 20,9 km/h (4 Bft) 100,00 %
06.04.2016 00:06 14,1 C 75 % 1007,0 hPa 0,0 l/m 16,5 km/h (3 Bft) W-SW 240 0 min 0,000 mm 0,0 UV-I 0 W/m 9,7 C 9,6 C 20,9 km/h (4 Bft) 100,00 %
06.04.2016 00:07 14,2 C 75 % 1007,1 hPa 0,0 l/m 11,9 km/h (2 Bft) W 265 0 min 0,000 mm 0,0 UV-I 0 W/m 9,8 C 11,4 C 17,7 km/h (3 Bft) 100,00 %
06.04.2016 00:08 14,2 C 75 % 1007,1 hPa 0,0 l/m 15,0 km/h (3 Bft) W-SW 252 0 min 0,000 mm 0,0 UV-I 0 W/m 9,8 C 10,2 C 20,9 km/h (4 Bft) 100,00 %
06.04.2016 00:09 14,2 C 75 % 1007,1 hPa 0,0 l/m 12,8 km/h (3 Bft) SW 231 0 min 0,000 mm 0,0 UV-I 0 W/m 9,8 C 11,0 C 17,7 km/h (3 Bft) 100,00 %
06.04.2016 00:10 14,2 C 74 % 1007,1 hPa 0,0 l/m 18,5 km/h (3 Bft) S-SW 204 0 min 0,000 mm 0,0 UV-I 0 W/m 9,6 C 9,1 C 24,1 km/h (4 Bft) 100,00 %
06.04.2016 00:11 14,3 C 74 % 1007,0 hPa 0,0 l/m 19,2 km/h (3 Bft) SW 231 0 min 0,000 mm 0,0 UV-I 0 W/m 9,7 C 9,1 C 22,5 km/h (4 Bft) 100,00 %
06.04.2016 00:12 14,3 C 74 % 1007,1 hPa 0,0 l/m 19,1 km/h (3 Bft) W-SW 238 0 min 0,000 mm 0,0 UV-I 0 W/m 9,7 C 9,1 C 24,1 km/h (4 Bft) 100,00 %
06.04.2016 00:13 14,3 C 74 % 1007,0 hPa 0,0 l/m 17,8 km/h (3 Bft) W-SW 252 0 min 0,000 mm 0,0 UV-I 0 W/m 9,7 C 9,5 C 20,9 km/h (4 Bft) 100,00 %
06.04.2016 00:14 14,3 C 74 % 1007,1 hPa 0,0 l/m 17,0 km/h (3 Bft) SW 227 0 min 0,000 mm 0,0 UV-I 0 W/m 9,7 C 9,7 C 24,1 km/h (4 Bft) 100,00 %
06.04.2016 00:15 14,3 C 75 % 1007,1 hPa 0,0 l/m 17,7 km/h (3 Bft) SW 227 0 min 0,000 mm 0,0 UV-I 0 W/m 9,9 C 9,5 C 22,5 km/h (4 Bft) 100,00 %
06.04.2016 00:16 14,3 C 75 % 1007,1 hPa 0,0 l/m 21,5 km/h (4 Bft) SW 225 0 min 0,000 mm 0,0 UV-I 0 W/m 9,9 C 8,5 C 29,0 km/h (5 Bft) 100,00 %
06.04.2016 00:17 14,3 C 74 % 1007,1 hPa 0,0 l/m 16,7 km/h (3 Bft) SW 227 0 min 0,000 mm 0,0 UV-I 0 W/m 9,7 C 9,8 C 22,5 km/h (4 Bft) 100,00 %
06.04.2016 00:18 14,3 C 75 % 1007,1 hPa 0,0 l/m 17,8 km/h (3 Bft) SW 227 0 min 0,000 mm 0,0 UV-I 0 W/m 9,9 C 9,5 C 25,7 km/h (4 Bft) 100,00 %
06.04.2016 00:19 14,3 C 75 % 1007,1 hPa 0,0 l/m 19,3 km/h (3 Bft) SW 219 0 min 0,000 mm 0,0 UV-I 0 W/m 9,9 C 9,0 C 22,5 km/h (4 Bft) 95,65 %
06.04.2016 00:20 14,3 C 75 % 1007,2 hPa 0,0 l/m 18,6 km/h (3 Bft) SW 219 0 min 0,000 mm 0,0 UV-I 0 W/m 9,9 C 9,2 C 24,1 km/h (4 Bft) 100,00 %
06.04.2016 00:21 14,3 C 75 % 1007,2 hPa 0,0 l/m 19,1 km/h (3 Bft) W-SW 238 0 min 0,000 mm 0,0 UV-I 0 W/m 9,9 C 9,1 C 24,1 km/h (4 Bft) 100,00 %
06.04.2016 00:22 14,3 C 75 % 1007,2 hPa 0,0 l/m 16,7 km/h (3 Bft) W-SW 250 0 min 0,000 mm 0,0 UV-I 0 W/m 9,9 C 9,8 C 24,1 km/h (4 Bft) 100,00 %
06.04.2016 00:23 14,3 C 75 % 1007,2 hPa 0,0 l/m 20,8 km/h (4 Bft) SW 223 0 min 0,000 mm 0,0 UV-I 0 W/m 9,9 C 8,6 C 24,1 km/h (4 Bft) 100,00 %
06.04.2016 00:24 14,3 C 75 % 1007,2 hPa 0,0 l/m 20,2 km/h (4 Bft) SW 219 0 min 0,000 mm 0,0 UV-I 0 W/m 9,9 C 8,8 C 25,7 km/h (4 Bft) 100,00 %
06.04.2016 00:25 14,3 C 75 % 1007,3 hPa 0,0 l/m 18,3 km/h (3 Bft) SW 221 0 min 0,000 mm 0,0 UV-I 0 W/m 9,9 C 9,3 C 20,9 km/h (4 Bft) 95,83 %
06.04.2016 00:26 14,4 C 75 % 1007,3 hPa 0,0 l/m 19,1 km/h (3 Bft) W-SW 245 0 min 0,000 mm 0,0 UV-I 0 W/m 10,0 C 9,2 C 24,1 km/h (4 Bft) 100,00 %
06.04.2016 00:27 14,4 C 75 % 1007,3 hPa 0,0 l/m 18,5 km/h (3 Bft) W-SW 248 0 min 0,000 mm 0,0 UV-I 0 W/m 10,0 C 9,4 C 24,1 km/h (4 Bft) 100,00 %
06.04.2016 00:28 14,4 C 75 % 1007,3 hPa 0,0 l/m 18,1 km/h (3 Bft) SW 236 0 min 0,000 mm 0,0 UV-I 0 W/m 10,0 C 9,5 C 24,1 km/h (4 Bft) 100,00 %
06.04.2016 00:29 14,4 C 75 % 1007,3 hPa 0,0 l/m 17,3 km/h (3 Bft) SW 230 0 min 0,000 mm 0,0 UV-I 0 W/m 10,0 C 9,7 C 22,5 km/h (4 Bft) 100,00 %
06.04.2016 00:30 14,4 C 75 % 1007,3 hPa 0,0 l/m 16,2 km/h (3 Bft) W-SW 250 0 min 0,000 mm 0,0 UV-I 0 W/m 10,0 C 10,1 C 20,9 km/h (4 Bft) 100,00 %
06.04.2016 00:31 14,4 C 75 % 1007,3 hPa 0,0 l/m 20,8 km/h (4 Bft) S-SW 213 0 min 0,000 mm 0,0 UV-I 0 W/m 10,0 C 8,8 C 25,7 km/h (4 Bft) 100,00 %
06.04.2016 00:32 14,4 C 75 % 1007,3 hPa 0,0 l/m 21,0 km/h (4 Bft) SW 229 0 min 0,000 mm 0,0 UV-I 0 W/m 10,0 C 8,7 C 30,6 km/h (5 Bft) 100,00 %
06.04.2016 00:33 14,5 C 75 % 1007,3 hPa 0,0 l/m 18,3 km/h (3 Bft) W-SW 242 0 min 0,000 mm 0,0 UV-I 0 W/m 10,1 C 9,6 C 24,1 km/h (4 Bft) 100,00 %
06.04.2016 00:34 14,5 C 75 % 1007,3 hPa 0,0 l/m 17,5 km/h (3 Bft) W-SW 258 0 min 0,000 mm 0,0 UV-I 0 W/m 10,1 C 9,8 C 22,5 km/h (4 Bft) 100,00 %
06.04.2016 00:35 14,5 C 75 % 1007,3 hPa 0,0 l/m 17,9 km/h (3 Bft) W-SW 250 0 min 0,000 mm 0,0 UV-I 0 W/m 10,1 C 9,7 C 22,5 km/h (4 Bft) 100,00 %
06.04.2016 00:36 14,6 C 75 % 1007,3 hPa 0,0 l/m 12,9 km/h (3 Bft) SW 236 0 min 0,000 mm 0,0 UV-I 0 W/m 10,2 C 11,5 C 16,1 km/h (3 Bft) 100,00 %
06.04.2016 00:37 14,5 C 75 % 1007,3 hPa 0,0 l/m 15,1 km/h (3 Bft) W 266 0 min 0,000 mm 0,0 UV-I 0 W/m 10,1 C 10,6 C 19,3 km/h (3 Bft) 100,00 %
06.04.2016 00:38 14,6 C 75 % 1007,3 hPa 0,0 l/m 18,0 km/h (3 Bft) W 263 0 min 0,000 mm 0,0 UV-I 0 W/m 10,2 C 9,8 C 22,5 km/h (4 Bft) 100,00 %
06.04.2016 00:39 14,6 C 75 % 1007,3 hPa 0,0 l/m 14,2 km/h (3 Bft) W-SW 243 0 min 0,000 mm 0,0 UV-I 0 W/m 10,2 C 11,0 C 20,9 km/h (4 Bft) 100,00 %
06.04.2016 00:40 14,6 C 75 % 1007,4 hPa 0,0 l/m 17,3 km/h (3 Bft) SW 229 0 min 0,000 mm 0,0 UV-I 0 W/m 10,2 C 10,0 C 22,5 km/h (4 Bft) 100,00 %
06.04.2016 00:41 14,6 C 75 % 1007,4 hPa 0,0 l/m 15,9 km/h (3 Bft) W-SW 243 0 min 0,000 mm 0,0 UV-I 0 W/m 10,2 C 10,4 C 20,9 km/h (4 Bft) 100,00 %
06.04.2016 00:42 14,6 C 75 % 1007,4 hPa 0,0 l/m 14,5 km/h (3 Bft) W-SW 239 0 min 0,000 mm 0,0 UV-I 0 W/m 10,2 C 10,9 C 19,3 km/h (3 Bft) 100,00 %
06.04.2016 00:43 14,6 C 75 % 1007,4 hPa 0,0 l/m 18,3 km/h (3 Bft) S 181 0 min 0,000 mm 0,0 UV-I 0 W/m 10,2 C 9,7 C 22,5 km/h (4 Bft) 100,00 %
06.04.2016 00:44 14,6 C 76 % 1007,4 hPa 0,0 l/m 15,2 km/h (3 Bft) W-SW 244 0 min 0,000 mm 0,0 UV-I 0 W/m 10,4 C 10,6 C 19,3 km/h (3 Bft) 100,00 %
06.04.2016 00:45 14,6 C 76 % 1007,4 hPa 0,0 l/m 13,0 km/h (3 Bft) SW 231 0 min 0,000 mm 0,0 UV-I 0 W/m 10,4 C 11,4 C 16,1 km/h (3 Bft) 100,00 %
06.04.2016 00:46 14,6 C 76 % 1007,5 hPa 0,0 l/m 17,1 km/h (3 Bft) SW 229 0 min 0,000 mm 0,0 UV-I 0 W/m 10,4 C 10,0 C 22,5 km/h (4 Bft) 100,00 %
06.04.2016 00:47 14,6 C 76 % 1007,5 hPa 0,0 l/m 15,0 km/h (3 Bft) SW 236 0 min 0,000 mm 0,0 UV-I 0 W/m 10,4 C 10,7 C 25,7 km/h (4 Bft) 96,55 %
06.04.2016 00:48 14,6 C 76 % 1007,6 hPa 0,0 l/m 15,2 km/h (3 Bft) W-SW 245 0 min 0,000 mm 0,0 UV-I 0 W/m 10,4 C 10,6 C 20,9 km/h (4 Bft) 100,00 %
06.04.2016 00:49 14,6 C 76 % 1007,5 hPa 0,0 l/m 13,9 km/h (3 Bft) W 259 0 min 0,000 mm 0,0 UV-I 0 W/m 10,4 C 11,1 C 25,7 km/h (4 Bft) 100,00 %
06.04.2016 00:50 14,6 C 76 % 1007,6 hPa 0,0 l/m 13,8 km/h (3 Bft) SW 227 0 min 0,000 mm 0,0 UV-I 0 W/m 10,4 C 11,1 C 22,5 km/h (4 Bft) 100,00 %
06.04.2016 00:51 14,6 C 76 % 1007,6 hPa 0,0 l/m 17,8 km/h (3 Bft) SW 225 0 min 0,000 mm 0,0 UV-I 0 W/m 10,4 C 9,8 C 24,1 km/h (4 Bft) 100,00 %
06.04.2016 00:52 14,6 C 76 % 1007,6 hPa 0,0 l/m 13,8 km/h (3 Bft) W-SW 250 0 min 0,000 mm 0,0 UV-I 0 W/m 10,4 C 11,1 C 19,3 km/h (3 Bft) 100,00 %
06.04.2016 00:53 14,5 C 76 % 1007,7 hPa 0,0 l/m 12,9 km/h (3 Bft) SW 229 0 min 0,000 mm 0,0 UV-I 0 W/m 10,3 C 11,3 C 17,7 km/h (3 Bft) 100,00 %
06.04.2016 00:54 14,6 C 76 % 1007,7 hPa 0,0 l/m 14,3 km/h (3 Bft) W-SW 237 0 min 0,000 mm 0,0 UV-I 0 W/m 10,4 C 10,9 C 24,1 km/h (4 Bft) 100,00 %
06.04.2016 00:55 14,6 C 76 % 1007,7 hPa 0,0 l/m 16,1 km/h (3 Bft) SW 225 0 min 0,000 mm 0,0 UV-I 0 W/m 10,4 C 10,3 C 22,5 km/h (4 Bft) 100,00 %
06.04.2016 00:56 14,6 C 76 % 1007,7 hPa 0,0 l/m 13,9 km/h (3 Bft) S-SW 212 0 min 0,000 mm 0,0 UV-I 0 W/m 10,4 C 11,1 C 20,9 km/h (4 Bft) 100,00 %
06.04.2016 00:57 14,6 C 76 % 1007,8 hPa 0,0 l/m 15,6 km/h (3 Bft) SW 226 0 min 0,000 mm 0,0 UV-I 0 W/m 10,4 C 10,5 C 20,9 km/h (4 Bft) 100,00 %
06.04.2016 00:58 14,6 C 76 % 1007,8 hPa 0,0 l/m 18,0 km/h (3 Bft) W-SW 239 0 min 0,000 mm 0,0 UV-I 0 W/m 10,4 C 9,8 C 24,1 km/h (4 Bft) 100,00 %
06.04.2016 00:59 14,6 C 76 % 1007,8 hPa 0,0 l/m 12,4 km/h (3 Bft) SW 220 0 min 0,000 mm 0,0 UV-I 0 W/m 10,4 C 11,7 C 16,1 km/h (3 Bft) 100,00 %
06.04.2016 01:00 14,6 C 77 % 1007,8 hPa 0,0 l/m 11,6 km/h (2 Bft) W 262 0 min 0,051 mm 0,0 UV-I 0 W/m 10,6 C 12,0 C 17,7 km/h (3 Bft) 100,00 %
06.04.2016 01:01 14,6 C 77 % 1007,8 hPa 0,0 l/m 10,7 km/h (2 Bft) W-SW 243 0 min 0,000 mm 0,0 UV-I 0 W/m 10,6 C 12,4 C 17,7 km/h (3 Bft) 100,00 %
06.04.2016 01:02 14,5 C 77 % 1007,8 hPa 0,0 l/m 8,1 km/h (2 Bft) SW 232 0 min 0,000 mm 0,0 UV-I 0 W/m 10,5 C 13,5 C 11,3 km/h (2 Bft) 97,56 %
06.04.2016 01:03 14,4 C 77 % 1007,8 hPa 0,0 l/m 9,7 km/h (2 Bft) SW 223 0 min 0,000 mm 0,0 UV-I 0 W/m 10,4 C 12,6 C 12,9 km/h (3 Bft) 100,00 %
06.04.2016 01:04 14,4 C 77 % 1007,9 hPa 0,0 l/m 12,6 km/h (3 Bft) W-SW 245 0 min 0,000 mm 0,0 UV-I 0 W/m 10,4 C 11,3 C 16,1 km/h (3 Bft) 96,15 %
06.04.2016 01:05 14,4 C 77 % 1007,9 hPa 0,0 l/m 15,4 km/h (3 Bft) SW 225 0 min 0,000 mm 0,0 UV-I 0 W/m 10,4 C 10,3 C 19,3 km/h (3 Bft) 96,30 %
06.04.2016 01:06 14,4 C 77 % 1007,8 hPa 0,0 l/m 17,6 km/h (3 Bft) W-SW 238 0 min 0,000 mm 0,0 UV-I 0 W/m 10,4 C 9,6 C 24,1 km/h (4 Bft) 100,00 %
06.04.2016 01:07 14,4 C 77 % 1007,9 hPa 0,0 l/m 20,3 km/h (4 Bft) SW 225 0 min 0,000 mm 0,0 UV-I 0 W/m 10,4 C 8,9 C 27,4 km/h (4 Bft) 96,30 %
06.04.2016 01:08 14,4 C 77 % 1007,9 hPa 0,0 l/m 12,6 km/h (3 Bft) W-SW 240 0 min 0,000 mm 0,0 UV-I 0 W/m 10,4 C 11,3 C 17,7 km/h (3 Bft) 100,00 %
06.04.2016 01:09 14,4 C 77 % 1007,9 hPa 0,0 l/m 16,1 km/h (3 Bft) W-SW 244 0 min 0,000 mm 0,0 UV-I 0 W/m 10,4 C 10,1 C 24,1 km/h (4 Bft) 91,67 %
06.04.2016 01:10 14,4 C 77 % 1007,9 hPa 0,0 l/m 16,0 km/h (3 Bft) W 271 0 min 0,000 mm 0,0 UV-I 0 W/m 10,4 C 10,1 C 20,9 km/h (4 Bft) 100,00 %
06.04.2016 01:11 14,4 C 77 % 1008,0 hPa 0,0 l/m 18,2 km/h (3 Bft) W-SW 240 0 min 0,000 mm 0,0 UV-I 0 W/m 10,4 C 9,5 C 24,1 km/h (4 Bft) 96,30 %
06.04.2016 01:12 14,5 C 77 % 1008,0 hPa 0,0 l/m 16,0 km/h (3 Bft) W-SW 248 0 min 0,000 mm 0,0 UV-I 0 W/m 10,5 C 10,3 C 24,1 km/h (4 Bft) 92,31 %
06.04.2016 01:13 14,5 C 77 % 1007,9 hPa 0,0 l/m 16,1 km/h (3 Bft) W 259 0 min 0,000 mm 0,0 UV-I 0 W/m 10,5 C 10,2 C 17,7 km/h (3 Bft) 100,00 %
06.04.2016 01:14 14,5 C 77 % 1008,0 hPa 0,0 l/m 16,8 km/h (3 Bft) W 263 0 min 0,000 mm 0,0 UV-I 0 W/m 10,5 C 10,0 C 24,1 km/h (4 Bft) 96,15 %
06.04.2016 01:15 14,6 C 77 % 1008,0 hPa 0,0 l/m 14,9 km/h (3 Bft) W-SW 257 0 min 0,000 mm 0,0 UV-I 0 W/m 10,6 C 10,7 C 22,5 km/h (4 Bft) 100,00 %
06.04.2016 01:16 14,6 C 77 % 1008,0 hPa 0,0 l/m 13,6 km/h (3 Bft) W-SW 250 0 min 0,000 mm 0,0 UV-I 0 W/m 10,6 C 11,2 C 17,7 km/h (3 Bft) 99,26 %
06.04.2016 01:17 14,6 C 77 % 1008,0 hPa 0,0 l/m 13,9 km/h (3 Bft) W 265 0 min 0,000 mm 0,0 UV-I 0 W/m 10,6 C 11,1 C 19,3 km/h (3 Bft) 97,73 %
06.04.2016 01:18 14,6 C 77 % 1008,1 hPa 0,0 l/m 17,7 km/h (3 Bft) S-SW 196 0 min 0,000 mm 0,0 UV-I 0 W/m 10,6 C 9,9 C 22,5 km/h (4 Bft) 96,15 %
06.04.2016 01:19 14,6 C 77 % 1008,1 hPa 0,0 l/m 16,4 km/h (3 Bft) W-SW 245 0 min 0,000 mm 0,0 UV-I 0 W/m 10,6 C 10,3 C 22,5 km/h (4 Bft) 96,30 %
06.04.2016 01:20 14,6 C 76 % 1008,1 hPa 0,0 l/m 18,5 km/h (3 Bft) W-SW 255 0 min 0,000 mm 0,0 UV-I 0 W/m 10,4 C 9,6 C 30,6 km/h (5 Bft) 95,65 %
06.04.2016 01:21 14,6 C 76 % 1008,0 hPa 0,0 l/m 19,6 km/h (3 Bft) W-SW 244 0 min 0,000 mm 0,0 UV-I 0 W/m 10,4 C 9,3 C 25,7 km/h (4 Bft) 99,09 %
06.04.2016 01:22 14,6 C 76 % 1008,1 hPa 0,0 l/m 15,8 km/h (3 Bft) W-SW 250 0 min 0,000 mm 0,0 UV-I 0 W/m 10,4 C 10,4 C 20,9 km/h (4 Bft) 97,87 %
06.04.2016 01:23 14,6 C 76 % 1008,1 hPa 0,0 l/m 17,4 km/h (3 Bft) W 262 0 min 0,000 mm 0,0 UV-I 0 W/m 10,4 C 10,0 C 24,1 km/h (4 Bft) 93,33 %
06.04.2016 01:24 14,6 C 76 % 1008,1 hPa 0,0 l/m 20,1 km/h (4 Bft) SW 231 0 min 0,000 mm 0,0 UV-I 0 W/m 10,4 C 9,2 C 29,0 km/h (5 Bft) 100,00 %
06.04.2016 01:25 14,6 C 76 % 1008,1 hPa 0,0 l/m 17,2 km/h (3 Bft) W-SW 245 0 min 0,000 mm 0,0 UV-I 0 W/m 10,4 C 10,0 C 27,4 km/h (4 Bft) 95,65 %
06.04.2016 01:26 14,6 C 76 % 1008,1 hPa 0,0 l/m 17,6 km/h (3 Bft) W-SW 257 0 min 0,000 mm 0,0 UV-I 0 W/m 10,4 C 9,9 C 24,1 km/h (4 Bft) 100,00 %
06.04.2016 01:27 14,6 C 76 % 1008,1 hPa 0,0 l/m 16,0 km/h (3 Bft) SW 232 0 min 0,000 mm 0,0 UV-I 0 W/m 10,4 C 10,4 C 19,3 km/h (3 Bft) 95,65 %
06.04.2016 01:28 14,6 C 76 % 1008,1 hPa 0,0 l/m 15,8 km/h (3 Bft) W 259 0 min 0,000 mm 0,0 UV-I 0 W/m 10,4 C 10,4 C 25,7 km/h (4 Bft) 100,00 %
06.04.2016 01:29 14,6 C 76 % 1008,1 hPa 0,0 l/m 17,3 km/h (3 Bft) W 262 0 min 0,000 mm 0,0 UV-I 0 W/m 10,4 C 10,0 C 20,9 km/h (4 Bft) 94,12 %
06.04.2016 01:30 14,6 C 76 % 1008,2 hPa 0,0 l/m 18,6 km/h (3 Bft) W-SW 238 0 min 0,000 mm 0,0 UV-I 0 W/m 10,4 C 9,6 C 24,1 km/h (4 Bft) 96,30 %
06.04.2016 01:31 14,6 C 76 % 1008,2 hPa 0,0 l/m 19,5 km/h (3 Bft) W 280 0 min 0,000 mm 0,0 UV-I 0 W/m 10,4 C 9,4 C 27,4 km/h (4 Bft) 100,00 %
06.04.2016 01:32 14,6 C 75 % 1008,1 hPa 0,0 l/m 17,0 km/h (3 Bft) W-SW 257 0 min 0,000 mm 0,0 UV-I 0 W/m 10,2 C 10,1 C 24,1 km/h (4 Bft) 96,67 %
06.04.2016 01:33 14,6 C 75 % 1008,2 hPa 0,0 l/m 21,8 km/h (4 Bft) W 265 0 min 0,000 mm 0,0 UV-I 0 W/m 10,2 C 8,8 C 30,6 km/h (5 Bft) 100,00 %
06.04.2016 01:34 14,6 C 75 % 1008,1 hPa 0,0 l/m 27,2 km/h (4 Bft) W 272 0 min 0,000 mm 0,0 UV-I 0 W/m 10,2 C 7,6 C 35,4 km/h (5 Bft) 96,30 %
06.04.2016 01:35 14,6 C 75 % 1008,1 hPa 0,0 l/m 19,5 km/h (3 Bft) W-SW 249 0 min 0,000 mm 0,0 UV-I 0 W/m 10,2 C 9,4 C 25,7 km/h (4 Bft) 100,00 %
06.04.2016 01:36 14,6 C 74 % 1008,2 hPa 0,0 l/m 18,6 km/h (3 Bft) W-SW 253 0 min 0,000 mm 0,0 UV-I 0 W/m 10,0 C 9,6 C 24,1 km/h (4 Bft) 100,00 %
06.04.2016 01:37 14,6 C 74 % 1008,2 hPa 0,0 l/m 16,4 km/h (3 Bft) W-SW 254 0 min 0,000 mm 0,0 UV-I 0 W/m 10,0 C 10,3 C 20,9 km/h (4 Bft) 100,00 %
06.04.2016 01:38 14,6 C 74 % 1008,2 hPa 0,0 l/m 18,6 km/h (3 Bft) W-SW 255 0 min 0,000 mm 0,0 UV-I 0 W/m 10,0 C 9,6 C 22,5 km/h (4 Bft) 95,83 %
06.04.2016 01:39 14,6 C 74 % 1008,2 hPa 0,0 l/m 19,2 km/h (3 Bft) W-SW 252 0 min 0,000 mm 0,0 UV-I 0 W/m 10,0 C 9,4 C 29,0 km/h (5 Bft) 100,00 %
06.04.2016 01:40 14,6 C 74 % 1008,2 hPa 0,0 l/m 19,7 km/h (3 Bft) W-SW 244 0 min 0,000 mm 0,0 UV-I 0 W/m 10,0 C 9,3 C 24,1 km/h (4 Bft) 100,00 %
06.04.2016 01:41 14,6 C 74 % 1008,2 hPa 0,0 l/m 19,1 km/h (3 Bft) W 268 0 min 0,000 mm 0,0 UV-I 0 W/m 10,0 C 9,5 C 29,0 km/h (5 Bft) 91,67 %
06.04.2016 01:42 14,6 C 74 % 1008,2 hPa 0,0 l/m 24,1 km/h (4 Bft) W 263 0 min 0,000 mm 0,0 UV-I 0 W/m 10,0 C 8,3 C 33,8 km/h (5 Bft) 100,00 %
06.04.2016 01:43 14,6 C 74 % 1008,2 hPa 0,0 l/m 19,7 km/h (3 Bft) W 265 0 min 0,000 mm 0,0 UV-I 0 W/m 10,0 C 9,3 C 29,0 km/h (5 Bft) 100,00 %
06.04.2016 01:44 14,6 C 74 % 1008,2 hPa 0,0 l/m 20,3 km/h (4 Bft) W 267 0 min 0,000 mm 0,0 UV-I 0 W/m 10,0 C 9,2 C 25,7 km/h (4 Bft) 100,00 %
06.04.2016 01:45 14,6 C 74 % 1008,2 hPa 0,0 l/m 18,2 km/h (3 Bft) W-SW 246 0 min 0,000 mm 0,0 UV-I 0 W/m 10,0 C 9,7 C 25,7 km/h (4 Bft) 100,00 %
06.04.2016 01:46 14,6 C 73 % 1008,2 hPa 0,0 l/m 19,9 km/h (4 Bft) W-SW 248 0 min 0,000 mm 0,0 UV-I 0 W/m 9,8 C 9,3 C 25,7 km/h (4 Bft) 96,15 %
06.04.2016 01:47 14,6 C 73 % 1008,2 hPa 0,0 l/m 25,1 km/h (4 Bft) W 262 0 min 0,000 mm 0,0 UV-I 0 W/m 9,8 C 8,0 C 32,2 km/h (5 Bft) 100,00 %
06.04.2016 01:48 14,6 C 73 % 1008,2 hPa 0,0 l/m 22,4 km/h (4 Bft) W-SW 242 0 min 0,000 mm 0,0 UV-I 0 W/m 9,8 C 8,6 C 27,4 km/h (4 Bft) 100,00 %
06.04.2016 01:49 14,6 C 73 % 1008,3 hPa 0,0 l/m 18,2 km/h (3 Bft) W-SW 255 0 min 0,000 mm 0,0 UV-I 0 W/m 9,8 C 9,7 C 22,5 km/h (4 Bft) 100,00 %
06.04.2016 01:50 14,6 C 73 % 1008,3 hPa 0,0 l/m 18,7 km/h (3 Bft) W 280 0 min 0,000 mm 0,0 UV-I 0 W/m 9,8 C 9,6 C 25,7 km/h (4 Bft) 100,00 %
06.04.2016 01:51 14,6 C 73 % 1008,3 hPa 0,0 l/m 14,4 km/h (3 Bft) W-SW 248 0 min 0,000 mm 0,0 UV-I 0 W/m 9,8 C 10,9 C 22,5 km/h (4 Bft) 100,00 %
06.04.2016 01:52 14,6 C 73 % 1008,4 hPa 0,0 l/m 15,0 km/h (3 Bft) SW 231 0 min 0,000 mm 0,0 UV-I 0 W/m 9,8 C 10,7 C 29,0 km/h (5 Bft) 100,00 %
06.04.2016 01:53 14,6 C 73 % 1008,4 hPa 0,0 l/m 14,1 km/h (3 Bft) W-SW 241 0 min 0,000 mm 0,0 UV-I 0 W/m 9,8 C 11,0 C 17,7 km/h (3 Bft) 100,00 %
06.04.2016 01:54 14,6 C 73 % 1008,4 hPa 0,0 l/m 13,5 km/h (3 Bft) W-SW 257 0 min 0,000 mm 0,0 UV-I 0 W/m 9,8 C 11,2 C 19,3 km/h (3 Bft) 100,00 %
06.04.2016 01:55 14,6 C 73 % 1008,4 hPa 0,0 l/m 12,8 km/h (3 Bft) W-SW 251 0 min 0,000 mm 0,0 UV-I 0 W/m 9,8 C 11,5 C 14,5 km/h (3 Bft) 100,00 %
06.04.2016 01:56 14,6 C 73 % 1008,5 hPa 0,0 l/m 11,6 km/h (2 Bft) W-SW 242 0 min 0,000 mm 0,0 UV-I 0 W/m 9,8 C 12,0 C 16,1 km/h (3 Bft) 100,00 %
06.04.2016 01:57 14,5 C 73 % 1008,5 hPa 0,0 l/m 12,9 km/h (3 Bft) W 265 0 min 0,000 mm 0,0 UV-I 0 W/m 9,7 C 11,3 C 17,7 km/h (3 Bft) 100,00 %
06.04.2016 01:58 14,5 C 73 % 1008,5 hPa 0,0 l/m 13,2 km/h (3 Bft) W-NW 284 0 min 0,000 mm 0,0 UV-I 0 W/m 9,7 C 11,2 C 19,3 km/h (3 Bft) 100,00 %
06.04.2016 01:59 14,4 C 73 % 1008,5 hPa 0,0 l/m 12,7 km/h (3 Bft) W-SW 244 0 min 0,000 mm 0,0 UV-I 0 W/m 9,6 C 11,3 C 19,3 km/h (3 Bft) 100,00 %
06.04.2016 02:00 14,4 C 74 % 1008,6 hPa 0,0 l/m 13,5 km/h (3 Bft) W 264 0 min 0,051 mm 0,0 UV-I 0 W/m 9,8 C 11,0 C 17,7 km/h (3 Bft) 100,00 %
06.04.2016 02:01 14,4 C 74 % 1008,6 hPa 0,0 l/m 11,3 km/h (2 Bft) W-SW 247 0 min 0,000 mm 0,0 UV-I 0 W/m 9,8 C 11,9 C 16,1 km/h (3 Bft) 100,00 %
06.04.2016 02:02 14,4 C 74 % 1008,7 hPa 0,0 l/m 13,8 km/h (3 Bft) W 273 0 min 0,000 mm 0,0 UV-I 0 W/m 9,8 C 10,9 C 17,7 km/h (3 Bft) 96,30 %
06.04.2016 02:03 14,4 C 74 % 1008,7 hPa 0,0 l/m 14,7 km/h (3 Bft) SW 227 0 min 0,000 mm 0,0 UV-I 0 W/m 9,8 C 10,6 C 22,5 km/h (4 Bft) 100,00 %
06.04.2016 02:04 14,4 C 74 % 1008,7 hPa 0,0 l/m 10,5 km/h (2 Bft) W-SW 243 0 min 0,000 mm 0,0 UV-I 0 W/m 9,8 C 12,2 C 16,1 km/h (3 Bft) 100,00 %
06.04.2016 02:05 14,3 C 74 % 1008,7 hPa 0,0 l/m 13,0 km/h (3 Bft) W 275 0 min 0,000 mm 0,0 UV-I 0 W/m 9,7 C 11,1 C 17,7 km/h (3 Bft) 96,15 %
06.04.2016 02:06 14,3 C 74 % 1008,7 hPa 0,0 l/m 16,0 km/h (3 Bft) W-SW 250 0 min 0,000 mm 0,0 UV-I 0 W/m 9,7 C 10,0 C 25,7 km/h (4 Bft) 100,00 %
06.04.2016 02:07 14,3 C 74 % 1008,7 hPa 0,0 l/m 15,0 km/h (3 Bft) W-SW 238 0 min 0,000 mm 0,0 UV-I 0 W/m 9,7 C 10,3 C 24,1 km/h (4 Bft) 100,00 %
06.04.2016 02:08 14,3 C 74 % 1008,7 hPa 0,0 l/m 21,4 km/h (4 Bft) W-NW 284 0 min 0,000 mm 0,0 UV-I 0 W/m 9,7 C 8,5 C 30,6 km/h (5 Bft) 100,00 %
06.04.2016 02:09 14,3 C 74 % 1008,7 hPa 0,0 l/m 16,8 km/h (3 Bft) W-SW 251 0 min 0,000 mm 0,0 UV-I 0 W/m 9,7 C 9,8 C 20,9 km/h (4 Bft) 100,00 %
06.04.2016 02:10 14,3 C 73 % 1008,7 hPa 0,0 l/m 21,2 km/h (4 Bft) W-SW 256 0 min 0,000 mm 0,0 UV-I 0 W/m 9,5 C 8,5 C 37,0 km/h (5 Bft) 100,00 %
06.04.2016 02:11 14,4 C 73 % 1008,7 hPa 0,0 l/m 21,2 km/h (4 Bft) W-NW 293 0 min 0,000 mm 0,0 UV-I 0 W/m 9,6 C 8,7 C 32,2 km/h (5 Bft) 100,00 %
06.04.2016 02:12 14,4 C 73 % 1008,8 hPa 0,0 l/m 19,7 km/h (3 Bft) W-NW 289 0 min 0,000 mm 0,0 UV-I 0 W/m 9,6 C 9,1 C 30,6 km/h (5 Bft) 100,00 %
06.04.2016 02:13 14,4 C 74 % 1008,8 hPa 0,0 l/m 14,6 km/h (3 Bft) W 261 0 min 0,000 mm 0,0 UV-I 0 W/m 9,8 C 10,6 C 22,5 km/h (4 Bft) 95,65 %
06.04.2016 02:14 14,3 C 73 % 1008,8 hPa 0,0 l/m 12,4 km/h (3 Bft) W-SW 258 0 min 0,000 mm 0,0 UV-I 0 W/m 9,5 C 11,3 C 24,1 km/h (4 Bft) 100,00 %
06.04.2016 02:15 14,3 C 73 % 1008,7 hPa 0,0 l/m 13,4 km/h (3 Bft) W 262 0 min 0,000 mm 0,0 UV-I 0 W/m 9,5 C 10,9 C 17,7 km/h (3 Bft) 100,00 %
06.04.2016 02:16 14,3 C 73 % 1008,8 hPa 0,0 l/m 16,0 km/h (3 Bft) W-SW 251 0 min 0,000 mm 0,0 UV-I 0 W/m 9,5 C 10,0 C 25,7 km/h (4 Bft) 100,00 %
06.04.2016 02:17 14,3 C 74 % 1008,7 hPa 0,0 l/m 14,7 km/h (3 Bft) W 263 0 min 0,000 mm 0,0 UV-I 0 W/m 9,7 C 10,4 C 17,7 km/h (3 Bft) 100,00 %
06.04.2016 02:18 14,3 C 74 % 1008,8 hPa 0,0 l/m 19,6 km/h (3 Bft) W 263 0 min 0,000 mm 0,0 UV-I 0 W/m 9,7 C 8,9 C 29,0 km/h (5 Bft) 100,00 %
06.04.2016 02:19 14,3 C 74 % 1008,7 hPa 0,0 l/m 13,5 km/h (3 Bft) W-SW 257 0 min 0,000 mm 0,0 UV-I 0 W/m 9,7 C 10,9 C 20,9 km/h (4 Bft) 100,00 %
06.04.2016 02:20 14,3 C 74 % 1008,8 hPa 0,0 l/m 12,8 km/h (3 Bft) W 272 0 min 0,000 mm 0,0 UV-I 0 W/m 9,7 C 11,1 C 20,9 km/h (4 Bft) 100,00 %
06.04.2016 02:21 14,3 C 74 % 1008,8 hPa 0,0 l/m 12,2 km/h (2 Bft) W 273 0 min 0,000 mm 0,0 UV-I 0 W/m 9,7 C 11,4 C 20,9 km/h (4 Bft) 100,00 %
06.04.2016 02:22 14,3 C 74 % 1008,8 hPa 0,0 l/m 13,9 km/h (3 Bft) SW 231 0 min 0,000 mm 0,0 UV-I 0 W/m 9,7 C 10,7 C 20,9 km/h (4 Bft) 99,06 %
06.04.2016 02:23 14,2 C 74 % 1008,8 hPa 0,0 l/m 15,8 km/h (3 Bft) W 277 0 min 0,000 mm 0,0 UV-I 0 W/m 9,6 C 10,0 C 22,5 km/h (4 Bft) 100,00 %
06.04.2016 02:24 14,2 C 75 % 1008,8 hPa 0,0 l/m 17,6 km/h (3 Bft) SW 232 0 min 0,000 mm 0,0 UV-I 0 W/m 9,8 C 9,4 C 25,7 km/h (4 Bft) 100,00 %
06.04.2016 02:25 14,2 C 75 % 1008,8 hPa 0,0 l/m 12,7 km/h (3 Bft) W-NW 294 0 min 0,000 mm 0,0 UV-I 0 W/m 9,8 C 11,1 C 16,1 km/h (3 Bft) 100,00 %
06.04.2016 02:26 14,2 C 75 % 1008,8 hPa 0,0 l/m 13,9 km/h (3 Bft) W-SW 257 0 min 0,000 mm 0,0 UV-I 0 W/m 9,8 C 10,6 C 17,7 km/h (3 Bft) 100,00 %
06.04.2016 02:27 14,1 C 75 % 1008,9 hPa 0,0 l/m 14,5 km/h (3 Bft) SW 231 0 min 0,000 mm 0,0 UV-I 0 W/m 9,7 C 10,3 C 19,3 km/h (3 Bft) 100,00 %
06.04.2016 02:28 14,1 C 75 % 1008,9 hPa 0,0 l/m 14,6 km/h (3 Bft) W-SW 237 0 min 0,000 mm 0,0 UV-I 0 W/m 9,7 C 10,2 C 17,7 km/h (3 Bft) 96,15 %
06.04.2016 02:29 14,1 C 75 % 1008,8 hPa 0,0 l/m 21,5 km/h (4 Bft) SW 227 0 min 0,000 mm 0,0 UV-I 0 W/m 9,7 C 8,2 C 30,6 km/h (5 Bft) 100,00 %
06.04.2016 02:30 14,1 C 75 % 1008,9 hPa 0,0 l/m 20,1 km/h (4 Bft) W-NW 286 0 min 0,000 mm 0,0 UV-I 0 W/m 9,7 C 8,6 C 25,7 km/h (4 Bft) 100,00 %
06.04.2016 02:31 14,1 C 75 % 1008,9 hPa 0,0 l/m 21,2 km/h (4 Bft) SW 225 0 min 0,000 mm 0,0 UV-I 0 W/m 9,7 C 8,3 C 27,4 km/h (4 Bft) 100,00 %
06.04.2016 02:32 14,1 C 75 % 1009,0 hPa 0,0 l/m 16,7 km/h (3 Bft) W-SW 245 0 min 0,000 mm 0,0 UV-I 0 W/m 9,7 C 9,5 C 20,9 km/h (4 Bft) 100,00 %
06.04.2016 02:33 14,0 C 75 % 1008,9 hPa 0,0 l/m 16,6 km/h (3 Bft) W-SW 255 0 min 0,000 mm 0,0 UV-I 0 W/m 9,6 C 9,4 C 22,5 km/h (4 Bft) 100,00 %
06.04.2016 02:34 14,0 C 75 % 1009,0 hPa 0,0 l/m 18,3 km/h (3 Bft) W-SW 256 0 min 0,000 mm 0,0 UV-I 0 W/m 9,6 C 8,9 C 22,5 km/h (4 Bft) 100,00 %
06.04.2016 02:35 14,0 C 75 % 1009,0 hPa 0,0 l/m 15,3 km/h (3 Bft) W 279 0 min 0,000 mm 0,0 UV-I 0 W/m 9,6 C 9,9 C 19,3 km/h (3 Bft) 100,00 %
06.04.2016 02:36 14,0 C 75 % 1009,0 hPa 0,0 l/m 12,2 km/h (2 Bft) W-NW 291 0 min 0,000 mm 0,0 UV-I 0 W/m 9,6 C 11,0 C 20,9 km/h (4 Bft) 100,00 %
06.04.2016 02:37 14,0 C 75 % 1009,0 hPa 0,0 l/m 15,9 km/h (3 Bft) SW 227 0 min 0,000 mm 0,0 UV-I 0 W/m 9,6 C 9,7 C 19,3 km/h (3 Bft) 100,00 %
06.04.2016 02:38 13,9 C 75 % 1009,0 hPa 0,0 l/m 18,6 km/h (3 Bft) W 277 0 min 0,000 mm 0,0 UV-I 0 W/m 9,5 C 8,7 C 24,1 km/h (4 Bft) 100,00 %
06.04.2016 02:39 13,9 C 75 % 1009,0 hPa 0,0 l/m 13,9 km/h (3 Bft) W 264 0 min 0,000 mm 0,0 UV-I 0 W/m 9,5 C 10,3 C 17,7 km/h (3 Bft) 100,00 %
06.04.2016 02:40 13,9 C 75 % 1009,0 hPa 0,0 l/m 13,1 km/h (3 Bft) W-SW 256 0 min 0,000 mm 0,0 UV-I 0 W/m 9,5 C 10,6 C 25,7 km/h (4 Bft) 100,00 %
06.04.2016 02:41 13,9 C 75 % 1009,0 hPa 0,0 l/m 20,7 km/h (4 Bft) W-NW 296 0 min 0,000 mm 0,0 UV-I 0 W/m 9,5 C 8,1 C 30,6 km/h (5 Bft) 100,00 %
06.04.2016 02:42 13,9 C 75 % 1009,0 hPa 0,0 l/m 21,7 km/h (4 Bft) W-SW 242 0 min 0,000 mm 0,0 UV-I 0 W/m 9,5 C 7,9 C 27,4 km/h (4 Bft) 100,00 %
06.04.2016 02:43 13,8 C 75 % 1009,0 hPa 0,0 l/m 14,2 km/h (3 Bft) W 276 0 min 0,000 mm 0,0 UV-I 0 W/m 9,4 C 10,0 C 24,1 km/h (4 Bft) 100,00 %
06.04.2016 02:44 13,8 C 75 % 1009,0 hPa 0,0 l/m 12,0 km/h (2 Bft) W-SW 250 0 min 0,000 mm 0,0 UV-I 0 W/m 9,4 C 10,9 C 14,5 km/h (3 Bft) 100,00 %
06.04.2016 02:45 13,8 C 75 % 1009,1 hPa 0,0 l/m 21,3 km/h (4 Bft) W 268 0 min 0,000 mm 0,0 UV-I 0 W/m 9,4 C 7,9 C 24,1 km/h (4 Bft) 94,44 %
06.04.2016 02:46 13,8 C 75 % 1009,0 hPa 0,0 l/m 21,6 km/h (4 Bft) W-SW 251 0 min 0,000 mm 0,0 UV-I 0 W/m 9,4 C 7,8 C 27,4 km/h (4 Bft) 100,00 %
06.04.2016 02:47 13,8 C 75 % 1009,0 hPa 0,0 l/m 17,3 km/h (3 Bft) W-NW 296 0 min 0,000 mm 0,0 UV-I 0 W/m 9,4 C 9,0 C 22,5 km/h (4 Bft) 100,00 %
06.04.2016 02:48 13,8 C 75 % 1009,0 hPa 0,0 l/m 17,5 km/h (3 Bft) W-SW 253 0 min 0,000 mm 0,0 UV-I 0 W/m 9,4 C 8,9 C 24,1 km/h (4 Bft) 100,00 %
06.04.2016 02:49 13,8 C 75 % 1009,0 hPa 0,0 l/m 19,5 km/h (3 Bft) W-SW 254 0 min 0,000 mm 0,0 UV-I 0 W/m 9,4 C 8,3 C 25,7 km/h (4 Bft) 100,00 %
06.04.2016 02:50 13,8 C 75 % 1009,1 hPa 0,0 l/m 20,0 km/h (4 Bft) W 266 0 min 0,000 mm 0,0 UV-I 0 W/m 9,4 C 8,2 C 29,0 km/h (5 Bft) 100,00 %
06.04.2016 02:51 13,8 C 74 % 1009,1 hPa 0,0 l/m 18,4 km/h (3 Bft) W-NW 299 0 min 0,000 mm 0,0 UV-I 0 W/m 9,2 C 8,6 C 24,1 km/h (4 Bft) 100,00 %
06.04.2016 02:52 13,7 C 74 % 1009,1 hPa 0,0 l/m 19,0 km/h (3 Bft) W 264 0 min 0,000 mm 0,0 UV-I 0 W/m 9,2 C 8,3 C 29,0 km/h (5 Bft) 100,00 %
06.04.2016 02:53 13,7 C 74 % 1009,1 hPa 0,0 l/m 20,3 km/h (4 Bft) W 260 0 min 0,000 mm 0,0 UV-I 0 W/m 9,2 C 8,0 C 33,8 km/h (5 Bft) 100,00 %
06.04.2016 02:54 13,7 C 74 % 1009,1 hPa 0,0 l/m 17,4 km/h (3 Bft) W-SW 241 0 min 0,000 mm 0,0 UV-I 0 W/m 9,2 C 8,8 C 22,5 km/h (4 Bft) 100,00 %
06.04.2016 02:55 13,7 C 74 % 1009,1 hPa 0,0 l/m 16,7 km/h (3 Bft) W 263 0 min 0,000 mm 0,0 UV-I 0 W/m 9,2 C 9,0 C 22,5 km/h (4 Bft) 100,00 %
06.04.2016 02:56 13,7 C 73 % 1009,1 hPa 0,0 l/m 16,2 km/h (3 Bft) W 261 0 min 0,000 mm 0,0 UV-I 0 W/m 8,9 C 9,2 C 22,5 km/h (4 Bft) 100,00 %
06.04.2016 02:57 13,7 C 73 % 1009,1 hPa 0,0 l/m 15,1 km/h (3 Bft) W-SW 258 0 min 0,000 mm 0,0 UV-I 0 W/m 8,9 C 9,6 C 19,3 km/h (3 Bft) 100,00 %
06.04.2016 02:58 13,7 C 73 % 1009,2 hPa 0,0 l/m 17,5 km/h (3 Bft) SW 227 0 min 0,000 mm 0,0 UV-I 0 W/m 8,9 C 8,8 C 25,7 km/h (4 Bft) 100,00 %
06.04.2016 02:59 13,7 C 73 % 1009,2 hPa 0,0 l/m 18,3 km/h (3 Bft) W 261 0 min 0,000 mm 0,0 UV-I 0 W/m 8,9 C 8,6 C 25,7 km/h (4 Bft) 100,00 %
06.04.2016 03:00 13,7 C 73 % 1009,1 hPa 0,0 l/m 15,3 km/h (3 Bft) W-SW 248 0 min 0,000 mm 0,0 UV-I 0 W/m 8,9 C 9,5 C 20,9 km/h (4 Bft) 100,00 %
06.04.2016 03:01 13,7 C 73 % 1009,2 hPa 0,0 l/m 18,1 km/h (3 Bft) W 269 0 min 0,050 mm 0,0 UV-I 0 W/m 8,9 C 8,6 C 24,1 km/h (4 Bft) 100,00 %
06.04.2016 03:02 13,6 C 73 % 1009,2 hPa 0,0 l/m 11,5 km/h (2 Bft) W-SW 251 0 min 0,000 mm 0,0 UV-I 0 W/m 8,9 C 10,9 C 14,5 km/h (3 Bft) 100,00 %
06.04.2016 03:03 13,6 C 74 % 1009,2 hPa 0,0 l/m 10,7 km/h (2 Bft) W 259 0 min 0,000 mm 0,0 UV-I 0 W/m 9,1 C 11,2 C 17,7 km/h (3 Bft) 91,30 %
06.04.2016 03:04 13,6 C 74 % 1009,2 hPa 0,0 l/m 10,1 km/h (2 Bft) W-SW 256 0 min 0,000 mm 0,0 UV-I 0 W/m 9,1 C 11,5 C 12,9 km/h (3 Bft) 100,00 %
06.04.2016 03:05 13,6 C 74 % 1009,2 hPa 0,0 l/m 14,7 km/h (3 Bft) W-NW 289 0 min 0,000 mm 0,0 UV-I 0 W/m 9,1 C 9,6 C 20,9 km/h (4 Bft) 95,83 %
06.04.2016 03:06 13,6 C 74 % 1009,2 hPa 0,0 l/m 12,6 km/h (3 Bft) W 269 0 min 0,000 mm 0,0 UV-I 0 W/m 9,1 C 10,4 C 19,3 km/h (3 Bft) 95,65 %
06.04.2016 03:07 13,6 C 74 % 1009,2 hPa 0,0 l/m 11,5 km/h (2 Bft) W 267 0 min 0,000 mm 0,0 UV-I 0 W/m 9,1 C 10,9 C 17,7 km/h (3 Bft) 95,83 %
06.04.2016 03:08 13,5 C 74 % 1009,2 hPa 0,0 l/m 10,5 km/h (2 Bft) W 281 0 min 0,000 mm 0,0 UV-I 0 W/m 9,0 C 11,2 C 17,7 km/h (3 Bft) 100,00 %
06.04.2016 03:09 13,5 C 74 % 1009,2 hPa 0,0 l/m 13,1 km/h (3 Bft) W-SW 244 0 min 0,000 mm 0,0 UV-I 0 W/m 9,0 C 10,1 C 19,3 km/h (3 Bft) 94,44 %
06.04.2016 03:10 13,4 C 74 % 1009,2 hPa 0,0 l/m 11,0 km/h (2 Bft) W-NW 284 0 min 0,000 mm 0,0 UV-I 0 W/m 8,9 C 10,9 C 17,7 km/h (3 Bft) 100,00 %
06.04.2016 03:11 13,4 C 74 % 1009,3 hPa 0,0 l/m 10,2 km/h (2 Bft) W-SW 258 0 min 0,000 mm 0,0 UV-I 0 W/m 8,9 C 11,3 C 17,7 km/h (3 Bft) 96,97 %
06.04.2016 03:12 13,4 C 74 % 1009,2 hPa 0,0 l/m 14,3 km/h (3 Bft) SW 223 0 min 0,000 mm 0,0 UV-I 0 W/m 8,9 C 9,5 C 29,0 km/h (5 Bft) 100,00 %
06.04.2016 03:13 13,4 C 74 % 1009,2 hPa 0,0 l/m 19,8 km/h (3 Bft) W-NW 286 0 min 0,000 mm 0,0 UV-I 0 W/m 8,9 C 7,7 C 27,4 km/h (4 Bft) 93,33 %
06.04.2016 03:14 13,4 C 74 % 1009,3 hPa 0,0 l/m 11,8 km/h (2 Bft) W 265 0 min 0,000 mm 0,0 UV-I 0 W/m 8,9 C 10,5 C 16,1 km/h (3 Bft) 95,65 %
06.04.2016 03:15 13,4 C 74 % 1009,2 hPa 0,0 l/m 14,3 km/h (3 Bft) S-SW 207 0 min 0,000 mm 0,0 UV-I 0 W/m 8,9 C 9,5 C 20,9 km/h (4 Bft) 100,00 %
06.04.2016 03:16 13,4 C 74 % 1009,3 hPa 0,0 l/m 13,7 km/h (3 Bft) W 280 0 min 0,000 mm 0,0 UV-I 0 W/m 8,9 C 9,7 C 19,3 km/h (3 Bft) 94,44 %
06.04.2016 03:17 13,4 C 74 % 1009,3 hPa 0,0 l/m 9,6 km/h (2 Bft) W 259 0 min 0,000 mm 0,0 UV-I 0 W/m 8,9 C 11,6 C 19,3 km/h (3 Bft) 96,15 %
06.04.2016 03:18 13,4 C 74 % 1009,2 hPa 0,0 l/m 8,9 km/h (2 Bft) W-NW 288 0 min 0,000 mm 0,0 UV-I 0 W/m 8,9 C 11,9 C 16,1 km/h (3 Bft) 95,83 %
06.04.2016 03:19 13,4 C 74 % 1009,3 hPa 0,0 l/m 11,9 km/h (2 Bft) SW 235 0 min 0,000 mm 0,0 UV-I 0 W/m 8,9 C 10,5 C 17,7 km/h (3 Bft) 100,00 %
06.04.2016 03:20 13,3 C 75 % 1009,2 hPa 0,0 l/m 11,1 km/h (2 Bft) W 271 0 min 0,000 mm 0,0 UV-I 0 W/m 9,0 C 10,7 C 17,7 km/h (3 Bft) 96,15 %
06.04.2016 03:21 13,3 C 75 % 1009,3 hPa 0,0 l/m 13,0 km/h (3 Bft) W 259 0 min 0,000 mm 0,0 UV-I 0 W/m 9,0 C 9,9 C 17,7 km/h (3 Bft) 95,83 %
06.04.2016 03:22 13,3 C 75 % 1009,2 hPa 0,0 l/m 12,0 km/h (2 Bft) W 264 0 min 0,000 mm 0,0 UV-I 0 W/m 9,0 C 10,3 C 14,5 km/h (3 Bft) 100,00 %
06.04.2016 03:23 13,3 C 75 % 1009,2 hPa 0,0 l/m 13,0 km/h (3 Bft) W-SW 252 0 min 0,000 mm 0,0 UV-I 0 W/m 9,0 C 9,9 C 17,7 km/h (3 Bft) 93,33 %
06.04.2016 03:24 13,3 C 75 % 1009,2 hPa 0,0 l/m 12,0 km/h (2 Bft) W 262 0 min 0,000 mm 0,0 UV-I 0 W/m 9,0 C 10,3 C 19,3 km/h (3 Bft) 100,00 %
06.04.2016 03:25 13,3 C 75 % 1009,3 hPa 0,0 l/m 7,4 km/h (2 Bft) W-SW 250 0 min 0,000 mm 0,0 UV-I 0 W/m 9,0 C 12,7 C 14,5 km/h (3 Bft) 92,31 %
06.04.2016 03:26 13,3 C 75 % 1009,3 hPa 0,0 l/m 13,2 km/h (3 Bft) W-SW 255 0 min 0,000 mm 0,0 UV-I 0 W/m 9,0 C 9,8 C 17,7 km/h (3 Bft) 100,00 %
06.04.2016 03:27 13,3 C 75 % 1009,3 hPa 0,0 l/m 10,7 km/h (2 Bft) S-SW 212 0 min 0,000 mm 0,0 UV-I 0 W/m 9,0 C 10,9 C 14,5 km/h (3 Bft) 95,65 %
06.04.2016 03:28 13,3 C 75 % 1009,3 hPa 0,0 l/m 11,5 km/h (2 Bft) W 260 0 min 0,000 mm 0,0 UV-I 0 W/m 9,0 C 10,5 C 16,1 km/h (3 Bft) 93,33 %
06.04.2016 03:29 13,3 C 75 % 1009,3 hPa 0,0 l/m 15,6 km/h (3 Bft) W 263 0 min 0,000 mm 0,0 UV-I 0 W/m 9,0 C 8,9 C 24,1 km/h (4 Bft) 96,15 %
06.04.2016 03:30 13,3 C 75 % 1009,3 hPa 0,0 l/m 7,2 km/h (2 Bft) W-SW 257 0 min 0,000 mm 0,0 UV-I 0 W/m 9,0 C 12,8 C 11,3 km/h (2 Bft) 95,83 %
06.04.2016 03:31 13,3 C 75 % 1009,3 hPa 0,0 l/m 13,0 km/h (3 Bft) W-SW 242 0 min 0,000 mm 0,0 UV-I 0 W/m 9,0 C 9,9 C 27,4 km/h (4 Bft) 100,00 %
06.04.2016 03:32 13,3 C 75 % 1009,3 hPa 0,0 l/m 16,2 km/h (3 Bft) W-SW 244 0 min 0,000 mm 0,0 UV-I 0 W/m 9,0 C 8,7 C 24,1 km/h (4 Bft) 94,44 %
06.04.2016 03:33 13,3 C 75 % 1009,4 hPa 0,0 l/m 15,0 km/h (3 Bft) W 267 0 min 0,000 mm 0,0 UV-I 0 W/m 9,0 C 9,1 C 20,9 km/h (4 Bft) 100,00 %
06.04.2016 03:34 13,3 C 75 % 1009,4 hPa 0,0 l/m 10,9 km/h (2 Bft) W 277 0 min 0,000 mm 0,0 UV-I 0 W/m 9,0 C 10,8 C 19,3 km/h (3 Bft) 95,83 %
06.04.2016 03:35 13,2 C 75 % 1009,3 hPa 0,0 l/m 13,4 km/h (3 Bft) SW 231 0 min 0,000 mm 0,0 UV-I 0 W/m 8,9 C 9,6 C 20,9 km/h (4 Bft) 100,00 %
06.04.2016 03:36 13,2 C 75 % 1009,4 hPa 0,0 l/m 12,5 km/h (3 Bft) W-SW 244 0 min 0,000 mm 0,0 UV-I 0 W/m 8,9 C 10,0 C 19,3 km/h (3 Bft) 93,33 %
06.04.2016 03:37 13,2 C 75 % 1009,4 hPa 0,0 l/m 11,7 km/h (2 Bft) SW 229 0 min 0,000 mm 0,0 UV-I 0 W/m 8,9 C 10,3 C 16,1 km/h (3 Bft) 97,37 %
06.04.2016 03:38 13,2 C 75 % 1009,3 hPa 0,0 l/m 15,8 km/h (3 Bft) SW 233 0 min 0,000 mm 0,0 UV-I 0 W/m 8,9 C 8,7 C 20,9 km/h (4 Bft) 100,00 %
06.04.2016 03:39 13,3 C 75 % 1009,4 hPa 0,0 l/m 15,4 km/h (3 Bft) W-SW 256 0 min 0,000 mm 0,0 UV-I 0 W/m 9,0 C 9,0 C 22,5 km/h (4 Bft) 100,00 %
06.04.2016 03:40 13,3 C 75 % 1009,4 hPa 0,0 l/m 15,9 km/h (3 Bft) W 280 0 min 0,000 mm 0,0 UV-I 0 W/m 9,0 C 8,8 C 20,9 km/h (4 Bft) 100,00 %
06.04.2016 03:41 13,3 C 75 % 1009,4 hPa 0,0 l/m 10,9 km/h (2 Bft) W-SW 248 0 min 0,000 mm 0,0 UV-I 0 W/m 9,0 C 10,8 C 14,5 km/h (3 Bft) 100,00 %
06.04.2016 03:42 13,3 C 75 % 1009,4 hPa 0,0 l/m 11,0 km/h (2 Bft) W-SW 247 0 min 0,000 mm 0,0 UV-I 0 W/m 9,0 C 10,8 C 16,1 km/h (3 Bft) 100,00 %
06.04.2016 03:43 13,3 C 75 % 1009,5 hPa 0,0 l/m 13,0 km/h (3 Bft) SW 236 0 min 0,000 mm 0,0 UV-I 0 W/m 9,0 C 9,9 C 16,1 km/h (3 Bft) 100,00 %
06.04.2016 03:44 13,3 C 75 % 1009,4 hPa 0,0 l/m 11,2 km/h (2 Bft) SW 234 0 min 0,000 mm 0,0 UV-I 0 W/m 9,0 C 10,7 C 16,1 km/h (3 Bft) 100,00 %
06.04.2016 03:45 13,3 C 75 % 1009,5 hPa 0,0 l/m 10,5 km/h (2 Bft) W-NW 284 0 min 0,000 mm 0,0 UV-I 0 W/m 9,0 C 11,0 C 16,1 km/h (3 Bft) 100,00 %
06.04.2016 03:46 13,3 C 75 % 1009,4 hPa 0,0 l/m 13,3 km/h (3 Bft) W-NW 300 0 min 0,000 mm 0,0 UV-I 0 W/m 9,0 C 9,8 C 17,7 km/h (3 Bft) 98,86 %
06.04.2016 03:47 13,2 C 75 % 1009,5 hPa 0,0 l/m 13,9 km/h (3 Bft) W-SW 250 0 min 0,000 mm 0,0 UV-I 0 W/m 8,9 C 9,4 C 17,7 km/h (3 Bft) 92,68 %
06.04.2016 03:48 13,2 C 75 % 1009,5 hPa 0,0 l/m 15,0 km/h (3 Bft) W-NW 286 0 min 0,000 mm 0,0 UV-I 0 W/m 8,9 C 9,0 C 22,5 km/h (4 Bft) 100,00 %
06.04.2016 03:49 13,2 C 75 % 1009,5 hPa 0,0 l/m 12,1 km/h (2 Bft) W 259 0 min 0,000 mm 0,0 UV-I 0 W/m 8,9 C 10,2 C 17,7 km/h (3 Bft) 100,00 %
06.04.2016 03:50 13,2 C 75 % 1009,5 hPa 0,0 l/m 11,4 km/h (2 Bft) W 263 0 min 0,000 mm 0,0 UV-I 0 W/m 8,9 C 10,5 C 16,1 km/h (3 Bft) 100,00 %
06.04.2016 03:51 13,2 C 75 % 1009,5 hPa 0,0 l/m 13,5 km/h (3 Bft) W-SW 249 0 min 0,000 mm 0,0 UV-I 0 W/m 8,9 C 9,6 C 17,7 km/h (3 Bft) 100,00 %
06.04.2016 03:52 13,2 C 75 % 1009,5 hPa 0,0 l/m 15,6 km/h (3 Bft) W 273 0 min 0,000 mm 0,0 UV-I 0 W/m 8,9 C 8,8 C 20,9 km/h (4 Bft) 100,00 %
06.04.2016 03:53 13,2 C 75 % 1009,5 hPa 0,0 l/m 19,4 km/h (3 Bft) SW 232 0 min 0,000 mm 0,0 UV-I 0 W/m 8,9 C 7,6 C 24,1 km/h (4 Bft) 100,00 %
06.04.2016 03:54 13,2 C 75 % 1009,5 hPa 0,0 l/m 12,5 km/h (3 Bft) W-NW 284 0 min 0,000 mm 0,0 UV-I 0 W/m 8,9 C 10,0 C 17,7 km/h (3 Bft) 100,00 %
06.04.2016 03:55 13,2 C 75 % 1009,5 hPa 0,0 l/m 15,4 km/h (3 Bft) W 270 0 min 0,000 mm 0,0 UV-I 0 W/m 8,9 C 8,9 C 22,5 km/h (4 Bft) 100,00 %
06.04.2016 03:56 13,3 C 75 % 1009,6 hPa 0,0 l/m 12,5 km/h (3 Bft) W 281 0 min 0,000 mm 0,0 UV-I 0 W/m 9,0 C 10,1 C 19,3 km/h (3 Bft) 96,15 %
06.04.2016 03:57 13,3 C 75 % 1009,5 hPa 0,0 l/m 8,8 km/h (2 Bft) W-SW 257 0 min 0,000 mm 0,0 UV-I 0 W/m 9,0 C 11,9 C 17,7 km/h (3 Bft) 100,00 %
06.04.2016 03:58 13,2 C 75 % 1009,6 hPa 0,0 l/m 10,7 km/h (2 Bft) NW 324 0 min 0,000 mm 0,0 UV-I 0 W/m 8,9 C 10,8 C 14,5 km/h (3 Bft) 100,00 %
06.04.2016 03:59 13,2 C 75 % 1009,6 hPa 0,0 l/m 9,0 km/h (2 Bft) W 263 0 min 0,000 mm 0,0 UV-I 0 W/m 8,9 C 11,6 C 14,5 km/h (3 Bft) 100,00 %
06.04.2016 04:00 13,2 C 75 % 1009,6 hPa 0,0 l/m 17,8 km/h (3 Bft) W-SW 246 0 min 0,051 mm 0,0 UV-I 0 W/m 8,9 C 8,1 C 22,5 km/h (4 Bft) 100,00 %
06.04.2016 04:03 13,2 C 75 % 1009,5 hPa 0,0 l/m 12,8 km/h (3 Bft) W-NW 298 0 min 0,000 mm 0,0 UV-I 0 W/m 8,9 C 9,9 C 17,7 km/h (3 Bft) 100,00 %
06.04.2016 04:04 13,2 C 75 % 1009,5 hPa 0,0 l/m 16,5 km/h (3 Bft) W-SW 253 0 min 0,000 mm 0,0 UV-I 0 W/m 8,9 C 8,5 C 25,7 km/h (4 Bft) 100,00 %
06.04.2016 04:05 13,2 C 75 % 1009,7 hPa 0,0 l/m 17,1 km/h (3 Bft) W-SW 247 0 min 0,000 mm 0,0 UV-I 0 W/m 8,9 C 8,3 C 24,1 km/h (4 Bft) 100,00 %
06.04.2016 04:06 13,2 C 75 % 1009,7 hPa 0,0 l/m 13,4 km/h (3 Bft) W-SW 239 0 min 0,000 mm 0,0 UV-I 0 W/m 8,9 C 9,6 C 17,7 km/h (3 Bft) 100,00 %
06.04.2016 04:07 13,2 C 75 % 1009,7 hPa 0,0 l/m 15,9 km/h (3 Bft) W 278 0 min 0,000 mm 0,0 UV-I 0 W/m 8,9 C 8,7 C 24,1 km/h (4 Bft) 100,00 %
06.04.2016 04:08 13,2 C 75 % 1009,7 hPa 0,0 l/m 13,0 km/h (3 Bft) W 268 0 min 0,000 mm 0,0 UV-I 0 W/m 8,9 C 9,8 C 14,5 km/h (3 Bft) 100,00 %
06.04.2016 04:09 13,2 C 75 % 1009,7 hPa 0,0 l/m 10,8 km/h (2 Bft) W-SW 246 0 min 0,000 mm 0,0 UV-I 0 W/m 8,9 C 10,7 C 16,1 km/h (3 Bft) 100,00 %
06.04.2016 04:10 13,2 C 75 % 1009,7 hPa 0,0 l/m 11,5 km/h (2 Bft) W-NW 291 0 min 0,000 mm 0,0 UV-I 0 W/m 8,9 C 10,4 C 16,1 km/h (3 Bft) 96,30 %
06.04.2016 04:11 13,2 C 75 % 1009,7 hPa 0,0 l/m 10,3 km/h (2 Bft) W-SW 246 0 min 0,000 mm 0,0 UV-I 0 W/m 8,9 C 11,0 C 14,5 km/h (3 Bft) 100,00 %
06.04.2016 04:12 13,2 C 75 % 1009,8 hPa 0,0 l/m 10,8 km/h (2 Bft) W-SW 242 0 min 0,000 mm 0,0 UV-I 0 W/m 8,9 C 10,7 C 12,9 km/h (3 Bft) 100,00 %
06.04.2016 04:13 13,2 C 75 % 1009,8 hPa 0,0 l/m 14,8 km/h (3 Bft) W-SW 258 0 min 0,000 mm 0,0 UV-I 0 W/m 8,9 C 9,1 C 17,7 km/h (3 Bft) 100,00 %
06.04.2016 04:14 13,2 C 75 % 1009,8 hPa 0,0 l/m 16,8 km/h (3 Bft) W 260 0 min 0,000 mm 0,0 UV-I 0 W/m 8,9 C 8,4 C 22,5 km/h (4 Bft) 96,55 %
06.04.2016 04:15 13,2 C 75 % 1009,8 hPa 0,0 l/m 12,2 km/h (2 Bft) W 264 0 min 0,000 mm 0,0 UV-I 0 W/m 8,9 C 10,1 C 19,3 km/h (3 Bft) 100,00 %
06.04.2016 04:16 13,2 C 75 % 1009,8 hPa 0,0 l/m 11,7 km/h (2 Bft) W-SW 250 0 min 0,000 mm 0,0 UV-I 0 W/m 8,9 C 10,3 C 17,7 km/h (3 Bft) 100,00 %
06.04.2016 04:17 13,2 C 75 % 1009,8 hPa 0,0 l/m 13,2 km/h (3 Bft) W 265 0 min 0,000 mm 0,0 UV-I 0 W/m 8,9 C 9,7 C 19,3 km/h (3 Bft) 100,00 %
06.04.2016 04:18 13,2 C 75 % 1009,8 hPa 0,0 l/m 13,9 km/h (3 Bft) W-SW 254 0 min 0,000 mm 0,0 UV-I 0 W/m 8,9 C 9,4 C 19,3 km/h (3 Bft) 100,00 %
06.04.2016 04:19 13,2 C 75 % 1009,8 hPa 0,0 l/m 10,8 km/h (2 Bft) W-SW 250 0 min 0,000 mm 0,0 UV-I 0 W/m 8,9 C 10,7 C 16,1 km/h (3 Bft) 100,00 %
06.04.2016 04:20 13,2 C 75 % 1009,9 hPa 0,0 l/m 15,4 km/h (3 Bft) W 281 0 min 0,000 mm 0,0 UV-I 0 W/m 8,9 C 8,9 C 19,3 km/h (3 Bft) 96,15 %
06.04.2016 04:21 13,2 C 75 % 1009,9 hPa 0,0 l/m 12,5 km/h (3 Bft) W 267 0 min 0,000 mm 0,0 UV-I 0 W/m 8,9 C 10,0 C 17,7 km/h (3 Bft) 100,00 %
06.04.2016 04:22 13,2 C 75 % 1009,8 hPa 0,0 l/m 14,0 km/h (3 Bft) W-NW 300 0 min 0,000 mm 0,0 UV-I 0 W/m 8,9 C 9,4 C 17,7 km/h (3 Bft) 100,00 %
06.04.2016 04:23 13,2 C 75 % 1009,9 hPa 0,0 l/m 13,4 km/h (3 Bft) W 271 0 min 0,000 mm 0,0 UV-I 0 W/m 8,9 C 9,6 C 19,3 km/h (3 Bft) 100,00 %
06.04.2016 04:24 13,2 C 75 % 1009,9 hPa 0,0 l/m 12,5 km/h (3 Bft) W-NW 290 0 min 0,000 mm 0,0 UV-I 0 W/m 8,9 C 10,0 C 16,1 km/h (3 Bft) 92,86 %
06.04.2016 04:25 13,2 C 75 % 1009,9 hPa 0,0 l/m 16,0 km/h (3 Bft) W 271 0 min 0,000 mm 0,0 UV-I 0 W/m 8,9 C 8,7 C 19,3 km/h (3 Bft) 100,00 %
06.04.2016 04:26 13,1 C 75 % 1009,9 hPa 0,0 l/m 8,6 km/h (2 Bft) W 260 0 min 0,000 mm 0,0 UV-I 0 W/m 8,8 C 11,8 C 14,5 km/h (3 Bft) 100,00 %
06.04.2016 04:27 13,2 C 75 % 1009,9 hPa 0,0 l/m 12,8 km/h (3 Bft) SW 232 0 min 0,000 mm 0,0 UV-I 0 W/m 8,9 C 9,9 C 20,9 km/h (4 Bft) 100,00 %
06.04.2016 04:28 13,1 C 75 % 1009,9 hPa 0,0 l/m 14,8 km/h (3 Bft) W 265 0 min 0,000 mm 0,0 UV-I 0 W/m 8,8 C 9,0 C 19,3 km/h (3 Bft) 100,00 %
06.04.2016 04:29 13,1 C 75 % 1009,9 hPa 0,0 l/m 6,8 km/h (2 Bft) NW 310 0 min 0,000 mm 0,0 UV-I 0 W/m 8,8 C 12,9 C 12,9 km/h (3 Bft) 100,00 %
06.04.2016 04:30 13,1 C 75 % 1009,9 hPa 0,0 l/m 10,2 km/h (2 Bft) W-SW 254 0 min 0,000 mm 0,0 UV-I 0 W/m 8,8 C 10,9 C 12,9 km/h (3 Bft) 100,00 %
06.04.2016 04:31 13,1 C 76 % 1009,9 hPa 0,0 l/m 9,5 km/h (2 Bft) W 268 0 min 0,000 mm 0,0 UV-I 0 W/m 9,0 C 11,3 C 12,9 km/h (3 Bft) 100,00 %
06.04.2016 04:32 13,1 C 76 % 1010,0 hPa 0,0 l/m 13,3 km/h (3 Bft) W-SW 252 0 min 0,000 mm 0,0 UV-I 0 W/m 9,0 C 9,5 C 16,1 km/h (3 Bft) 96,15 %
06.04.2016 04:33 13,1 C 76 % 1010,0 hPa 0,0 l/m 12,7 km/h (3 Bft) W 261 0 min 0,000 mm 0,0 UV-I 0 W/m 9,0 C 9,8 C 17,7 km/h (3 Bft) 100,00 %
06.04.2016 04:34 13,1 C 76 % 1010,0 hPa 0,0 l/m 16,0 km/h (3 Bft) W-SW 246 0 min 0,000 mm 0,0 UV-I 0 W/m 9,0 C 8,5 C 22,5 km/h (4 Bft) 100,00 %
06.04.2016 04:35 13,1 C 76 % 1010,0 hPa 0,0 l/m 10,9 km/h (2 Bft) W-SW 245 0 min 0,000 mm 0,0 UV-I 0 W/m 9,0 C 10,6 C 14,5 km/h (3 Bft) 100,00 %
06.04.2016 04:36 13,1 C 76 % 1010,0 hPa 0,0 l/m 5,9 km/h (2 Bft) W-SW 254 0 min 0,000 mm 0,0 UV-I 0 W/m 9,0 C 13,1 C 9,7 km/h (2 Bft) 100,00 %
06.04.2016 04:37 13,1 C 76 % 1010,0 hPa 0,0 l/m 11,8 km/h (2 Bft) NW 304 0 min 0,000 mm 0,0 UV-I 0 W/m 9,0 C 10,2 C 20,9 km/h (4 Bft) 100,00 %
06.04.2016 04:38 13,1 C 76 % 1010,0 hPa 0,0 l/m 16,3 km/h (3 Bft) W 259 0 min 0,000 mm 0,0 UV-I 0 W/m 9,0 C 8,4 C 22,5 km/h (4 Bft) 100,00 %
06.04.2016 04:39 13,1 C 76 % 1010,0 hPa 0,0 l/m 9,1 km/h (2 Bft) W-SW 256 0 min 0,000 mm 0,0 UV-I 0 W/m 9,0 C 11,5 C 19,3 km/h (3 Bft) 100,00 %
06.04.2016 04:40 13,1 C 76 % 1010,0 hPa 0,0 l/m 12,9 km/h (3 Bft) W-SW 244 0 min 0,000 mm 0,0 UV-I 0 W/m 9,0 C 9,7 C 17,7 km/h (3 Bft) 100,00 %
06.04.2016 04:41 13,1 C 76 % 1010,0 hPa 0,0 l/m 14,0 km/h (3 Bft) W 261 0 min 0,000 mm 0,0 UV-I 0 W/m 9,0 C 9,3 C 17,7 km/h (3 Bft) 100,00 %
06.04.2016 04:42 13,1 C 76 % 1010,0 hPa 0,0 l/m 14,4 km/h (3 Bft) W 268 0 min 0,000 mm 0,0 UV-I 0 W/m 9,0 C 9,1 C 17,7 km/h (3 Bft) 100,00 %
06.04.2016 04:43 13,1 C 76 % 1010,0 hPa 0,0 l/m 16,0 km/h (3 Bft) W 277 0 min 0,000 mm 0,0 UV-I 0 W/m 9,0 C 8,5 C 22,5 km/h (4 Bft) 100,00 %
06.04.2016 04:44 13,0 C 76 % 1010,1 hPa 0,0 l/m 12,7 km/h (3 Bft) W 277 0 min 0,000 mm 0,0 UV-I 0 W/m 8,9 C 9,7 C 20,9 km/h (4 Bft) 100,00 %
06.04.2016 04:45 13,0 C 76 % 1010,1 hPa 0,0 l/m 11,8 km/h (2 Bft) W-SW 238 0 min 0,000 mm 0,0 UV-I 0 W/m 8,9 C 10,1 C 16,1 km/h (3 Bft) 100,00 %
06.04.2016 04:46 13,0 C 76 % 1010,1 hPa 0,0 l/m 9,4 km/h (2 Bft) W-SW 251 0 min 0,000 mm 0,0 UV-I 0 W/m 8,9 C 11,2 C 12,9 km/h (3 Bft) 100,00 %
06.04.2016 04:47 13,0 C 76 % 1010,1 hPa 0,0 l/m 13,6 km/h (3 Bft) SW 226 0 min 0,000 mm 0,0 UV-I 0 W/m 8,9 C 9,3 C 22,5 km/h (4 Bft) 100,00 %
06.04.2016 04:48 13,0 C 76 % 1010,1 hPa 0,0 l/m 22,9 km/h (4 Bft) W-SW 248 0 min 0,000 mm 0,0 UV-I 0 W/m 8,9 C 6,4 C 32,2 km/h (5 Bft) 100,00 %
06.04.2016 04:49 13,0 C 76 % 1010,1 hPa 0,0 l/m 20,1 km/h (4 Bft) W-SW 253 0 min 0,000 mm 0,0 UV-I 0 W/m 8,9 C 7,1 C 25,7 km/h (4 Bft) 100,00 %
06.04.2016 04:50 13,0 C 75 % 1010,2 hPa 0,0 l/m 18,0 km/h (3 Bft) SW 234 0 min 0,000 mm 0,0 UV-I 0 W/m 8,7 C 7,8 C 24,1 km/h (4 Bft) 100,00 %
06.04.2016 04:51 13,0 C 75 % 1010,2 hPa 0,0 l/m 18,3 km/h (3 Bft) W 259 0 min 0,000 mm 0,0 UV-I 0 W/m 8,7 C 7,7 C 24,1 km/h (4 Bft) 100,00 %
06.04.2016 04:52 13,0 C 75 % 1010,2 hPa 0,0 l/m 16,3 km/h (3 Bft) W-SW 252 0 min 0,000 mm 0,0 UV-I 0 W/m 8,7 C 8,3 C 20,9 km/h (4 Bft) 100,00 %
06.04.2016 04:53 13,0 C 75 % 1010,2 hPa 0,0 l/m 13,8 km/h (3 Bft) W 262 0 min 0,000 mm 0,0 UV-I 0 W/m 8,7 C 9,2 C 17,7 km/h (3 Bft) 100,00 %
06.04.2016 04:54 13,0 C 75 % 1010,2 hPa 0,0 l/m 16,3 km/h (3 Bft) S-SW 200 0 min 0,000 mm 0,0 UV-I 0 W/m 8,7 C 8,3 C 22,5 km/h (4 Bft) 100,00 %
06.04.2016 04:55 13,0 C 75 % 1010,2 hPa 0,0 l/m 14,9 km/h (3 Bft) W 259 0 min 0,000 mm 0,0 UV-I 0 W/m 8,7 C 8,8 C 20,9 km/h (4 Bft) 96,15 %
06.04.2016 04:56 13,0 C 75 % 1010,3 hPa 0,0 l/m 13,6 km/h (3 Bft) W-SW 253 0 min 0,000 mm 0,0 UV-I 0 W/m 8,7 C 9,3 C 19,3 km/h (3 Bft) 100,00 %
06.04.2016 04:57 13,0 C 75 % 1010,3 hPa 0,0 l/m 15,0 km/h (3 Bft) W 264 0 min 0,000 mm 0,0 UV-I 0 W/m 8,7 C 8,8 C 19,3 km/h (3 Bft) 100,00 %
06.04.2016 04:58 12,9 C 75 % 1010,2 hPa 0,0 l/m 14,1 km/h (3 Bft) W-SW 258 0 min 0,000 mm 0,0 UV-I 0 W/m 8,6 C 9,0 C 19,3 km/h (3 Bft) 100,00 %
06.04.2016 04:59 12,9 C 75 % 1010,3 hPa 0,0 l/m 10,1 km/h (2 Bft) W-SW 243 0 min 0,000 mm 0,0 UV-I 0 W/m 8,6 C 10,7 C 16,1 km/h (3 Bft) 100,00 %
06.04.2016 05:00 12,9 C 75 % 1010,3 hPa 0,0 l/m 13,9 km/h (3 Bft) W-SW 255 0 min 0,051 mm 0,0 UV-I 0 W/m 8,6 C 9,1 C 17,7 km/h (3 Bft) 100,00 %
06.04.2016 05:01 12,9 C 75 % 1010,3 hPa 0,0 l/m 16,0 km/h (3 Bft) W 264 0 min 0,000 mm 0,0 UV-I 0 W/m 8,6 C 8,3 C 20,9 km/h (4 Bft) 100,00 %
06.04.2016 05:02 12,9 C 75 % 1010,3 hPa 0,0 l/m 15,5 km/h (3 Bft) W 262 0 min 0,000 mm 0,0 UV-I 0 W/m 8,6 C 8,5 C 22,5 km/h (4 Bft) 95,65 %
06.04.2016 05:03 12,9 C 75 % 1010,3 hPa 0,0 l/m 16,4 km/h (3 Bft) W 268 0 min 0,000 mm 0,0 UV-I 0 W/m 8,6 C 8,2 C 22,5 km/h (4 Bft) 100,00 %
06.04.2016 05:04 12,9 C 75 % 1010,3 hPa 0,0 l/m 12,5 km/h (3 Bft) W-SW 238 0 min 0,000 mm 0,0 UV-I 0 W/m 8,6 C 9,6 C 19,3 km/h (3 Bft) 96,15 %
06.04.2016 05:05 12,9 C 75 % 1010,3 hPa 0,0 l/m 11,0 km/h (2 Bft) W 260 0 min 0,000 mm 0,0 UV-I 0 W/m 8,6 C 10,3 C 14,5 km/h (3 Bft) 96,30 %
06.04.2016 05:06 12,9 C 76 % 1010,3 hPa 0,0 l/m 13,9 km/h (3 Bft) W-SW 258 0 min 0,000 mm 0,0 UV-I 0 W/m 8,8 C 9,1 C 17,7 km/h (3 Bft) 100,00 %
06.04.2016 05:07 12,9 C 75 % 1010,3 hPa 0,0 l/m 16,1 km/h (3 Bft) SW 230 0 min 0,000 mm 0,0 UV-I 0 W/m 8,6 C 8,3 C 22,5 km/h (4 Bft) 96,30 %
06.04.2016 05:08 12,9 C 75 % 1010,4 hPa 0,0 l/m 16,3 km/h (3 Bft) W-SW 254 0 min 0,000 mm 0,0 UV-I 0 W/m 8,6 C 8,2 C 24,1 km/h (4 Bft) 100,00 %
06.04.2016 05:09 12,9 C 75 % 1010,4 hPa 0,0 l/m 11,2 km/h (2 Bft) W-SW 239 0 min 0,000 mm 0,0 UV-I 0 W/m 8,6 C 10,2 C 16,1 km/h (3 Bft) 91,67 %
06.04.2016 05:10 12,9 C 76 % 1010,4 hPa 0,0 l/m 9,8 km/h (2 Bft) W-SW 240 0 min 0,000 mm 0,0 UV-I 0 W/m 8,8 C 10,9 C 12,9 km/h (3 Bft) 100,00 %
06.04.2016 05:11 12,9 C 75 % 1010,4 hPa 0,0 l/m 13,8 km/h (3 Bft) SW 233 0 min 0,000 mm 0,0 UV-I 0 W/m 8,6 C 9,1 C 19,3 km/h (3 Bft) 95,45 %
06.04.2016 05:12 12,9 C 76 % 1010,4 hPa 0,0 l/m 13,4 km/h (3 Bft) W 259 0 min 0,000 mm 0,0 UV-I 0 W/m 8,8 C 9,3 C 17,7 km/h (3 Bft) 95,65 %
06.04.2016 05:13 12,8 C 76 % 1010,4 hPa 0,0 l/m 10,7 km/h (2 Bft) W-NW 282 0 min 0,000 mm 0,0 UV-I 0 W/m 8,7 C 10,3 C 14,5 km/h (3 Bft) 100,00 %
06.04.2016 05:14 12,8 C 76 % 1010,4 hPa 0,0 l/m 11,6 km/h (2 Bft) SW 236 0 min 0,000 mm 0,0 UV-I 0 W/m 8,7 C 9,9 C 19,3 km/h (3 Bft) 100,00 %
06.04.2016 05:15 12,8 C 76 % 1010,4 hPa 0,0 l/m 13,0 km/h (3 Bft) W-SW 255 0 min 0,000 mm 0,0 UV-I 0 W/m 8,7 C 9,3 C 17,7 km/h (3 Bft) 95,65 %
06.04.2016 05:16 12,8 C 76 % 1010,4 hPa 0,0 l/m 13,3 km/h (3 Bft) W-SW 244 0 min 0,000 mm 0,0 UV-I 0 W/m 8,7 C 9,2 C 16,1 km/h (3 Bft) 96,30 %
06.04.2016 05:17 12,8 C 76 % 1010,5 hPa 0,0 l/m 18,3 km/h (3 Bft) W-SW 246 0 min 0,000 mm 0,0 UV-I 0 W/m 8,7 C 7,4 C 22,5 km/h (4 Bft) 100,00 %
06.04.2016 05:18 12,8 C 76 % 1010,5 hPa 0,0 l/m 16,7 km/h (3 Bft) W 260 0 min 0,000 mm 0,0 UV-I 0 W/m 8,7 C 7,9 C 20,9 km/h (4 Bft) 96,15 %
06.04.2016 05:19 12,8 C 76 % 1010,5 hPa 0,0 l/m 13,7 km/h (3 Bft) W-SW 254 0 min 0,000 mm 0,0 UV-I 0 W/m 8,7 C 9,0 C 16,1 km/h (3 Bft) 100,00 %
06.04.2016 05:20 12,8 C 76 % 1010,5 hPa 0,0 l/m 12,2 km/h (2 Bft) W 266 0 min 0,000 mm 0,0 UV-I 0 W/m 8,7 C 9,7 C 14,5 km/h (3 Bft) 96,30 %
06.04.2016 05:21 12,8 C 76 % 1010,5 hPa 0,0 l/m 13,2 km/h (3 Bft) W 266 0 min 0,000 mm 0,0 UV-I 0 W/m 8,7 C 9,2 C 17,7 km/h (3 Bft) 100,00 %
06.04.2016 05:22 12,8 C 76 % 1010,5 hPa 0,0 l/m 13,5 km/h (3 Bft) W 271 0 min 0,000 mm 0,0 UV-I 0 W/m 8,7 C 9,1 C 17,7 km/h (3 Bft) 95,83 %
06.04.2016 05:23 12,8 C 76 % 1010,5 hPa 0,0 l/m 12,3 km/h (3 Bft) W-SW 244 0 min 0,000 mm 0,0 UV-I 0 W/m 8,7 C 9,6 C 14,5 km/h (3 Bft) 96,15 %
06.04.2016 05:24 12,8 C 76 % 1010,5 hPa 0,0 l/m 14,6 km/h (3 Bft) W-SW 255 0 min 0,000 mm 0,0 UV-I 0 W/m 8,7 C 8,7 C 19,3 km/h (3 Bft) 100,00 %
06.04.2016 05:25 12,8 C 76 % 1010,5 hPa 0,0 l/m 7,6 km/h (2 Bft) W-SW 240 0 min 0,000 mm 0,0 UV-I 0 W/m 8,7 C 12,0 C 12,9 km/h (3 Bft) 96,55 %
06.04.2016 05:26 12,8 C 76 % 1010,5 hPa 0,0 l/m 15,4 km/h (3 Bft) W 261 0 min 0,000 mm 0,0 UV-I 0 W/m 8,7 C 8,4 C 19,3 km/h (3 Bft) 100,00 %
06.04.2016 05:27 12,8 C 76 % 1010,5 hPa 0,0 l/m 15,4 km/h (3 Bft) W-SW 240 0 min 0,000 mm 0,0 UV-I 0 W/m 8,7 C 8,4 C 20,9 km/h (4 Bft) 95,65 %
06.04.2016 05:28 12,8 C 76 % 1010,5 hPa 0,0 l/m 12,7 km/h (3 Bft) W-SW 248 0 min 0,000 mm 0,0 UV-I 0 W/m 8,7 C 9,4 C 17,7 km/h (3 Bft) 100,00 %
06.04.2016 05:29 12,8 C 76 % 1010,6 hPa 0,0 l/m 11,5 km/h (2 Bft) W 273 0 min 0,000 mm 0,0 UV-I 0 W/m 8,7 C 10,0 C 16,1 km/h (3 Bft) 92,86 %
06.04.2016 05:30 12,7 C 76 % 1010,6 hPa 0,0 l/m 14,7 km/h (3 Bft) W-SW 250 0 min 0,000 mm 0,0 UV-I 0 W/m 8,6 C 8,5 C 19,3 km/h (3 Bft) 100,00 %
06.04.2016 05:31 12,7 C 76 % 1010,6 hPa 0,0 l/m 12,7 km/h (3 Bft) W-SW 255 0 min 0,000 mm 0,0 UV-I 0 W/m 8,6 C 9,3 C 17,7 km/h (3 Bft) 91,30 %
06.04.2016 05:32 12,7 C 76 % 1010,6 hPa 0,0 l/m 13,9 km/h (3 Bft) W-SW 242 0 min 0,000 mm 0,0 UV-I 0 W/m 8,6 C 8,8 C 19,3 km/h (3 Bft) 100,00 %
06.04.2016 05:33 12,7 C 76 % 1010,6 hPa 0,0 l/m 14,6 km/h (3 Bft) W 281 0 min 0,000 mm 0,0 UV-I 0 W/m 8,6 C 8,6 C 19,3 km/h (3 Bft) 96,88 %
06.04.2016 05:34 12,7 C 76 % 1010,6 hPa 0,0 l/m 18,3 km/h (3 Bft) W 276 0 min 0,000 mm 0,0 UV-I 0 W/m 8,6 C 7,3 C 25,7 km/h (4 Bft) 95,83 %
06.04.2016 05:35 12,7 C 76 % 1010,6 hPa 0,0 l/m 12,6 km/h (3 Bft) SW 231 0 min 0,000 mm 0,0 UV-I 0 W/m 8,6 C 9,4 C 17,7 km/h (3 Bft) 100,00 %
06.04.2016 05:36 12,7 C 76 % 1010,6 hPa 0,0 l/m 13,6 km/h (3 Bft) W 271 0 min 0,000 mm 0,0 UV-I 0 W/m 8,6 C 8,9 C 20,9 km/h (4 Bft) 95,65 %
06.04.2016 05:37 12,7 C 76 % 1010,6 hPa 0,0 l/m 15,8 km/h (3 Bft) W-SW 251 0 min 0,000 mm 0,0 UV-I 0 W/m 8,6 C 8,1 C 20,9 km/h (4 Bft) 100,00 %
06.04.2016 05:38 12,7 C 76 % 1010,6 hPa 0,0 l/m 15,4 km/h (3 Bft) W-SW 238 0 min 0,000 mm 0,0 UV-I 0 W/m 8,6 C 8,3 C 20,9 km/h (4 Bft) 100,00 %
06.04.2016 05:39 12,7 C 76 % 1010,6 hPa 0,0 l/m 10,3 km/h (2 Bft) W 277 0 min 0,000 mm 0,0 UV-I 0 W/m 8,6 C 10,4 C 12,9 km/h (3 Bft) 100,00 %
06.04.2016 05:40 12,7 C 76 % 1010,6 hPa 0,0 l/m 17,1 km/h (3 Bft) W 262 0 min 0,000 mm 0,0 UV-I 0 W/m 8,6 C 7,7 C 24,1 km/h (4 Bft) 100,00 %
06.04.2016 05:41 12,7 C 76 % 1010,6 hPa 0,0 l/m 13,7 km/h (3 Bft) SW 229 0 min 0,000 mm 0,0 UV-I 0 W/m 8,6 C 8,9 C 20,9 km/h (4 Bft) 100,00 %
06.04.2016 05:42 12,7 C 76 % 1010,6 hPa 0,0 l/m 12,4 km/h (3 Bft) SW 226 0 min 0,000 mm 0,0 UV-I 0 W/m 8,6 C 9,4 C 16,1 km/h (3 Bft) 100,00 %
06.04.2016 05:43 12,7 C 76 % 1010,6 hPa 0,0 l/m 12,2 km/h (2 Bft) SW 229 0 min 0,000 mm 0,0 UV-I 0 W/m 8,6 C 9,5 C 19,3 km/h (3 Bft) 96,30 %
06.04.2016 05:44 12,7 C 76 % 1010,6 hPa 0,0 l/m 17,1 km/h (3 Bft) W-SW 252 0 min 0,000 mm 0,0 UV-I 0 W/m 8,6 C 7,7 C 25,7 km/h (4 Bft) 100,00 %
06.04.2016 05:45 12,7 C 76 % 1010,6 hPa 0,0 l/m 13,2 km/h (3 Bft) W-SW 248 0 min 0,000 mm 0,0 UV-I 0 W/m 8,6 C 9,1 C 17,7 km/h (3 Bft) 95,83 %
06.04.2016 05:46 12,7 C 76 % 1010,7 hPa 0,0 l/m 14,6 km/h (3 Bft) W-NW 294 0 min 0,000 mm 0,0 UV-I 0 W/m 8,6 C 8,6 C 19,3 km/h (3 Bft) 100,00 %
06.04.2016 05:47 12,7 C 76 % 1010,7 hPa 0,0 l/m 15,2 km/h (3 Bft) W-SW 250 0 min 0,000 mm 0,0 UV-I 0 W/m 8,6 C 8,3 C 19,3 km/h (3 Bft) 95,83 %
06.04.2016 05:48 12,6 C 76 % 1010,7 hPa 0,0 l/m 13,3 km/h (3 Bft) W-SW 255 0 min 0,000 mm 0,0 UV-I 0 W/m 8,5 C 9,0 C 19,3 km/h (3 Bft) 100,00 %
06.04.2016 05:49 12,6 C 76 % 1010,7 hPa 0,0 l/m 9,6 km/h (2 Bft) W-SW 243 0 min 0,000 mm 0,0 UV-I 0 W/m 8,5 C 10,7 C 14,5 km/h (3 Bft) 100,00 %
06.04.2016 05:50 12,6 C 76 % 1010,7 hPa 0,0 l/m 13,2 km/h (3 Bft) W 260 0 min 0,000 mm 0,0 UV-I 0 W/m 8,5 C 9,0 C 16,1 km/h (3 Bft) 95,65 %
06.04.2016 05:51 12,6 C 76 % 1010,8 hPa 0,0 l/m 15,6 km/h (3 Bft) W-SW 254 0 min 0,000 mm 0,0 UV-I 0 W/m 8,5 C 8,1 C 20,9 km/h (4 Bft) 100,00 %
06.04.2016 05:52 12,6 C 76 % 1010,7 hPa 0,0 l/m 21,3 km/h (4 Bft) W-SW 257 0 min 0,000 mm 0,0 UV-I 0 W/m 8,5 C 6,3 C 25,7 km/h (4 Bft) 100,00 %
06.04.2016 05:53 12,6 C 76 % 1010,8 hPa 0,0 l/m 16,3 km/h (3 Bft) S 188 0 min 0,000 mm 0,0 UV-I 0 W/m 8,5 C 7,8 C 25,7 km/h (4 Bft) 100,00 %
06.04.2016 05:54 12,6 C 76 % 1010,8 hPa 0,0 l/m 16,4 km/h (3 Bft) SW 234 0 min 0,000 mm 0,0 UV-I 0 W/m 8,5 C 7,8 C 24,1 km/h (4 Bft) 100,00 %
06.04.2016 05:55 12,6 C 76 % 1010,8 hPa 0,0 l/m 16,7 km/h (3 Bft) W 260 0 min 0,000 mm 0,0 UV-I 0 W/m 8,5 C 7,7 C 22,5 km/h (4 Bft) 100,00 %
06.04.2016 05:56 12,6 C 76 % 1010,8 hPa 0,0 l/m 14,7 km/h (3 Bft) S-SW 213 0 min 0,000 mm 0,0 UV-I 0 W/m 8,5 C 8,4 C 19,3 km/h (3 Bft) 100,00 %
06.04.2016 05:57 12,6 C 77 % 1010,7 hPa 0,0 l/m 17,9 km/h (3 Bft) W-SW 254 0 min 0,000 mm 0,0 UV-I 0 W/m 8,7 C 7,3 C 30,6 km/h (5 Bft) 100,00 %
06.04.2016 05:58 12,6 C 76 % 1010,7 hPa 0,0 l/m 14,2 km/h (3 Bft) W-SW 254 0 min 0,000 mm 0,0 UV-I 0 W/m 8,5 C 8,6 C 20,9 km/h (4 Bft) 100,00 %
06.04.2016 05:59 12,6 C 76 % 1010,8 hPa 0,0 l/m 10,5 km/h (2 Bft) W-SW 253 0 min 0,000 mm 0,0 UV-I 0 W/m 8,5 C 10,2 C 14,5 km/h (3 Bft) 100,00 %
06.04.2016 06:00 12,6 C 77 % 1010,8 hPa 0,0 l/m 13,7 km/h (3 Bft) W 259 0 min 0,051 mm 0,0 UV-I 0 W/m 8,7 C 8,8 C 16,1 km/h (3 Bft) 95,83 %
06.04.2016 06:01 12,6 C 77 % 1010,8 hPa 0,0 l/m 12,4 km/h (3 Bft) W-SW 246 0 min 0,000 mm 0,0 UV-I 0 W/m 8,7 C 9,3 C 17,7 km/h (3 Bft) 100,00 %
06.04.2016 06:02 12,5 C 77 % 1010,8 hPa 0,0 l/m 11,8 km/h (2 Bft) W-SW 258 0 min 0,000 mm 0,0 UV-I 0 W/m 8,6 C 9,5 C 16,1 km/h (3 Bft) 95,83 %
06.04.2016 06:03 12,5 C 77 % 1010,8 hPa 0,0 l/m 11,3 km/h (2 Bft) W-SW 246 0 min 0,000 mm 0,0 UV-I 0 W/m 8,6 C 9,7 C 16,1 km/h (3 Bft) 100,00 %
06.04.2016 06:04 12,5 C 77 % 1010,8 hPa 0,0 l/m 11,3 km/h (2 Bft) W-SW 245 0 min 0,000 mm 0,0 UV-I 0 W/m 8,6 C 9,7 C 14,5 km/h (3 Bft) 100,00 %
06.04.2016 06:05 12,5 C 77 % 1010,8 hPa 0,0 l/m 9,3 km/h (2 Bft) SW 232 0 min 0,000 mm 0,0 UV-I 0 W/m 8,6 C 10,7 C 12,9 km/h (3 Bft) 100,00 %
06.04.2016 06:06 12,5 C 77 % 1010,8 hPa 0,0 l/m 12,7 km/h (3 Bft) W-SW 240 0 min 0,000 mm 0,0 UV-I 0 W/m 8,6 C 9,1 C 19,3 km/h (3 Bft) 93,33 %
06.04.2016 06:07 12,5 C 77 % 1010,8 hPa 0,0 l/m 12,0 km/h (2 Bft) SW 226 0 min 0,000 mm 0,0 UV-I 0 W/m 8,6 C 9,4 C 17,7 km/h (3 Bft) 100,00 %
06.04.2016 06:08 12,4 C 77 % 1010,8 hPa 0,0 l/m 13,3 km/h (3 Bft) W-SW 243 0 min 0,000 mm 0,0 UV-I 0 W/m 8,5 C 8,7 C 19,3 km/h (3 Bft) 100,00 %
06.04.2016 06:09 12,4 C 77 % 1010,8 hPa 0,0 l/m 12,3 km/h (3 Bft) S-SW 210 0 min 0,000 mm 0,0 UV-I 0 W/m 8,5 C 9,1 C 17,7 km/h (3 Bft) 100,00 %
06.04.2016 06:10 12,4 C 77 % 1010,8 hPa 0,0 l/m 14,5 km/h (3 Bft) SW 219 0 min 0,000 mm 0,0 UV-I 0 W/m 8,5 C 8,2 C 20,9 km/h (4 Bft) 100,00 %
06.04.2016 06:11 12,4 C 77 % 1010,8 hPa 0,0 l/m 13,9 km/h (3 Bft) W 259 0 min 0,000 mm 0,0 UV-I 0 W/m 8,5 C 8,5 C 19,3 km/h (3 Bft) 100,00 %
06.04.2016 06:12 12,4 C 77 % 1010,8 hPa 0,0 l/m 10,9 km/h (2 Bft) W-SW 248 0 min 0,000 mm 0,0 UV-I 0 W/m 8,5 C 9,8 C 14,5 km/h (3 Bft) 100,00 %
06.04.2016 06:13 12,4 C 77 % 1010,8 hPa 0,0 l/m 11,0 km/h (2 Bft) W 263 0 min 0,000 mm 0,0 UV-I 0 W/m 8,5 C 9,7 C 20,9 km/h (4 Bft) 100,00 %
06.04.2016 06:14 12,4 C 77 % 1010,8 hPa 0,0 l/m 18,7 km/h (3 Bft) W 267 0 min 0,000 mm 0,0 UV-I 0 W/m 8,5 C 6,8 C 22,5 km/h (4 Bft) 100,00 %
06.04.2016 06:15 12,4 C 77 % 1010,8 hPa 0,0 l/m 15,6 km/h (3 Bft) W 266 0 min 0,000 mm 0,0 UV-I 0 W/m 8,5 C 7,8 C 20,9 km/h (4 Bft) 100,00 %
06.04.2016 06:16 12,4 C 76 % 1010,8 hPa 0,0 l/m 15,4 km/h (3 Bft) W-SW 257 0 min 0,000 mm 0,0 UV-I 0 W/m 8,3 C 7,9 C 19,3 km/h (3 Bft) 100,00 %
06.04.2016 06:17 12,4 C 77 % 1010,8 hPa 0,0 l/m 14,6 km/h (3 Bft) W 265 0 min 0,000 mm 0,0 UV-I 0 W/m 8,5 C 8,2 C 20,9 km/h (4 Bft) 100,00 %
06.04.2016 06:18 12,4 C 77 % 1010,8 hPa 0,0 l/m 11,4 km/h (2 Bft) W-SW 240 0 min 0,000 mm 0,0 UV-I 0 W/m 8,5 C 9,6 C 17,7 km/h (3 Bft) 100,00 %
06.04.2016 06:19 12,4 C 77 % 1010,8 hPa 0,0 l/m 11,0 km/h (2 Bft) W-SW 254 0 min 0,000 mm 0,0 UV-I 0 W/m 8,5 C 9,7 C 14,5 km/h (3 Bft) 96,67 %
06.04.2016 06:20 12,4 C 77 % 1010,9 hPa 0,0 l/m 10,3 km/h (2 Bft) W-SW 253 0 min 0,000 mm 0,0 UV-I 0 W/m 8,5 C 10,1 C 14,5 km/h (3 Bft) 100,00 %
06.04.2016 06:21 12,4 C 77 % 1010,9 hPa 0,0 l/m 11,7 km/h (2 Bft) W 263 0 min 0,000 mm 0,0 UV-I 0 W/m 8,5 C 9,4 C 19,3 km/h (3 Bft) 100,00 %
06.04.2016 06:22 12,4 C 77 % 1010,9 hPa 0,0 l/m 13,8 km/h (3 Bft) W 261 0 min 0,000 mm 0,0 UV-I 0 W/m 8,5 C 8,5 C 19,3 km/h (3 Bft) 100,00 %
06.04.2016 06:23 12,4 C 77 % 1010,9 hPa 0,0 l/m 13,4 km/h (3 Bft) W-SW 239 0 min 0,000 mm 0,0 UV-I 0 W/m 8,5 C 8,7 C 17,7 km/h (3 Bft) 100,00 %
06.04.2016 06:24 12,4 C 77 % 1010,9 hPa 0,0 l/m 11,1 km/h (2 Bft) W-SW 252 0 min 0,000 mm 0,0 UV-I 0 W/m 8,5 C 9,7 C 16,1 km/h (3 Bft) 100,00 %
06.04.2016 06:25 12,4 C 77 % 1010,9 hPa 0,0 l/m 11,4 km/h (2 Bft) SW 221 0 min 0,000 mm 0,0 UV-I 0 W/m 8,5 C 9,6 C 14,5 km/h (3 Bft) 100,00 %
06.04.2016 06:26 12,4 C 77 % 1010,9 hPa 0,0 l/m 6,8 km/h (2 Bft) W-SW 246 0 min 0,000 mm 0,0 UV-I 0 W/m 8,5 C 12,1 C 9,7 km/h (2 Bft) 100,00 %
06.04.2016 06:27 12,4 C 77 % 1010,9 hPa 0,0 l/m 8,5 km/h (2 Bft) S-SW 211 0 min 0,000 mm 0,0 UV-I 0 W/m 8,5 C 11,1 C 14,5 km/h (3 Bft) 100,00 %
06.04.2016 06:28 12,4 C 77 % 1010,9 hPa 0,0 l/m 10,6 km/h (2 Bft) W-SW 243 0 min 0,000 mm 0,0 UV-I 0 W/m 8,5 C 9,9 C 16,1 km/h (3 Bft) 100,00 %
06.04.2016 06:29 12,4 C 77 % 1010,9 hPa 0,0 l/m 12,1 km/h (2 Bft) W-SW 251 0 min 0,000 mm 0,0 UV-I 0 W/m 8,5 C 9,2 C 17,7 km/h (3 Bft) 100,00 %
06.04.2016 06:30 12,4 C 77 % 1010,9 hPa 0,0 l/m 11,1 km/h (2 Bft) W-SW 258 0 min 0,000 mm 0,0 UV-I 0 W/m 8,5 C 9,7 C 14,5 km/h (3 Bft) 100,00 %
06.04.2016 06:31 12,4 C 77 % 1010,9 hPa 0,0 l/m 11,9 km/h (2 Bft) W-SW 237 0 min 0,000 mm 0,0 UV-I 0 W/m 8,5 C 9,3 C 17,7 km/h (3 Bft) 100,00 %
06.04.2016 06:32 12,4 C 77 % 1010,9 hPa 0,0 l/m 7,8 km/h (2 Bft) W 260 0 min 0,000 mm 0,0 UV-I 0 W/m 8,5 C 11,5 C 12,9 km/h (3 Bft) 95,65 %
06.04.2016 06:33 12,3 C 77 % 1010,9 hPa 0,0 l/m 14,6 km/h (3 Bft) W-SW 255 0 min 0,000 mm 0,0 UV-I 0 W/m 8,4 C 8,1 C 17,7 km/h (3 Bft) 100,00 %
06.04.2016 06:34 12,3 C 77 % 1010,9 hPa 0,0 l/m 12,5 km/h (3 Bft) W-SW 251 0 min 0,000 mm 0,0 UV-I 0 W/m 8,4 C 8,9 C 14,5 km/h (3 Bft) 100,00 %
06.04.2016 06:35 12,3 C 77 % 1010,9 hPa 0,0 l/m 10,0 km/h (2 Bft) W-SW 246 0 min 0,000 mm 0,0 UV-I 0 W/m 8,4 C 10,1 C 16,1 km/h (3 Bft) 100,00 %
06.04.2016 06:36 12,3 C 77 % 1010,9 hPa 0,0 l/m 14,2 km/h (3 Bft) SW 219 0 min 0,000 mm 0,0 UV-I 0 W/m 8,4 C 8,2 C 19,3 km/h (3 Bft) 96,15 %
06.04.2016 06:37 12,3 C 77 % 1010,9 hPa 0,0 l/m 10,4 km/h (2 Bft) W 263 0 min 0,000 mm 0,0 UV-I 0 W/m 8,4 C 9,9 C 16,1 km/h (3 Bft) 100,00 %
06.04.2016 06:38 12,3 C 77 % 1011,0 hPa 0,0 l/m 11,5 km/h (2 Bft) W 277 0 min 0,000 mm 0,0 UV-I 0 W/m 8,4 C 9,4 C 14,5 km/h (3 Bft) 100,00 %
06.04.2016 06:39 12,3 C 77 % 1010,9 hPa 0,0 l/m 11,5 km/h (2 Bft) SW 215 0 min 0,000 mm 0,0 UV-I 0 W/m 8,4 C 9,4 C 17,7 km/h (3 Bft) 100,00 %
06.04.2016 06:40 12,3 C 77 % 1011,0 hPa 0,0 l/m 9,7 km/h (2 Bft) W-SW 250 0 min 0,000 mm 0,0 UV-I 0 W/m 8,4 C 10,3 C 12,9 km/h (3 Bft) 100,00 %
06.04.2016 06:41 12,3 C 77 % 1011,0 hPa 0,0 l/m 10,2 km/h (2 Bft) W 279 0 min 0,000 mm 0,0 UV-I 0 W/m 8,4 C 10,0 C 16,1 km/h (3 Bft) 100,00 %
06.04.2016 06:42 12,3 C 77 % 1011,0 hPa 0,0 l/m 10,0 km/h (2 Bft) W-SW 256 0 min 0,000 mm 0,0 UV-I 0 W/m 8,4 C 10,1 C 14,5 km/h (3 Bft) 100,00 %
06.04.2016 06:43 12,3 C 77 % 1011,0 hPa 0,0 l/m 7,7 km/h (2 Bft) W-SW 257 0 min 0,000 mm 0,0 UV-I 0 W/m 8,4 C 11,5 C 11,3 km/h (2 Bft) 96,55 %
06.04.2016 06:44 12,3 C 77 % 1011,0 hPa 0,0 l/m 9,6 km/h (2 Bft) SW 225 0 min 0,000 mm 0,0 UV-I 0 W/m 8,4 C 10,3 C 12,9 km/h (3 Bft) 100,00 %
06.04.2016 06:45 12,3 C 77 % 1011,0 hPa 0,0 l/m 10,8 km/h (2 Bft) SW 228 0 min 0,000 mm 0,0 UV-I 0 W/m 8,4 C 9,7 C 16,1 km/h (3 Bft) 91,30 %
06.04.2016 06:46 12,3 C 77 % 1011,0 hPa 0,0 l/m 10,3 km/h (2 Bft) W-SW 249 0 min 0,000 mm 0,0 UV-I 0 W/m 8,4 C 10,0 C 14,5 km/h (3 Bft) 100,00 %
06.04.2016 06:47 12,3 C 77 % 1011,0 hPa 0,0 l/m 6,7 km/h (2 Bft) W-SW 246 0 min 0,000 mm 0,0 UV-I 0 W/m 8,4 C 12,1 C 11,3 km/h (2 Bft) 100,00 %
06.04.2016 06:48 12,3 C 78 % 1011,0 hPa 0,0 l/m 7,2 km/h (2 Bft) W-SW 240 0 min 0,000 mm 0,0 UV-I 0 W/m 8,6 C 11,8 C 11,3 km/h (2 Bft) 100,00 %
06.04.2016 06:49 12,3 C 78 % 1011,1 hPa 0,0 l/m 6,7 km/h (2 Bft) SW 229 0 min 0,000 mm 0,0 UV-I 0 W/m 8,6 C 12,1 C 9,7 km/h (2 Bft) 100,00 %
06.04.2016 06:50 12,3 C 78 % 1011,0 hPa 0,0 l/m 6,8 km/h (2 Bft) W-SW 238 0 min 0,000 mm 0,0 UV-I 0 W/m 8,6 C 12,0 C 12,9 km/h (3 Bft) 100,00 %
06.04.2016 06:51 12,2 C 78 % 1011,1 hPa 0,0 l/m 7,0 km/h (2 Bft) W-SW 250 0 min 0,000 mm 0,0 UV-I 2 W/m 8,5 C 11,8 C 9,7 km/h (2 Bft) 100,00 %
06.04.2016 06:52 12,2 C 78 % 1011,1 hPa 0,0 l/m 8,6 km/h (2 Bft) W 265 0 min 0,000 mm 0,0 UV-I 5 W/m 8,5 C 10,8 C 11,3 km/h (2 Bft) 100,00 %
06.04.2016 06:53 12,2 C 78 % 1011,1 hPa 0,0 l/m 11,5 km/h (2 Bft) W-SW 255 0 min 0,000 mm 0,0 UV-I 5 W/m 8,5 C 9,3 C 14,5 km/h (3 Bft) 100,00 %
06.04.2016 06:54 12,2 C 78 % 1011,1 hPa 0,0 l/m 8,0 km/h (2 Bft) W 260 0 min 0,000 mm 0,0 UV-I 5 W/m 8,5 C 11,2 C 11,3 km/h (2 Bft) 96,88 %
06.04.2016 06:55 12,2 C 78 % 1011,1 hPa 0,0 l/m 9,3 km/h (2 Bft) W-SW 245 0 min 0,000 mm 0,0 UV-I 5 W/m 8,5 C 10,4 C 14,5 km/h (3 Bft) 100,00 %
06.04.2016 06:56 12,2 C 78 % 1011,2 hPa 0,0 l/m 8,3 km/h (2 Bft) W 272 0 min 0,000 mm 0,0 UV-I 5 W/m 8,5 C 11,0 C 11,3 km/h (2 Bft) 100,00 %
06.04.2016 06:57 12,2 C 78 % 1011,2 hPa 0,0 l/m 9,0 km/h (2 Bft) W-SW 249 0 min 0,000 mm 0,0 UV-I 5 W/m 8,5 C 10,6 C 12,9 km/h (3 Bft) 93,33 %
06.04.2016 06:58 12,2 C 78 % 1011,1 hPa 0,0 l/m 7,2 km/h (2 Bft) W-SW 243 0 min 0,000 mm 0,0 UV-I 5 W/m 8,5 C 11,7 C 9,7 km/h (2 Bft) 100,00 %
06.04.2016 06:59 12,2 C 78 % 1011,2 hPa 0,0 l/m 7,2 km/h (2 Bft) W 272 0 min 0,000 mm 0,0 UV-I 5 W/m 8,5 C 11,7 C 11,3 km/h (2 Bft) 100,00 %
06.04.2016 07:00 12,2 C 78 % 1011,2 hPa 0,0 l/m 10,0 km/h (2 Bft) SW 227 0 min 0,025 mm 0,0 UV-I 7 W/m 8,5 C 10,0 C 14,5 km/h (3 Bft) 96,15 %
06.04.2016 07:01 12,2 C 78 % 1011,2 hPa 0,0 l/m 10,1 km/h (2 Bft) W-SW 238 0 min 0,000 mm 0,0 UV-I 7 W/m 8,5 C 10,0 C 12,9 km/h (3 Bft) 100,00 %
06.04.2016 07:02 12,2 C 78 % 1011,2 hPa 0,0 l/m 8,6 km/h (2 Bft) SW 229 0 min 0,000 mm 0,0 UV-I 8 W/m 8,5 C 10,8 C 11,3 km/h (2 Bft) 100,00 %
06.04.2016 07:03 12,2 C 78 % 1011,2 hPa 0,0 l/m 8,9 km/h (2 Bft) W-SW 243 0 min 0,000 mm 0,0 UV-I 9 W/m 8,5 C 10,6 C 12,9 km/h (3 Bft) 100,00 %
06.04.2016 07:04 12,2 C 78 % 1011,3 hPa 0,0 l/m 9,0 km/h (2 Bft) SW 221 0 min 0,000 mm 0,0 UV-I 10 W/m 8,5 C 10,6 C 14,5 km/h (3 Bft) 91,30 %
06.04.2016 07:05 12,2 C 78 % 1011,2 hPa 0,0 l/m 11,7 km/h (2 Bft) SW 222 0 min 0,000 mm 0,0 UV-I 11 W/m 8,5 C 9,2 C 17,7 km/h (3 Bft) 92,59 %
06.04.2016 07:06 12,1 C 78 % 1011,2 hPa 0,0 l/m 14,3 km/h (3 Bft) W 267 0 min 0,000 mm 0,0 UV-I 11 W/m 8,4 C 8,0 C 17,7 km/h (3 Bft) 96,55 %
06.04.2016 07:07 12,2 C 78 % 1011,3 hPa 0,0 l/m 10,9 km/h (2 Bft) SW 227 0 min 0,000 mm 0,0 UV-I 12 W/m 8,5 C 9,6 C 14,5 km/h (3 Bft) 95,83 %
06.04.2016 07:08 12,2 C 78 % 1011,3 hPa 0,0 l/m 10,3 km/h (2 Bft) W 263 0 min 0,000 mm 0,0 UV-I 12 W/m 8,5 C 9,9 C 14,5 km/h (3 Bft) 92,86 %
06.04.2016 07:09 12,2 C 78 % 1011,3 hPa 0,0 l/m 9,6 km/h (2 Bft) W 263 0 min 0,000 mm 0,0 UV-I 14 W/m 8,5 C 10,2 C 14,5 km/h (3 Bft) 96,30 %
06.04.2016 07:10 12,2 C 78 % 1011,3 hPa 0,0 l/m 6,3 km/h (2 Bft) W 271 0 min 0,000 mm 0,0 UV-I 15 W/m 8,5 C 12,2 C 9,7 km/h (2 Bft) 100,00 %
06.04.2016 07:11 12,2 C 79 % 1011,3 hPa 0,0 l/m 7,3 km/h (2 Bft) W-SW 251 0 min 0,000 mm 0,0 UV-I 17 W/m 8,7 C 11,6 C 12,9 km/h (3 Bft) 96,88 %
06.04.2016 07:12 12,1 C 78 % 1011,3 hPa 0,0 l/m 11,5 km/h (2 Bft) W 259 0 min 0,000 mm 0,0 UV-I 19 W/m 8,4 C 9,2 C 16,1 km/h (3 Bft) 100,00 %
06.04.2016 07:13 12,1 C 78 % 1011,3 hPa 0,0 l/m 11,9 km/h (2 Bft) W-SW 247 0 min 0,000 mm 0,0 UV-I 19 W/m 8,4 C 9,0 C 17,7 km/h (3 Bft) 95,83 %
06.04.2016 07:14 12,2 C 78 % 1011,3 hPa 0,0 l/m 11,3 km/h (2 Bft) W-SW 240 0 min 0,000 mm 0,0 UV-I 22 W/m 8,5 C 9,4 C 17,7 km/h (3 Bft) 86,96 %
06.04.2016 07:15 12,2 C 77 % 1011,3 hPa 0,0 l/m 12,7 km/h (3 Bft) W 263 0 min 0,000 mm 0,0 UV-I 24 W/m 8,3 C 8,7 C 19,3 km/h (3 Bft) 100,00 %
06.04.2016 07:16 12,2 C 78 % 1011,3 hPa 0,0 l/m 9,4 km/h (2 Bft) SW 231 0 min 0,000 mm 0,0 UV-I 25 W/m 8,5 C 10,3 C 16,1 km/h (3 Bft) 95,83 %
06.04.2016 07:17 12,2 C 78 % 1011,3 hPa 0,0 l/m 8,4 km/h (2 Bft) SW 235 0 min 0,000 mm 0,0 UV-I 25 W/m 8,5 C 10,9 C 11,3 km/h (2 Bft) 100,00 %
06.04.2016 07:18 12,2 C 77 % 1011,3 hPa 0,0 l/m 9,9 km/h (2 Bft) W 263 0 min 0,000 mm 0,0 UV-I 25 W/m 8,3 C 10,1 C 16,1 km/h (3 Bft) 96,67 %
06.04.2016 07:19 12,2 C 77 % 1011,2 hPa 0,0 l/m 9,9 km/h (2 Bft) W-SW 247 0 min 0,000 mm 0,0 UV-I 25 W/m 8,3 C 10,1 C 14,5 km/h (3 Bft) 100,00 %
06.04.2016 07:20 12,2 C 78 % 1011,2 hPa 0,0 l/m 9,2 km/h (2 Bft) W 264 0 min 0,000 mm 0,0 UV-I 26 W/m 8,5 C 10,5 C 14,5 km/h (3 Bft) 96,30 %
06.04.2016 07:21 12,2 C 77 % 1011,3 hPa 0,0 l/m 10,7 km/h (2 Bft) W-SW 237 0 min 0,000 mm 0,0 UV-I 26 W/m 8,3 C 9,7 C 14,5 km/h (3 Bft) 90,91 %
06.04.2016 07:22 12,2 C 77 % 1011,3 hPa 0,0 l/m 11,5 km/h (2 Bft) W 261 0 min 0,000 mm 0,0 UV-I 26 W/m 8,3 C 9,3 C 14,5 km/h (3 Bft) 96,67 %
06.04.2016 07:23 12,2 C 77 % 1011,3 hPa 0,0 l/m 13,9 km/h (3 Bft) W 263 0 min 0,000 mm 0,0 UV-I 27 W/m 8,3 C 8,2 C 17,7 km/h (3 Bft) 96,15 %
06.04.2016 07:24 12,2 C 77 % 1011,3 hPa 0,0 l/m 13,9 km/h (3 Bft) W 262 0 min 0,000 mm 0,0 UV-I 28 W/m 8,3 C 8,2 C 16,1 km/h (3 Bft) 96,30 %
06.04.2016 07:25 12,2 C 77 % 1011,4 hPa 0,0 l/m 13,1 km/h (3 Bft) W 262 0 min 0,000 mm 0,0 UV-I 30 W/m 8,3 C 8,6 C 17,7 km/h (3 Bft) 95,65 %
06.04.2016 07:26 12,2 C 77 % 1011,4 hPa 0,0 l/m 9,4 km/h (2 Bft) W-SW 250 0 min 0,000 mm 0,0 UV-I 31 W/m 8,3 C 10,3 C 12,9 km/h (3 Bft) 100,00 %
06.04.2016 07:27 12,2 C 77 % 1011,4 hPa 0,0 l/m 13,5 km/h (3 Bft) W 271 0 min 0,000 mm 0,0 UV-I 32 W/m 8,3 C 8,4 C 16,1 km/h (3 Bft) 93,10 %
06.04.2016 07:28 12,2 C 77 % 1011,4 hPa 0,0 l/m 7,1 km/h (2 Bft) W-SW 249 0 min 0,000 mm 0,0 UV-I 33 W/m 8,3 C 11,7 C 14,5 km/h (3 Bft) 100,00 %
06.04.2016 07:29 12,2 C 77 % 1011,4 hPa 0,0 l/m 5,1 km/h (1 Bft) W 262 0 min 0,000 mm 0,0 UV-I 33 W/m 8,3 C 12,2 C 9,7 km/h (2 Bft) 91,30 %
06.04.2016 07:30 12,2 C 77 % 1011,4 hPa 0,0 l/m 11,1 km/h (2 Bft) SW 227 0 min 0,000 mm 0,0 UV-I 35 W/m 8,3 C 9,5 C 16,1 km/h (3 Bft) 100,00 %
06.04.2016 07:31 12,2 C 77 % 1011,4 hPa 0,0 l/m 12,3 km/h (3 Bft) W-SW 254 0 min 0,000 mm 0,0 UV-I 35 W/m 8,3 C 8,9 C 16,1 km/h (3 Bft) 95,65 %
06.04.2016 07:32 12,2 C 77 % 1011,4 hPa 0,0 l/m 12,2 km/h (2 Bft) W 267 0 min 0,000 mm 0,0 UV-I 35 W/m 8,3 C 9,0 C 14,5 km/h (3 Bft) 100,00 %
06.04.2016 07:33 12,2 C 77 % 1011,4 hPa 0,0 l/m 9,8 km/h (2 Bft) SW 235 0 min 0,000 mm 0,0 UV-I 35 W/m 8,3 C 10,1 C 12,9 km/h (3 Bft) 96,30 %
06.04.2016 07:34 12,2 C 77 % 1011,5 hPa 0,0 l/m 9,5 km/h (2 Bft) W-NW 292 0 min 0,000 mm 0,0 UV-I 37 W/m 8,3 C 10,3 C 14,5 km/h (3 Bft) 92,31 %
06.04.2016 07:35 12,2 C 77 % 1011,5 hPa 0,0 l/m 10,2 km/h (2 Bft) W 267 0 min 0,000 mm 0,0 UV-I 39 W/m 8,3 C 9,9 C 12,9 km/h (3 Bft) 96,15 %
06.04.2016 07:36 12,2 C 77 % 1011,5 hPa 0,0 l/m 6,7 km/h (2 Bft) W-SW 249 0 min 0,000 mm 0,0 UV-I 42 W/m 8,3 C 12,0 C 11,3 km/h (2 Bft) 93,33 %
06.04.2016 07:37 12,2 C 77 % 1011,5 hPa 0,0 l/m 5,3 km/h (1 Bft) W-SW 249 0 min 0,000 mm 0,0 UV-I 43 W/m 8,3 C 12,2 C 6,4 km/h (2 Bft) 100,00 %
06.04.2016 07:38 12,2 C 77 % 1011,5 hPa 0,0 l/m 5,9 km/h (2 Bft) W-SW 251 0 min 0,000 mm 0,0 UV-I 43 W/m 8,3 C 12,2 C 8,0 km/h (2 Bft) 100,00 %
06.04.2016 07:39 12,2 C 77 % 1011,5 hPa 0,0 l/m 6,4 km/h (2 Bft) W-SW 257 0 min 0,000 mm 0,0 UV-I 44 W/m 8,3 C 12,2 C 8,0 km/h (2 Bft) 100,00 %
06.04.2016 07:40 12,2 C 77 % 1011,5 hPa 0,0 l/m 12,9 km/h (3 Bft) W-SW 246 0 min 0,000 mm 0,0 UV-I 44 W/m 8,3 C 8,6 C 19,3 km/h (3 Bft) 96,15 %
06.04.2016 07:41 12,2 C 77 % 1011,6 hPa 0,0 l/m 13,5 km/h (3 Bft) W-SW 258 0 min 0,000 mm 0,0 UV-I 46 W/m 8,3 C 8,4 C 17,7 km/h (3 Bft) 96,30 %
06.04.2016 07:42 12,2 C 77 % 1011,5 hPa 0,0 l/m 8,2 km/h (2 Bft) W-SW 253 0 min 0,000 mm 0,0 UV-I 46 W/m 8,3 C 11,0 C 12,9 km/h (3 Bft) 100,00 %
06.04.2016 07:43 12,2 C 77 % 1011,6 hPa 0,0 l/m 12,1 km/h (2 Bft) W-SW 248 0 min 0,000 mm 0,0 UV-I 47 W/m 8,3 C 9,0 C 19,3 km/h (3 Bft) 100,00 %
06.04.2016 07:44 12,2 C 77 % 1011,6 hPa 0,0 l/m 5,8 km/h (2 Bft) W 261 0 min 0,000 mm 0,0 UV-I 51 W/m 8,3 C 12,2 C 9,7 km/h (2 Bft) 96,15 %
06.04.2016 07:45 12,2 C 77 % 1011,6 hPa 0,0 l/m 8,7 km/h (2 Bft) W 264 0 min 0,000 mm 0,0 UV-I 53 W/m 8,3 C 10,7 C 12,9 km/h (3 Bft) 100,00 %
06.04.2016 07:46 12,2 C 77 % 1011,6 hPa 0,0 l/m 7,1 km/h (2 Bft) W-SW 254 0 min 0,000 mm 0,0 UV-I 55 W/m 8,3 C 11,7 C 9,7 km/h (2 Bft) 96,88 %
06.04.2016 07:47 12,2 C 77 % 1011,6 hPa 0,0 l/m 10,2 km/h (2 Bft) W 276 0 min 0,000 mm 0,0 UV-I 58 W/m 8,3 C 9,9 C 14,5 km/h (3 Bft) 100,00 %
06.04.2016 07:48 12,2 C 77 % 1011,6 hPa 0,0 l/m 12,7 km/h (3 Bft) W 262 0 min 0,000 mm 0,0 UV-I 58 W/m 8,3 C 8,7 C 16,1 km/h (3 Bft) 100,00 %
06.04.2016 07:49 12,2 C 77 % 1011,6 hPa 0,0 l/m 13,8 km/h (3 Bft) W 281 0 min 0,000 mm 0,0 UV-I 60 W/m 8,3 C 8,3 C 19,3 km/h (3 Bft) 96,97 %
06.04.2016 07:50 12,2 C 76 % 1011,6 hPa 0,0 l/m 8,6 km/h (2 Bft) W 269 0 min 0,000 mm 0,0 UV-I 64 W/m 8,1 C 10,8 C 11,3 km/h (2 Bft) 100,00 %
06.04.2016 07:51 12,3 C 76 % 1011,6 hPa 0,0 l/m 11,0 km/h (2 Bft) W-SW 248 0 min 0,000 mm 0,0 UV-I 66 W/m 8,2 C 9,6 C 14,5 km/h (3 Bft) 100,00 %
06.04.2016 07:52 12,3 C 76 % 1011,6 hPa 0,0 l/m 9,8 km/h (2 Bft) W-SW 252 0 min 0,000 mm 0,0 UV-I 67 W/m 8,2 C 10,2 C 14,5 km/h (3 Bft) 100,00 %
06.04.2016 07:53 12,3 C 76 % 1011,6 hPa 0,0 l/m 9,3 km/h (2 Bft) W 280 0 min 0,000 mm 0,0 UV-I 67 W/m 8,2 C 10,5 C 12,9 km/h (3 Bft) 100,00 %
06.04.2016 07:54 12,3 C 75 % 1011,6 hPa 0,0 l/m 10,8 km/h (2 Bft) W-SW 256 0 min 0,000 mm 0,0 UV-I 65 W/m 8,0 C 9,7 C 14,5 km/h (3 Bft) 96,15 %
06.04.2016 07:55 12,3 C 75 % 1011,6 hPa 0,0 l/m 9,4 km/h (2 Bft) W-SW 238 0 min 0,000 mm 0,0 UV-I 65 W/m 8,0 C 10,5 C 12,9 km/h (3 Bft) 100,00 %
06.04.2016 07:56 12,3 C 76 % 1011,7 hPa 0,0 l/m 8,6 km/h (2 Bft) W-SW 242 0 min 0,000 mm 0,0 UV-I 66 W/m 8,2 C 10,9 C 12,9 km/h (3 Bft) 100,00 %
06.04.2016 07:57 12,3 C 76 % 1011,7 hPa 0,0 l/m 10,9 km/h (2 Bft) W-SW 254 0 min 0,000 mm 0,0 UV-I 68 W/m 8,2 C 9,7 C 17,7 km/h (3 Bft) 100,00 %
06.04.2016 07:58 12,3 C 76 % 1011,7 hPa 0,0 l/m 10,1 km/h (2 Bft) W 279 0 min 0,000 mm 0,0 UV-I 70 W/m 8,2 C 10,1 C 16,1 km/h (3 Bft) 100,00 %
06.04.2016 07:59 12,3 C 75 % 1011,7 hPa 0,0 l/m 11,5 km/h (2 Bft) W-SW 243 0 min 0,000 mm 0,0 UV-I 74 W/m 8,0 C 9,4 C 14,5 km/h (3 Bft) 96,55 %
06.04.2016 08:00 12,3 C 75 % 1011,8 hPa 0,0 l/m 8,5 km/h (2 Bft) W-SW 253 0 min 0,051 mm 0,0 UV-I 76 W/m 8,0 C 11,0 C 11,3 km/h (2 Bft) 100,00 %
06.04.2016 08:01 12,3 C 75 % 1011,8 hPa 0,0 l/m 7,8 km/h (2 Bft) W-SW 244 0 min 0,000 mm 0,0 UV-I 78 W/m 8,0 C 11,4 C 12,9 km/h (3 Bft) 100,00 %
06.04.2016 08:02 12,3 C 76 % 1011,8 hPa 0,0 l/m 14,0 km/h (3 Bft) SW 227 0 min 0,000 mm 0,0 UV-I 81 W/m 8,2 C 8,3 C 20,9 km/h (4 Bft) 100,00 %
06.04.2016 08:03 12,3 C 75 % 1011,8 hPa 0,0 l/m 15,6 km/h (3 Bft) W 260 0 min 0,000 mm 0,0 UV-I 86 W/m 8,0 C 7,7 C 20,9 km/h (4 Bft) 100,00 %
06.04.2016 08:04 12,3 C 75 % 1011,8 hPa 0,0 l/m 12,9 km/h (3 Bft) W 265 0 min 0,000 mm 0,0 UV-I 90 W/m 8,0 C 8,8 C 17,7 km/h (3 Bft) 95,83 %
06.04.2016 08:05 12,3 C 75 % 1011,8 hPa 0,0 l/m 12,4 km/h (3 Bft) W-SW 257 0 min 0,000 mm 0,0 UV-I 95 W/m 8,0 C 9,0 C 16,1 km/h (3 Bft) 100,00 %
06.04.2016 08:06 12,3 C 75 % 1011,8 hPa 0,0 l/m 12,3 km/h (3 Bft) W 268 0 min 0,000 mm 0,0 UV-I 98 W/m 8,0 C 9,0 C 16,1 km/h (3 Bft) 100,00 %
06.04.2016 08:07 12,4 C 76 % 1011,8 hPa 0,0 l/m 8,5 km/h (2 Bft) W-SW 249 0 min 0,000 mm 0,0 UV-I 102 W/m 8,3 C 11,1 C 12,9 km/h (3 Bft) 100,00 %
06.04.2016 08:08 12,4 C 76 % 1011,8 hPa 0,0 l/m 6,7 km/h (2 Bft) W-NW 290 0 min 0,000 mm 0,0 UV-I 106 W/m 8,3 C 12,2 C 9,7 km/h (2 Bft) 100,00 %
06.04.2016 08:09 12,4 C 76 % 1011,8 hPa 0,0 l/m 8,1 km/h (2 Bft) W-SW 254 0 min 0,000 mm 0,0 UV-I 110 W/m 8,3 C 11,3 C 11,3 km/h (2 Bft) 100,00 %
06.04.2016 08:10 12,4 C 76 % 1011,9 hPa 0,0 l/m 10,8 km/h (2 Bft) W-SW 257 0 min 0,000 mm 0,0 UV-I 113 W/m 8,3 C 9,8 C 17,7 km/h (3 Bft) 100,00 %
06.04.2016 08:11 12,4 C 76 % 1011,8 hPa 0,0 l/m 9,3 km/h (2 Bft) W-SW 250 0 min 0,000 mm 0,0 UV-I 114 W/m 8,3 C 10,6 C 16,1 km/h (3 Bft) 100,00 %
06.04.2016 08:12 12,4 C 76 % 1011,8 hPa 0,0 l/m 12,0 km/h (2 Bft) W-SW 250 0 min 0,000 mm 0,0 UV-I 114 W/m 8,3 C 9,3 C 17,7 km/h (3 Bft) 100,00 %
06.04.2016 08:13 12,4 C 76 % 1011,8 hPa 0,0 l/m 13,4 km/h (3 Bft) W-SW 256 0 min 0,000 mm 0,0 UV-I 114 W/m 8,3 C 8,7 C 17,7 km/h (3 Bft) 100,00 %
06.04.2016 08:14 12,5 C 75 % 1011,9 hPa 0,0 l/m 14,7 km/h (3 Bft) W 259 0 min 0,000 mm 0,0 UV-I 114 W/m 8,2 C 8,3 C 20,9 km/h (4 Bft) 100,00 %
06.04.2016 08:15 12,5 C 75 % 1011,8 hPa 0,0 l/m 14,2 km/h (3 Bft) W-SW 255 0 min 0,000 mm 0,0 UV-I 115 W/m 8,2 C 8,5 C 19,3 km/h (3 Bft) 92,31 %
06.04.2016 08:16 12,5 C 75 % 1011,9 hPa 0,0 l/m 10,9 km/h (2 Bft) W 261 0 min 0,000 mm 0,0 UV-I 118 W/m 8,2 C 9,9 C 16,1 km/h (3 Bft) 95,83 %
06.04.2016 08:17 12,5 C 75 % 1011,9 hPa 0,0 l/m 10,2 km/h (2 Bft) W-NW 293 0 min 0,000 mm 0,0 UV-I 118 W/m 8,2 C 10,3 C 12,9 km/h (3 Bft) 100,00 %
06.04.2016 08:18 12,6 C 75 % 1011,9 hPa 0,0 l/m 9,8 km/h (2 Bft) W-SW 251 0 min 0,000 mm 0,0 UV-I 118 W/m 8,3 C 10,6 C 14,5 km/h (3 Bft) 100,00 %
06.04.2016 08:19 12,6 C 75 % 1011,9 hPa 0,0 l/m 14,9 km/h (3 Bft) W 265 0 min 0,000 mm 0,0 UV-I 116 W/m 8,3 C 8,3 C 19,3 km/h (3 Bft) 100,00 %
06.04.2016 08:20 12,6 C 75 % 1011,9 hPa 0,0 l/m 10,8 km/h (2 Bft) W-SW 237 0 min 0,000 mm 0,0 UV-I 117 W/m 8,3 C 10,1 C 14,5 km/h (3 Bft) 97,56 %
06.04.2016 08:21 12,6 C 75 % 1011,9 hPa 0,0 l/m 13,8 km/h (3 Bft) W 268 0 min 0,000 mm 0,0 UV-I 119 W/m 8,3 C 8,7 C 19,3 km/h (3 Bft) 100,00 %
06.04.2016 08:22 12,6 C 75 % 1011,9 hPa 0,0 l/m 15,7 km/h (3 Bft) W-SW 253 0 min 0,000 mm 0,0 UV-I 120 W/m 8,3 C 8,0 C 20,9 km/h (4 Bft) 100,00 %
06.04.2016 08:23 12,6 C 75 % 1011,9 hPa 0,0 l/m 15,7 km/h (3 Bft) W-SW 247 0 min 0,000 mm 0,0 UV-I 121 W/m 8,3 C 8,0 C 20,9 km/h (4 Bft) 97,56 %
06.04.2016 08:24 12,6 C 75 % 1011,9 hPa 0,0 l/m 10,6 km/h (2 Bft) W 272 0 min 0,000 mm 0,0 UV-I 124 W/m 8,3 C 10,2 C 17,7 km/h (3 Bft) 100,00 %
06.04.2016 08:25 12,6 C 75 % 1011,9 hPa 0,0 l/m 15,6 km/h (3 Bft) W-NW 292 0 min 0,000 mm 0,0 UV-I 126 W/m 8,3 C 8,1 C 22,5 km/h (4 Bft) 100,00 %
06.04.2016 08:26 12,6 C 75 % 1011,9 hPa 0,0 l/m 16,7 km/h (3 Bft) W 265 0 min 0,000 mm 0,0 UV-I 127 W/m 8,3 C 7,7 C 22,5 km/h (4 Bft) 100,00 %
06.04.2016 08:27 12,6 C 75 % 1011,9 hPa 0,0 l/m 13,1 km/h (3 Bft) W 270 0 min 0,000 mm 0,0 UV-I 127 W/m 8,3 C 9,0 C 20,9 km/h (4 Bft) 100,00 %
06.04.2016 08:28 12,6 C 75 % 1011,9 hPa 0,0 l/m 13,9 km/h (3 Bft) W 259 0 min 0,000 mm 0,0 UV-I 127 W/m 8,3 C 8,7 C 17,7 km/h (3 Bft) 95,65 %
06.04.2016 08:29 12,6 C 75 % 1012,0 hPa 0,0 l/m 12,5 km/h (3 Bft) SW 236 0 min 0,000 mm 0,0 UV-I 124 W/m 8,3 C 9,3 C 19,3 km/h (3 Bft) 100,00 %
06.04.2016 08:30 12,6 C 75 % 1011,9 hPa 0,0 l/m 18,8 km/h (3 Bft) W-SW 241 0 min 0,000 mm 0,0 UV-I 121 W/m 8,3 C 7,0 C 24,1 km/h (4 Bft) 100,00 %
06.04.2016 08:31 12,6 C 75 % 1011,9 hPa 0,0 l/m 14,1 km/h (3 Bft) W-SW 247 0 min 0,000 mm 0,0 UV-I 121 W/m 8,3 C 8,6 C 19,3 km/h (3 Bft) 100,00 %
06.04.2016 08:32 12,6 C 75 % 1011,9 hPa 0,0 l/m 14,3 km/h (3 Bft) W-NW 300 0 min 0,000 mm 0,0 UV-I 121 W/m 8,3 C 8,6 C 19,3 km/h (3 Bft) 100,00 %
06.04.2016 08:33 12,5 C 75 % 1011,9 hPa 0,0 l/m 9,5 km/h (2 Bft) W-SW 250 0 min 0,000 mm 0,0 UV-I 123 W/m 8,2 C 10,6 C 16,1 km/h (3 Bft) 100,00 %
06.04.2016 08:34 12,6 C 75 % 1012,0 hPa 0,0 l/m 7,8 km/h (2 Bft) W 274 0 min 0,000 mm 0,0 UV-I 120 W/m 8,3 C 11,7 C 11,3 km/h (2 Bft) 100,00 %
06.04.2016 08:35 12,6 C 75 % 1011,9 hPa 0,0 l/m 11,1 km/h (2 Bft) W 278 0 min 0,000 mm 0,0 UV-I 116 W/m 8,3 C 9,9 C 16,1 km/h (3 Bft) 100,00 %
06.04.2016 08:36 12,6 C 75 % 1011,9 hPa 0,0 l/m 10,1 km/h (2 Bft) W-SW 250 0 min 0,000 mm 0,0 UV-I 114 W/m 8,3 C 10,4 C 14,5 km/h (3 Bft) 100,00 %
06.04.2016 08:37 12,6 C 75 % 1012,0 hPa 0,0 l/m 12,5 km/h (3 Bft) W-SW 239 0 min 0,000 mm 0,0 UV-I 116 W/m 8,3 C 9,3 C 17,7 km/h (3 Bft) 100,00 %
06.04.2016 08:38 12,6 C 75 % 1011,9 hPa 0,0 l/m 11,6 km/h (2 Bft) W-SW 243 0 min 0,000 mm 0,0 UV-I 114 W/m 8,3 C 9,7 C 17,7 km/h (3 Bft) 100,00 %
06.04.2016 08:39 12,6 C 75 % 1012,0 hPa 0,0 l/m 7,0 km/h (2 Bft) SW 229 0 min 0,000 mm 0,0 UV-I 115 W/m 8,3 C 12,2 C 11,3 km/h (2 Bft) 100,00 %
06.04.2016 08:40 12,6 C 75 % 1012,0 hPa 0,0 l/m 14,0 km/h (3 Bft) SW 232 0 min 0,000 mm 0,0 UV-I 114 W/m 8,3 C 8,7 C 20,9 km/h (4 Bft) 100,00 %
06.04.2016 08:41 12,6 C 75 % 1012,0 hPa 0,0 l/m 12,8 km/h (3 Bft) SW 229 0 min 0,000 mm 0,0 UV-I 106 W/m 8,3 C 9,2 C 20,9 km/h (4 Bft) 100,00 %
06.04.2016 08:42 12,6 C 75 % 1012,0 hPa 0,0 l/m 18,0 km/h (3 Bft) W-SW 240 0 min 0,000 mm 0,0 UV-I 100 W/m 8,3 C 7,3 C 22,5 km/h (4 Bft) 100,00 %
06.04.2016 08:43 12,6 C 75 % 1012,0 hPa 0,0 l/m 13,7 km/h (3 Bft) W-SW 248 0 min 0,000 mm 0,0 UV-I 103 W/m 8,3 C 8,8 C 22,5 km/h (4 Bft) 100,00 %
06.04.2016 08:44 12,6 C 75 % 1012,0 hPa 0,0 l/m 10,2 km/h (2 Bft) W-SW 248 0 min 0,000 mm 0,0 UV-I 111 W/m 8,3 C 10,4 C 17,7 km/h (3 Bft) 100,00 %
06.04.2016 08:45 12,6 C 75 % 1012,0 hPa 0,0 l/m 15,0 km/h (3 Bft) W 279 0 min 0,000 mm 0,0 UV-I 113 W/m 8,3 C 8,3 C 19,3 km/h (3 Bft) 96,15 %
06.04.2016 08:46 12,5 C 75 % 1012,1 hPa 0,0 l/m 16,0 km/h (3 Bft) W 262 0 min 0,000 mm 0,0 UV-I 111 W/m 8,2 C 7,8 C 20,9 km/h (4 Bft) 88,89 %
06.04.2016 08:47 12,5 C 75 % 1012,1 hPa 0,0 l/m 14,5 km/h (3 Bft) W-SW 248 0 min 0,000 mm 0,0 UV-I 106 W/m 8,2 C 8,4 C 19,3 km/h (3 Bft) 100,00 %
06.04.2016 08:48 12,5 C 75 % 1012,1 hPa 0,0 l/m 15,7 km/h (3 Bft) W-SW 250 0 min 0,000 mm 0,0 UV-I 96 W/m 8,2 C 7,9 C 19,3 km/h (3 Bft) 100,00 %
06.04.2016 08:49 12,5 C 75 % 1012,1 hPa 0,0 l/m 16,4 km/h (3 Bft) W-SW 251 0 min 0,000 mm 0,0 UV-I 89 W/m 8,2 C 7,7 C 20,9 km/h (4 Bft) 100,00 %
06.04.2016 08:50 12,5 C 76 % 1012,1 hPa 0,0 l/m 9,7 km/h (2 Bft) W-SW 244 0 min 0,000 mm 0,0 UV-I 86 W/m 8,4 C 10,5 C 16,1 km/h (3 Bft) 100,00 %
06.04.2016 08:51 12,4 C 76 % 1012,1 hPa 0,0 l/m 13,6 km/h (3 Bft) W-SW 248 0 min 0,000 mm 0,0 UV-I 89 W/m 8,3 C 8,6 C 19,3 km/h (3 Bft) 100,00 %
06.04.2016 08:52 12,4 C 75 % 1012,1 hPa 0,0 l/m 18,2 km/h (3 Bft) W-SW 242 0 min 0,000 mm 0,0 UV-I 90 W/m 8,1 C 6,9 C 22,5 km/h (4 Bft) 100,00 %
06.04.2016 08:53 12,4 C 75 % 1012,1 hPa 0,0 l/m 16,4 km/h (3 Bft) W-SW 249 0 min 0,000 mm 0,0 UV-I 92 W/m 8,1 C 7,5 C 22,5 km/h (4 Bft) 100,00 %
06.04.2016 08:54 12,4 C 75 % 1012,1 hPa 0,0 l/m 13,6 km/h (3 Bft) W-SW 254 0 min 0,000 mm 0,0 UV-I 94 W/m 8,1 C 8,6 C 20,9 km/h (4 Bft) 100,00 %
06.04.2016 08:55 12,4 C 75 % 1012,2 hPa 0,0 l/m 14,5 km/h (3 Bft) W-SW 257 0 min 0,000 mm 0,0 UV-I 94 W/m 8,1 C 8,2 C 19,3 km/h (3 Bft) 100,00 %
06.04.2016 08:56 12,4 C 75 % 1012,2 hPa 0,0 l/m 14,0 km/h (3 Bft) W 266 0 min 0,000 mm 0,0 UV-I 94 W/m 8,1 C 8,4 C 17,7 km/h (3 Bft) 100,00 %
06.04.2016 08:57 12,4 C 75 % 1012,2 hPa 0,0 l/m 13,7 km/h (3 Bft) W-NW 293 0 min 0,000 mm 0,0 UV-I 99 W/m 8,1 C 8,6 C 20,9 km/h (4 Bft) 100,00 %
06.04.2016 08:58 12,4 C 76 % 1012,2 hPa 0,0 l/m 14,1 km/h (3 Bft) W-SW 254 0 min 0,000 mm 0,0 UV-I 108 W/m 8,3 C 8,4 C 17,7 km/h (3 Bft) 100,00 %
06.04.2016 08:59 12,4 C 75 % 1012,2 hPa 0,0 l/m 14,0 km/h (3 Bft) W 272 0 min 0,000 mm 0,0 UV-I 114 W/m 8,1 C 8,4 C 17,7 km/h (3 Bft) 96,30 %
06.04.2016 09:00 12,4 C 76 % 1012,2 hPa 0,0 l/m 10,9 km/h (2 Bft) W 280 0 min 0,000 mm 0,0 UV-I 116 W/m 8,3 C 9,8 C 14,5 km/h (3 Bft) 100,00 %
06.04.2016 09:01 12,4 C 76 % 1012,2 hPa 0,0 l/m 9,2 km/h (2 Bft) W-SW 250 0 min 0,102 mm 0,0 UV-I 115 W/m 8,3 C 10,7 C 17,7 km/h (3 Bft) 100,00 %
06.04.2016 09:02 12,4 C 76 % 1012,2 hPa 0,0 l/m 13,1 km/h (3 Bft) W 271 0 min 0,000 mm 0,0 UV-I 113 W/m 8,3 C 8,8 C 19,3 km/h (3 Bft) 100,00 %
06.04.2016 09:03 12,4 C 75 % 1012,2 hPa 0,0 l/m 15,0 km/h (3 Bft) W-NW 288 0 min 0,000 mm 0,0 UV-I 110 W/m 8,1 C 8,0 C 20,9 km/h (4 Bft) 100,00 %
06.04.2016 09:04 12,4 C 75 % 1012,2 hPa 0,0 l/m 9,5 km/h (2 Bft) W-SW 244 0 min 0,000 mm 0,0 UV-I 107 W/m 8,1 C 10,5 C 14,5 km/h (3 Bft) 96,15 %
06.04.2016 09:05 12,4 C 75 % 1012,2 hPa 0,0 l/m 12,9 km/h (3 Bft) W 277 0 min 0,000 mm 0,0 UV-I 109 W/m 8,1 C 8,9 C 20,9 km/h (4 Bft) 100,00 %
06.04.2016 09:06 12,4 C 76 % 1012,2 hPa 0,0 l/m 15,8 km/h (3 Bft) SW 217 0 min 0,000 mm 0,0 UV-I 115 W/m 8,3 C 7,7 C 22,5 km/h (4 Bft) 85,71 %
06.04.2016 09:07 12,4 C 75 % 1012,3 hPa 0,0 l/m 17,8 km/h (3 Bft) W-SW 242 0 min 0,000 mm 0,0 UV-I 120 W/m 8,1 C 7,1 C 24,1 km/h (4 Bft) 100,00 %
06.04.2016 09:08 12,4 C 75 % 1012,2 hPa 0,0 l/m 15,9 km/h (3 Bft) W-SW 257 0 min 0,000 mm 0,0 UV-I 123 W/m 8,1 C 7,7 C 20,9 km/h (4 Bft) 93,10 %
06.04.2016 09:09 12,4 C 75 % 1012,2 hPa 0,0 l/m 13,4 km/h (3 Bft) W-NW 303 0 min 0,000 mm 0,0 UV-I 125 W/m 8,1 C 8,7 C 20,9 km/h (4 Bft) 100,00 %
06.04.2016 09:10 12,4 C 76 % 1012,2 hPa 0,0 l/m 14,8 km/h (3 Bft) W-SW 255 0 min 0,000 mm 0,0 UV-I 129 W/m 8,3 C 8,1 C 20,9 km/h (4 Bft) 93,75 %
06.04.2016 09:11 12,4 C 75 % 1012,3 hPa 0,0 l/m 13,6 km/h (3 Bft) SW 227 0 min 0,000 mm 0,0 UV-I 133 W/m 8,1 C 8,6 C 19,3 km/h (3 Bft) 95,83 %
06.04.2016 09:12 12,4 C 76 % 1012,3 hPa 0,0 l/m 11,5 km/h (2 Bft) W 259 0 min 0,000 mm 0,0 UV-I 134 W/m 8,3 C 9,5 C 17,7 km/h (3 Bft) 100,00 %
06.04.2016 09:13 12,4 C 76 % 1012,3 hPa 0,0 l/m 14,2 km/h (3 Bft) W-NW 282 0 min 0,000 mm 0,0 UV-I 134 W/m 8,3 C 8,4 C 17,7 km/h (3 Bft) 96,55 %
06.04.2016 09:14 12,4 C 75 % 1012,3 hPa 0,0 l/m 17,2 km/h (3 Bft) W-SW 242 0 min 0,000 mm 0,0 UV-I 131 W/m 8,1 C 7,3 C 22,5 km/h (4 Bft) 100,00 %
06.04.2016 09:15 12,4 C 75 % 1012,3 hPa 0,0 l/m 19,3 km/h (3 Bft) W 273 0 min 0,000 mm 0,0 UV-I 128 W/m 8,1 C 6,6 C 25,7 km/h (4 Bft) 96,15 %
06.04.2016 09:16 12,4 C 76 % 1012,3 hPa 0,0 l/m 16,4 km/h (3 Bft) W-SW 250 0 min 0,000 mm 0,0 UV-I 127 W/m 8,3 C 7,5 C 20,9 km/h (4 Bft) 100,00 %
06.04.2016 09:17 12,4 C 75 % 1012,3 hPa 0,0 l/m 13,1 km/h (3 Bft) W-SW 248 0 min 0,000 mm 0,0 UV-I 129 W/m 8,1 C 8,8 C 16,1 km/h (3 Bft) 96,15 %
06.04.2016 09:18 12,4 C 75 % 1012,3 hPa 0,0 l/m 15,9 km/h (3 Bft) W-SW 251 0 min 0,000 mm 0,0 UV-I 133 W/m 8,1 C 7,7 C 20,9 km/h (4 Bft) 96,30 %
06.04.2016 09:19 12,4 C 75 % 1012,4 hPa 0,0 l/m 16,0 km/h (3 Bft) W-SW 258 0 min 0,000 mm 0,0 UV-I 135 W/m 8,1 C 7,7 C 20,9 km/h (4 Bft) 100,00 %
06.04.2016 09:20 12,4 C 75 % 1012,3 hPa 0,0 l/m 15,9 km/h (3 Bft) W-SW 247 0 min 0,000 mm 0,0 UV-I 136 W/m 8,1 C 7,7 C 22,5 km/h (4 Bft) 96,30 %
06.04.2016 09:21 12,4 C 75 % 1012,4 hPa 0,0 l/m 16,1 km/h (3 Bft) W-SW 250 0 min 0,000 mm 0,0 UV-I 139 W/m 8,1 C 7,6 C 20,9 km/h (4 Bft) 100,00 %
06.04.2016 09:22 12,4 C 75 % 1012,4 hPa 0,0 l/m 10,6 km/h (2 Bft) W 276 0 min 0,000 mm 0,0 UV-I 141 W/m 8,1 C 9,9 C 14,5 km/h (3 Bft) 96,30 %
06.04.2016 09:23 12,4 C 75 % 1012,4 hPa 0,0 l/m 11,4 km/h (2 Bft) SW 236 0 min 0,000 mm 0,0 UV-I 141 W/m 8,1 C 9,6 C 20,9 km/h (4 Bft) 100,00 %
06.04.2016 09:24 12,4 C 75 % 1012,4 hPa 0,0 l/m 14,9 km/h (3 Bft) W-SW 251 0 min 0,000 mm 0,0 UV-I 141 W/m 8,1 C 8,1 C 19,3 km/h (3 Bft) 96,67 %
06.04.2016 09:25 12,4 C 75 % 1012,4 hPa 0,0 l/m 9,7 km/h (2 Bft) W-SW 252 0 min 0,000 mm 0,0 UV-I 141 W/m 8,1 C 10,4 C 16,1 km/h (3 Bft) 96,15 %
06.04.2016 09:26 12,4 C 75 % 1012,4 hPa 0,0 l/m 10,7 km/h (2 Bft) W 263 0 min 0,000 mm 0,0 UV-I 139 W/m 8,1 C 9,9 C 14,5 km/h (3 Bft) 100,00 %
06.04.2016 09:27 12,4 C 75 % 1012,4 hPa 0,0 l/m 13,8 km/h (3 Bft) W 265 0 min 0,000 mm 0,0 UV-I 139 W/m 8,1 C 8,5 C 20,9 km/h (4 Bft) 91,30 %
06.04.2016 09:28 12,4 C 75 % 1012,4 hPa 0,0 l/m 13,5 km/h (3 Bft) W-SW 253 0 min 0,000 mm 0,0 UV-I 139 W/m 8,1 C 8,6 C 19,3 km/h (3 Bft) 100,00 %
06.04.2016 09:29 12,4 C 75 % 1012,5 hPa 0,0 l/m 7,1 km/h (2 Bft) W-SW 257 0 min 0,000 mm 0,0 UV-I 138 W/m 8,1 C 11,9 C 12,9 km/h (3 Bft) 95,65 %
06.04.2016 09:30 12,4 C 75 % 1012,5 hPa 0,0 l/m 8,9 km/h (2 Bft) W 269 0 min 0,000 mm 0,0 UV-I 137 W/m 8,1 C 10,8 C 11,3 km/h (2 Bft) 100,00 %
06.04.2016 09:31 12,5 C 75 % 1012,5 hPa 0,0 l/m 6,8 km/h (2 Bft) W 262 0 min 0,000 mm 0,0 UV-I 138 W/m 8,2 C 12,2 C 12,9 km/h (3 Bft) 96,15 %
06.04.2016 09:32 12,5 C 75 % 1012,5 hPa 0,0 l/m 14,0 km/h (3 Bft) W-NW 293 0 min 0,000 mm 0,0 UV-I 137 W/m 8,2 C 8,5 C 19,3 km/h (3 Bft) 95,83 %
06.04.2016 09:33 12,5 C 75 % 1012,5 hPa 0,0 l/m 12,6 km/h (3 Bft) W 261 0 min 0,000 mm 0,0 UV-I 135 W/m 8,2 C 9,1 C 17,7 km/h (3 Bft) 100,00 %
06.04.2016 09:34 12,5 C 75 % 1012,6 hPa 0,0 l/m 10,5 km/h (2 Bft) W-NW 292 0 min 0,000 mm 0,0 UV-I 135 W/m 8,2 C 10,1 C 20,9 km/h (4 Bft) 96,15 %
06.04.2016 09:35 12,4 C 74 % 1012,6 hPa 0,0 l/m 12,5 km/h (3 Bft) W 265 0 min 0,000 mm 0,0 UV-I 132 W/m 7,9 C 9,1 C 17,7 km/h (3 Bft) 100,00 %
06.04.2016 09:36 12,4 C 74 % 1012,6 hPa 0,0 l/m 18,7 km/h (3 Bft) W-SW 255 0 min 0,000 mm 0,0 UV-I 130 W/m 7,9 C 6,8 C 27,4 km/h (4 Bft) 92,86 %
06.04.2016 09:37 12,4 C 74 % 1012,6 hPa 0,0 l/m 17,8 km/h (3 Bft) W 263 0 min 0,000 mm 0,0 UV-I 130 W/m 7,9 C 7,1 C 22,5 km/h (4 Bft) 100,00 %
06.04.2016 09:38 12,4 C 74 % 1012,6 hPa 0,0 l/m 13,4 km/h (3 Bft) SW 217 0 min 0,000 mm 0,0 UV-I 134 W/m 7,9 C 8,7 C 19,3 km/h (3 Bft) 100,00 %
06.04.2016 09:39 12,4 C 74 % 1012,6 hPa 0,0 l/m 14,2 km/h (3 Bft) W 275 0 min 0,000 mm 0,0 UV-I 135 W/m 7,9 C 8,4 C 20,9 km/h (4 Bft) 100,00 %
06.04.2016 09:40 12,4 C 74 % 1012,6 hPa 0,0 l/m 17,8 km/h (3 Bft) W-SW 242 0 min 0,000 mm 0,0 UV-I 136 W/m 7,9 C 7,1 C 24,1 km/h (4 Bft) 100,00 %
06.04.2016 09:41 12,4 C 75 % 1012,6 hPa 0,0 l/m 13,9 km/h (3 Bft) W 259 0 min 0,000 mm 0,0 UV-I 138 W/m 8,1 C 8,5 C 20,9 km/h (4 Bft) 100,00 %
06.04.2016 09:42 12,4 C 75 % 1012,6 hPa 0,0 l/m 11,4 km/h (2 Bft) W-NW 301 0 min 0,000 mm 0,2 UV-I 140 W/m 8,1 C 9,6 C 17,7 km/h (3 Bft) 100,00 %
06.04.2016 09:43 12,4 C 75 % 1012,7 hPa 0,0 l/m 8,6 km/h (2 Bft) W-SW 240 0 min 0,000 mm 0,5 UV-I 143 W/m 8,1 C 11,0 C 12,9 km/h (3 Bft) 100,00 %
06.04.2016 09:44 12,4 C 75 % 1012,7 hPa 0,0 l/m 11,5 km/h (2 Bft) W 265 0 min 0,000 mm 0,5 UV-I 147 W/m 8,1 C 9,5 C 17,7 km/h (3 Bft) 100,00 %
06.04.2016 09:45 12,4 C 75 % 1012,7 hPa 0,0 l/m 9,7 km/h (2 Bft) W 259 0 min 0,000 mm 0,5 UV-I 152 W/m 8,1 C 10,4 C 12,9 km/h (3 Bft) 95,83 %
06.04.2016 09:46 12,4 C 75 % 1012,7 hPa 0,0 l/m 7,9 km/h (2 Bft) W-SW 258 0 min 0,000 mm 0,5 UV-I 156 W/m 8,1 C 11,4 C 12,9 km/h (3 Bft) 100,00 %
06.04.2016 09:47 12,4 C 75 % 1012,7 hPa 0,0 l/m 10,4 km/h (2 Bft) SW 234 0 min 0,000 mm 0,6 UV-I 164 W/m 8,1 C 10,0 C 16,1 km/h (3 Bft) 100,00 %
06.04.2016 09:48 12,5 C 75 % 1012,7 hPa 0,0 l/m 8,8 km/h (2 Bft) W-SW 257 0 min 0,000 mm 0,6 UV-I 169 W/m 8,2 C 11,0 C 12,9 km/h (3 Bft) 100,00 %
06.04.2016 09:49 12,5 C 75 % 1012,7 hPa 0,0 l/m 11,4 km/h (2 Bft) SW 229 0 min 0,000 mm 0,6 UV-I 165 W/m 8,2 C 9,7 C 16,1 km/h (3 Bft) 100,00 %
06.04.2016 09:50 12,5 C 75 % 1012,7 hPa 0,0 l/m 9,5 km/h (2 Bft) W-NW 298 0 min 0,000 mm 0,6 UV-I 157 W/m 8,2 C 10,6 C 17,7 km/h (3 Bft) 96,55 %
06.04.2016 09:51 12,5 C 75 % 1012,8 hPa 0,0 l/m 8,8 km/h (2 Bft) W-NW 301 0 min 0,000 mm 0,5 UV-I 153 W/m 8,2 C 11,0 C 12,9 km/h (3 Bft) 100,00 %
06.04.2016 09:52 12,6 C 75 % 1012,8 hPa 0,0 l/m 8,6 km/h (2 Bft) W 268 0 min 0,000 mm 0,5 UV-I 151 W/m 8,3 C 11,2 C 19,3 km/h (3 Bft) 100,00 %
06.04.2016 09:53 12,5 C 75 % 1012,8 hPa 0,0 l/m 12,8 km/h (3 Bft) W-SW 244 0 min 0,000 mm 0,5 UV-I 152 W/m 8,2 C 9,0 C 16,1 km/h (3 Bft) 100,00 %
06.04.2016 09:54 12,6 C 75 % 1012,8 hPa 0,0 l/m 10,9 km/h (2 Bft) W 265 0 min 0,000 mm 0,6 UV-I 154 W/m 8,3 C 10,0 C 14,5 km/h (3 Bft) 100,00 %
06.04.2016 09:55 12,5 C 75 % 1012,8 hPa 0,0 l/m 13,3 km/h (3 Bft) W 274 0 min 0,000 mm 0,6 UV-I 157 W/m 8,2 C 8,8 C 16,1 km/h (3 Bft) 100,00 %
06.04.2016 09:56 12,5 C 75 % 1012,8 hPa 0,0 l/m 11,5 km/h (2 Bft) W-SW 257 0 min 0,000 mm 0,6 UV-I 160 W/m 8,2 C 9,6 C 17,7 km/h (3 Bft) 95,83 %
06.04.2016 09:57 12,6 C 74 % 1012,8 hPa 0,0 l/m 13,7 km/h (3 Bft) W-SW 258 0 min 0,000 mm 0,6 UV-I 163 W/m 8,1 C 8,8 C 17,7 km/h (3 Bft) 100,00 %
06.04.2016 09:58 12,5 C 74 % 1012,8 hPa 0,0 l/m 7,8 km/h (2 Bft) W-SW 243 0 min 0,000 mm 0,6 UV-I 168 W/m 8,0 C 11,6 C 14,5 km/h (3 Bft) 100,00 %
06.04.2016 09:59 12,5 C 74 % 1012,8 hPa 0,0 l/m 10,2 km/h (2 Bft) W 276 0 min 0,000 mm 0,6 UV-I 172 W/m 8,0 C 10,3 C 19,3 km/h (3 Bft) 100,00 %
06.04.2016 10:00 12,5 C 74 % 1012,8 hPa 0,0 l/m 10,7 km/h (2 Bft) W 279 0 min 0,000 mm 0,7 UV-I 174 W/m 8,0 C 10,0 C 16,1 km/h (3 Bft) 100,00 %
06.04.2016 10:01 12,5 C 75 % 1012,8 hPa 0,0 l/m 8,6 km/h (2 Bft) W 278 0 min 0,101 mm 0,7 UV-I 176 W/m 8,2 C 11,1 C 12,9 km/h (3 Bft) 100,00 %
06.04.2016 10:02 12,5 C 75 % 1012,8 hPa 0,0 l/m 11,8 km/h (2 Bft) W-SW 244 0 min 0,000 mm 0,7 UV-I 176 W/m 8,2 C 9,5 C 17,7 km/h (3 Bft) 100,00 %
06.04.2016 10:03 12,5 C 74 % 1012,9 hPa 0,0 l/m 11,5 km/h (2 Bft) SW 236 0 min 0,000 mm 0,7 UV-I 180 W/m 8,0 C 9,6 C 17,7 km/h (3 Bft) 100,00 %
06.04.2016 10:04 12,5 C 74 % 1012,8 hPa 0,0 l/m 12,3 km/h (3 Bft) SW 224 0 min 0,000 mm 0,7 UV-I 184 W/m 8,0 C 9,3 C 19,3 km/h (3 Bft) 96,30 %
06.04.2016 10:05 12,5 C 74 % 1012,8 hPa 0,0 l/m 11,7 km/h (2 Bft) SW 225 0 min 0,000 mm 0,7 UV-I 184 W/m 8,0 C 9,5 C 16,1 km/h (3 Bft) 100,00 %
06.04.2016 10:06 12,5 C 74 % 1012,9 hPa 0,0 l/m 15,5 km/h (3 Bft) W-NW 288 0 min 0,000 mm 0,7 UV-I 178 W/m 8,0 C 8,0 C 19,3 km/h (3 Bft) 100,00 %
06.04.2016 10:07 12,5 C 74 % 1012,9 hPa 0,0 l/m 5,8 km/h (2 Bft) W 269 0 min 0,000 mm 0,6 UV-I 172 W/m 8,0 C 12,5 C 11,3 km/h (2 Bft) 100,00 %
06.04.2016 10:08 12,6 C 74 % 1012,9 hPa 0,0 l/m 13,7 km/h (3 Bft) W-SW 242 0 min 0,000 mm 0,6 UV-I 167 W/m 8,1 C 8,8 C 19,3 km/h (3 Bft) 100,00 %
06.04.2016 10:09 12,5 C 74 % 1012,9 hPa 0,0 l/m 14,6 km/h (3 Bft) W 269 0 min 0,000 mm 0,6 UV-I 166 W/m 8,0 C 8,3 C 22,5 km/h (4 Bft) 100,00 %
06.04.2016 10:10 12,5 C 74 % 1012,9 hPa 0,0 l/m 11,6 km/h (2 Bft) SW 222 0 min 0,000 mm 0,6 UV-I 168 W/m 8,0 C 9,6 C 16,1 km/h (3 Bft) 100,00 %
06.04.2016 10:11 12,5 C 74 % 1012,9 hPa 0,0 l/m 8,7 km/h (2 Bft) W 265 0 min 0,000 mm 0,6 UV-I 170 W/m 8,0 C 11,1 C 17,7 km/h (3 Bft) 100,00 %
06.04.2016 10:12 12,5 C 75 % 1012,9 hPa 0,0 l/m 8,8 km/h (2 Bft) W-SW 258 0 min 0,000 mm 0,6 UV-I 173 W/m 8,2 C 11,0 C 12,9 km/h (3 Bft) 100,00 %
06.04.2016 10:13 12,6 C 74 % 1013,0 hPa 0,0 l/m 6,4 km/h (2 Bft) W 266 0 min 0,000 mm 0,7 UV-I 179 W/m 8,1 C 12,6 C 11,3 km/h (2 Bft) 100,00 %
06.04.2016 10:14 12,6 C 74 % 1012,9 hPa 0,0 l/m 11,2 km/h (2 Bft) NW 326 0 min 0,000 mm 0,7 UV-I 181 W/m 8,1 C 9,9 C 16,1 km/h (3 Bft) 95,65 %
06.04.2016 10:15 12,6 C 73 % 1012,9 hPa 0,0 l/m 11,4 km/h (2 Bft) W 277 0 min 0,000 mm 0,7 UV-I 183 W/m 7,9 C 9,8 C 17,7 km/h (3 Bft) 100,00 %
06.04.2016 10:16 12,6 C 73 % 1013,0 hPa 0,0 l/m 9,0 km/h (2 Bft) W-NW 288 0 min 0,000 mm 0,7 UV-I 186 W/m 7,9 C 11,0 C 14,5 km/h (3 Bft) 100,00 %
06.04.2016 10:17 12,6 C 73 % 1013,0 hPa 0,0 l/m 9,1 km/h (2 Bft) W-SW 250 0 min 0,000 mm 0,7 UV-I 191 W/m 7,9 C 10,9 C 16,1 km/h (3 Bft) 100,00 %
06.04.2016 10:18 12,6 C 74 % 1013,0 hPa 0,0 l/m 6,3 km/h (2 Bft) W-NW 282 0 min 0,000 mm 0,7 UV-I 199 W/m 8,1 C 12,6 C 12,9 km/h (3 Bft) 100,00 %
06.04.2016 10:19 12,6 C 73 % 1013,0 hPa 0,0 l/m 6,7 km/h (2 Bft) W 265 0 min 0,000 mm 0,7 UV-I 205 W/m 7,9 C 12,4 C 19,3 km/h (3 Bft) 100,00 %
06.04.2016 10:20 12,6 C 72 % 1013,0 hPa 0,0 l/m 15,0 km/h (3 Bft) W 265 0 min 0,000 mm 0,7 UV-I 209 W/m 7,7 C 8,3 C 17,7 km/h (3 Bft) 100,00 %
06.04.2016 10:21 12,6 C 73 % 1013,0 hPa 0,0 l/m 10,1 km/h (2 Bft) W 263 0 min 0,000 mm 0,7 UV-I 209 W/m 7,9 C 10,4 C 14,5 km/h (3 Bft) 100,00 %
06.04.2016 10:22 12,6 C 73 % 1013,0 hPa 0,0 l/m 10,1 km/h (2 Bft) W 276 0 min 0,000 mm 0,7 UV-I 204 W/m 7,9 C 10,4 C 12,9 km/h (3 Bft) 100,00 %
06.04.2016 10:23 12,6 C 73 % 1013,0 hPa 0,0 l/m 6,2 km/h (2 Bft) W-NW 288 0 min 0,000 mm 0,7 UV-I 191 W/m 7,9 C 12,6 C 12,9 km/h (3 Bft) 100,00 %
06.04.2016 10:24 12,6 C 73 % 1013,1 hPa 0,0 l/m 11,7 km/h (2 Bft) W-NW 288 0 min 0,000 mm 0,7 UV-I 180 W/m 7,9 C 9,6 C 16,1 km/h (3 Bft) 100,00 %
06.04.2016 10:25 12,6 C 73 % 1013,0 hPa 0,0 l/m 12,4 km/h (3 Bft) W 281 0 min 0,000 mm 0,7 UV-I 176 W/m 7,9 C 9,3 C 20,9 km/h (4 Bft) 100,00 %
06.04.2016 10:26 12,6 C 72 % 1013,1 hPa 0,0 l/m 13,2 km/h (3 Bft) W 279 0 min 0,000 mm 0,7 UV-I 172 W/m 7,7 C 9,0 C 17,7 km/h (3 Bft) 100,00 %
06.04.2016 10:27 12,6 C 73 % 1013,1 hPa 0,0 l/m 12,5 km/h (3 Bft) W 267 0 min 0,000 mm 0,7 UV-I 171 W/m 7,9 C 9,3 C 17,7 km/h (3 Bft) 100,00 %
06.04.2016 10:28 12,6 C 73 % 1013,1 hPa 0,0 l/m 10,6 km/h (2 Bft) W-SW 250 0 min 0,000 mm 0,7 UV-I 173 W/m 7,9 C 10,2 C 16,1 km/h (3 Bft) 100,00 %
06.04.2016 10:29 12,5 C 73 % 1013,1 hPa 0,0 l/m 12,0 km/h (2 Bft) W-SW 237 0 min 0,000 mm 0,7 UV-I 174 W/m 7,8 C 9,4 C 17,7 km/h (3 Bft) 100,00 %
06.04.2016 10:30 12,5 C 72 % 1013,1 hPa 0,0 l/m 17,0 km/h (3 Bft) W-NW 299 0 min 0,000 mm 0,7 UV-I 173 W/m 7,6 C 7,5 C 22,5 km/h (4 Bft) 100,00 %
06.04.2016 10:31 12,4 C 73 % 1013,1 hPa 0,0 l/m 12,5 km/h (3 Bft) W 262 0 min 0,000 mm 0,7 UV-I 170 W/m 7,7 C 9,1 C 17,7 km/h (3 Bft) 96,15 %
06.04.2016 10:32 12,4 C 72 % 1013,1 hPa 0,0 l/m 9,5 km/h (2 Bft) W-SW 250 0 min 0,000 mm 0,7 UV-I 166 W/m 7,5 C 10,5 C 12,9 km/h (3 Bft) 100,00 %
06.04.2016 10:33 12,4 C 73 % 1013,1 hPa 0,0 l/m 10,9 km/h (2 Bft) W-SW 254 0 min 0,000 mm 0,7 UV-I 162 W/m 7,7 C 9,8 C 14,5 km/h (3 Bft) 93,33 %
06.04.2016 10:34 12,4 C 73 % 1013,1 hPa 0,0 l/m 10,9 km/h (2 Bft) W 278 0 min 0,000 mm 0,7 UV-I 158 W/m 7,7 C 9,8 C 14,5 km/h (3 Bft) 100,00 %
06.04.2016 10:35 12,4 C 72 % 1013,1 hPa 0,0 l/m 8,4 km/h (2 Bft) W-SW 250 0 min 0,000 mm 0,7 UV-I 155 W/m 7,5 C 11,1 C 14,5 km/h (3 Bft) 100,00 %
06.04.2016 10:36 12,4 C 72 % 1013,2 hPa 0,0 l/m 18,3 km/h (3 Bft) W 273 0 min 0,000 mm 0,7 UV-I 154 W/m 7,5 C 6,9 C 24,1 km/h (4 Bft) 100,00 %
06.04.2016 10:37 12,4 C 72 % 1013,1 hPa 0,0 l/m 19,6 km/h (3 Bft) W-SW 242 0 min 0,000 mm 0,7 UV-I 153 W/m 7,5 C 6,5 C 24,1 km/h (4 Bft) 100,00 %
06.04.2016 10:38 12,4 C 72 % 1013,2 hPa 0,0 l/m 16,3 km/h (3 Bft) W 260 0 min 0,000 mm 0,7 UV-I 153 W/m 7,5 C 7,6 C 22,5 km/h (4 Bft) 100,00 %
06.04.2016 10:39 12,4 C 72 % 1013,2 hPa 0,0 l/m 16,2 km/h (3 Bft) W-SW 252 0 min 0,000 mm 0,7 UV-I 153 W/m 7,5 C 7,6 C 19,3 km/h (3 Bft) 100,00 %
06.04.2016 10:40 12,4 C 72 % 1013,2 hPa 0,0 l/m 12,3 km/h (3 Bft) W 271 0 min 0,000 mm 0,7 UV-I 153 W/m 7,5 C 9,1 C 17,7 km/h (3 Bft) 100,00 %
06.04.2016 10:41 12,3 C 72 % 1013,2 hPa 0,0 l/m 10,1 km/h (2 Bft) W-SW 237 0 min 0,000 mm 0,7 UV-I 154 W/m 7,4 C 10,1 C 14,5 km/h (3 Bft) 100,00 %
06.04.2016 10:42 12,3 C 72 % 1013,2 hPa 0,0 l/m 14,8 km/h (3 Bft) W 267 0 min 0,000 mm 0,7 UV-I 156 W/m 7,4 C 8,0 C 20,9 km/h (4 Bft) 100,00 %
06.04.2016 10:43 12,3 C 72 % 1013,2 hPa 0,0 l/m 13,7 km/h (3 Bft) W 260 0 min 0,000 mm 0,7 UV-I 160 W/m 7,4 C 8,4 C 22,5 km/h (4 Bft) 100,00 %
06.04.2016 10:44 12,3 C 72 % 1013,2 hPa 0,0 l/m 13,9 km/h (3 Bft) W 261 0 min 0,000 mm 0,8 UV-I 164 W/m 7,4 C 8,4 C 17,7 km/h (3 Bft) 100,00 %
06.04.2016 10:45 12,3 C 73 % 1013,2 hPa 0,0 l/m 12,5 km/h (3 Bft) W 281 0 min 0,000 mm 0,8 UV-I 166 W/m 7,6 C 8,9 C 19,3 km/h (3 Bft) 100,00 %
06.04.2016 10:46 12,3 C 72 % 1013,2 hPa 0,0 l/m 10,5 km/h (2 Bft) W 275 0 min 0,000 mm 0,8 UV-I 162 W/m 7,4 C 9,9 C 14,5 km/h (3 Bft) 100,00 %
06.04.2016 10:47 12,3 C 73 % 1013,2 hPa 0,0 l/m 8,4 km/h (2 Bft) W-SW 252 0 min 0,000 mm 0,7 UV-I 156 W/m 7,6 C 11,0 C 11,3 km/h (2 Bft) 100,00 %
06.04.2016 10:48 12,4 C 73 % 1013,2 hPa 0,0 l/m 8,8 km/h (2 Bft) W-SW 244 0 min 0,000 mm 0,7 UV-I 148 W/m 7,7 C 10,9 C 16,1 km/h (3 Bft) 100,00 %
06.04.2016 10:49 12,3 C 73 % 1013,3 hPa 0,0 l/m 9,3 km/h (2 Bft) W-SW 248 0 min 0,000 mm 0,6 UV-I 144 W/m 7,6 C 10,5 C 12,9 km/h (3 Bft) 100,00 %
06.04.2016 10:50 12,4 C 73 % 1013,2 hPa 0,0 l/m 12,6 km/h (3 Bft) W 265 0 min 0,000 mm 0,6 UV-I 146 W/m 7,7 C 9,0 C 17,7 km/h (3 Bft) 100,00 %
06.04.2016 10:51 12,3 C 73 % 1013,3 hPa 0,0 l/m 15,6 km/h (3 Bft) W-SW 250 0 min 0,000 mm 0,6 UV-I 148 W/m 7,6 C 7,7 C 20,9 km/h (4 Bft) 100,00 %
06.04.2016 10:52 12,3 C 73 % 1013,3 hPa 0,0 l/m 11,8 km/h (2 Bft) W 265 0 min 0,000 mm 0,6 UV-I 149 W/m 7,6 C 9,3 C 16,1 km/h (3 Bft) 100,00 %
06.04.2016 10:53 12,3 C 73 % 1013,3 hPa 0,0 l/m 12,9 km/h (3 Bft) W-SW 257 0 min 0,000 mm 0,6 UV-I 147 W/m 7,6 C 8,8 C 20,9 km/h (4 Bft) 100,00 %
06.04.2016 10:54 12,3 C 73 % 1013,3 hPa 0,0 l/m 11,8 km/h (2 Bft) SW 215 0 min 0,000 mm 0,6 UV-I 143 W/m 7,6 C 9,3 C 16,1 km/h (3 Bft) 100,00 %
06.04.2016 10:55 12,3 C 73 % 1013,3 hPa 0,0 l/m 13,9 km/h (3 Bft) SW 236 0 min 0,000 mm 0,6 UV-I 139 W/m 7,6 C 8,4 C 17,7 km/h (3 Bft) 100,00 %
06.04.2016 10:56 12,3 C 73 % 1013,3 hPa 0,0 l/m 9,4 km/h (2 Bft) W-SW 252 0 min 0,000 mm 0,5 UV-I 130 W/m 7,6 C 10,5 C 19,3 km/h (3 Bft) 100,00 %
06.04.2016 10:57 12,3 C 73 % 1013,3 hPa 0,0 l/m 14,5 km/h (3 Bft) W 267 0 min 0,000 mm 0,4 UV-I 119 W/m 7,6 C 8,1 C 24,1 km/h (4 Bft) 100,00 %
06.04.2016 10:58 12,3 C 73 % 1013,3 hPa 0,0 l/m 12,6 km/h (3 Bft) W-NW 300 0 min 0,000 mm 0,0 UV-I 108 W/m 7,6 C 8,9 C 24,1 km/h (4 Bft) 100,00 %
06.04.2016 10:59 12,3 C 73 % 1013,4 hPa 0,0 l/m 9,7 km/h (2 Bft) W-SW 237 0 min 0,000 mm 0,0 UV-I 100 W/m 7,6 C 10,3 C 16,1 km/h (3 Bft) 100,00 %
06.04.2016 11:00 12,2 C 73 % 1013,4 hPa 0,0 l/m 10,5 km/h (2 Bft) W-NW 292 0 min 0,127 mm 0,0 UV-I 94 W/m 7,5 C 9,8 C 19,3 km/h (3 Bft) 100,00 %
06.04.2016 11:01 12,2 C 73 % 1013,4 hPa 0,0 l/m 6,5 km/h (2 Bft) W-SW 249 0 min 0,000 mm 0,0 UV-I 88 W/m 7,5 C 12,2 C 11,3 km/h (2 Bft) 100,00 %
06.04.2016 11:02 12,2 C 74 % 1013,4 hPa 0,0 l/m 8,2 km/h (2 Bft) W 262 0 min 0,000 mm 0,0 UV-I 82 W/m 7,7 C 11,0 C 16,1 km/h (3 Bft) 90,00 %
06.04.2016 11:03 12,2 C 74 % 1013,3 hPa 0,0 l/m 7,1 km/h (2 Bft) W 279 0 min 0,000 mm 0,0 UV-I 78 W/m 7,7 C 11,7 C 16,1 km/h (3 Bft) 100,00 %
06.04.2016 11:04 12,2 C 75 % 1013,4 hPa 0,0 l/m 7,2 km/h (2 Bft) W 265 0 min 0,000 mm 0,0 UV-I 75 W/m 7,9 C 11,7 C 14,5 km/h (3 Bft) 96,15 %
06.04.2016 11:05 12,1 C 74 % 1013,4 hPa 0,0 l/m 11,8 km/h (2 Bft) W 259 0 min 0,000 mm 0,0 UV-I 74 W/m 7,6 C 9,0 C 14,5 km/h (3 Bft) 95,83 %
06.04.2016 11:06 12,1 C 74 % 1013,4 hPa 0,0 l/m 7,4 km/h (2 Bft) W 260 0 min 0,000 mm 0,0 UV-I 74 W/m 7,6 C 11,4 C 9,7 km/h (2 Bft) 94,44 %
06.04.2016 11:07 12,1 C 74 % 1013,4 hPa 0,0 l/m 10,4 km/h (2 Bft) W-NW 294 0 min 0,000 mm 0,0 UV-I 74 W/m 7,6 C 9,7 C 25,7 km/h (4 Bft) 100,00 %
06.04.2016 11:08 12,1 C 75 % 1013,4 hPa 0,0 l/m 9,0 km/h (2 Bft) W-SW 248 0 min 0,000 mm 0,0 UV-I 74 W/m 7,8 C 10,5 C 14,5 km/h (3 Bft) 95,65 %
06.04.2016 11:09 12,1 C 74 % 1013,4 hPa 0,0 l/m 7,3 km/h (2 Bft) W-SW 253 0 min 0,000 mm 0,0 UV-I 73 W/m 7,6 C 11,5 C 11,3 km/h (2 Bft) 91,67 %
06.04.2016 11:10 12,0 C 74 % 1013,4 hPa 0,0 l/m 8,1 km/h (2 Bft) W 264 0 min 0,000 mm 0,0 UV-I 75 W/m 7,5 C 10,9 C 11,3 km/h (2 Bft) 100,00 %
06.04.2016 11:11 12,0 C 74 % 1013,4 hPa 0,0 l/m 9,5 km/h (2 Bft) W 277 0 min 0,000 mm 0,0 UV-I 77 W/m 7,5 C 10,1 C 12,9 km/h (3 Bft) 95,83 %
06.04.2016 11:12 12,0 C 74 % 1013,4 hPa 0,0 l/m 13,2 km/h (3 Bft) W-SW 250 0 min 0,000 mm 0,0 UV-I 79 W/m 7,5 C 8,3 C 17,7 km/h (3 Bft) 100,00 %
06.04.2016 11:13 12,0 C 73 % 1013,4 hPa 0,0 l/m 10,3 km/h (2 Bft) W-SW 249 0 min 0,000 mm 0,0 UV-I 81 W/m 7,3 C 9,6 C 19,3 km/h (3 Bft) 95,65 %
06.04.2016 11:14 12,0 C 73 % 1013,4 hPa 0,0 l/m 17,8 km/h (3 Bft) W-SW 254 0 min 0,000 mm 0,0 UV-I 83 W/m 7,3 C 6,6 C 22,5 km/h (4 Bft) 100,00 %
06.04.2016 11:15 11,9 C 73 % 1013,4 hPa 0,0 l/m 15,2 km/h (3 Bft) W 270 0 min 0,000 mm 0,0 UV-I 85 W/m 7,2 C 7,4 C 25,7 km/h (4 Bft) 95,65 %
06.04.2016 11:16 11,9 C 73 % 1013,4 hPa 0,0 l/m 13,5 km/h (3 Bft) W-SW 254 0 min 0,000 mm 0,0 UV-I 89 W/m 7,2 C 8,0 C 17,7 km/h (3 Bft) 100,00 %
06.04.2016 11:17 11,9 C 73 % 1013,4 hPa 0,0 l/m 10,7 km/h (2 Bft) N-NW 344 0 min 0,000 mm 0,0 UV-I 91 W/m 7,2 C 9,3 C 14,5 km/h (3 Bft) 96,15 %
06.04.2016 11:18 11,9 C 74 % 1013,4 hPa 0,0 l/m 9,2 km/h (2 Bft) W 271 0 min 0,000 mm 0,0 UV-I 95 W/m 7,4 C 10,1 C 14,5 km/h (3 Bft) 100,00 %
06.04.2016 11:19 11,9 C 74 % 1013,4 hPa 0,0 l/m 5,3 km/h (1 Bft) W-SW 257 0 min 0,000 mm 0,0 UV-I 97 W/m 7,4 C 11,9 C 9,7 km/h (2 Bft) 96,55 %
06.04.2016 11:20 11,9 C 73 % 1013,4 hPa 0,0 l/m 7,9 km/h (2 Bft) W 261 0 min 0,000 mm 0,0 UV-I 99 W/m 7,2 C 10,9 C 12,9 km/h (3 Bft) 95,83 %
06.04.2016 11:21 11,9 C 73 % 1013,5 hPa 0,0 l/m 10,5 km/h (2 Bft) W 265 0 min 0,000 mm 0,0 UV-I 103 W/m 7,2 C 9,4 C 17,7 km/h (3 Bft) 100,00 %
06.04.2016 11:22 11,9 C 73 % 1013,5 hPa 0,0 l/m 9,5 km/h (2 Bft) W 259 0 min 0,000 mm 0,0 UV-I 106 W/m 7,2 C 10,0 C 16,1 km/h (3 Bft) 91,67 %
06.04.2016 11:23 11,9 C 73 % 1013,5 hPa 0,0 l/m 8,7 km/h (2 Bft) W-SW 240 0 min 0,000 mm 0,3 UV-I 110 W/m 7,2 C 10,4 C 17,7 km/h (3 Bft) 100,00 %
06.04.2016 11:24 11,9 C 73 % 1013,5 hPa 0,0 l/m 6,4 km/h (2 Bft) W 272 0 min 0,000 mm 0,5 UV-I 114 W/m 7,2 C 11,9 C 14,5 km/h (3 Bft) 91,67 %
06.04.2016 11:25 11,9 C 73 % 1013,5 hPa 0,0 l/m 10,0 km/h (2 Bft) W-SW 252 0 min 0,000 mm 0,5 UV-I 118 W/m 7,2 C 9,7 C 17,7 km/h (3 Bft) 100,00 %
06.04.2016 11:26 11,9 C 73 % 1013,5 hPa 0,0 l/m 8,0 km/h (2 Bft) W 267 0 min 0,000 mm 0,5 UV-I 121 W/m 7,2 C 10,8 C 11,3 km/h (2 Bft) 95,83 %
06.04.2016 11:27 11,9 C 73 % 1013,5 hPa 0,0 l/m 8,2 km/h (2 Bft) W-SW 252 0 min 0,000 mm 0,5 UV-I 130 W/m 7,2 C 10,7 C 9,7 km/h (2 Bft) 95,65 %
06.04.2016 11:28 11,9 C 74 % 1013,5 hPa 0,0 l/m 10,5 km/h (2 Bft) W-SW 250 0 min 0,000 mm 0,6 UV-I 138 W/m 7,4 C 9,4 C 12,9 km/h (3 Bft) 93,33 %
06.04.2016 11:29 11,9 C 73 % 1013,5 hPa 0,0 l/m 6,8 km/h (2 Bft) W 269 0 min 0,000 mm 0,6 UV-I 146 W/m 7,2 C 11,6 C 11,3 km/h (2 Bft) 100,00 %
06.04.2016 11:30 11,9 C 74 % 1013,5 hPa 0,0 l/m 9,9 km/h (2 Bft) W-NW 296 0 min 0,000 mm 0,7 UV-I 155 W/m 7,4 C 9,7 C 16,1 km/h (3 Bft) 95,45 %
06.04.2016 11:31 11,9 C 73 % 1013,5 hPa 0,0 l/m 8,0 km/h (2 Bft) W-SW 253 0 min 0,000 mm 0,7 UV-I 164 W/m 7,2 C 10,8 C 12,9 km/h (3 Bft) 91,67 %
06.04.2016 11:32 11,9 C 74 % 1013,5 hPa 0,0 l/m 12,6 km/h (3 Bft) W 274 0 min 0,000 mm 0,7 UV-I 175 W/m 7,4 C 8,4 C 19,3 km/h (3 Bft) 100,00 %
06.04.2016 11:33 11,9 C 73 % 1013,5 hPa 0,0 l/m 13,2 km/h (3 Bft) W-NW 302 0 min 0,000 mm 0,8 UV-I 186 W/m 7,2 C 8,2 C 17,7 km/h (3 Bft) 96,30 %
06.04.2016 11:34 11,9 C 74 % 1013,5 hPa 0,0 l/m 10,6 km/h (2 Bft) W 280 0 min 0,000 mm 0,9 UV-I 195 W/m 7,4 C 9,4 C 12,9 km/h (3 Bft) 100,00 %
06.04.2016 11:35 12,0 C 74 % 1013,5 hPa 0,0 l/m 10,6 km/h (2 Bft) W 261 0 min 0,000 mm 0,9 UV-I 203 W/m 7,5 C 9,5 C 17,7 km/h (3 Bft) 100,00 %
06.04.2016 11:36 12,1 C 74 % 1013,5 hPa 0,0 l/m 8,3 km/h (2 Bft) W 273 0 min 0,000 mm 0,9 UV-I 211 W/m 7,6 C 10,9 C 16,1 km/h (3 Bft) 100,00 %
06.04.2016 11:37 12,1 C 74 % 1013,5 hPa 0,0 l/m 7,6 km/h (2 Bft) W 263 0 min 0,000 mm 1,0 UV-I 216 W/m 7,6 C 11,3 C 16,1 km/h (3 Bft) 100,00 %
06.04.2016 11:38 12,1 C 73 % 1013,5 hPa 0,0 l/m 14,7 km/h (3 Bft) W 259 0 min 0,000 mm 1,0 UV-I 221 W/m 7,4 C 7,8 C 22,5 km/h (4 Bft) 100,00 %
06.04.2016 11:39 12,1 C 73 % 1013,5 hPa 0,0 l/m 10,4 km/h (2 Bft) N-NW 331 0 min 0,000 mm 1,0 UV-I 219 W/m 7,4 C 9,7 C 19,3 km/h (3 Bft) 100,00 %
06.04.2016 11:40 12,1 C 73 % 1013,5 hPa 0,0 l/m 9,5 km/h (2 Bft) W 281 0 min 0,000 mm 1,0 UV-I 213 W/m 7,4 C 10,2 C 14,5 km/h (3 Bft) 100,00 %
06.04.2016 11:41 12,1 C 73 % 1013,5 hPa 0,0 l/m 9,1 km/h (2 Bft) W 261 0 min 0,000 mm 0,9 UV-I 204 W/m 7,4 C 10,4 C 14,5 km/h (3 Bft) 91,67 %
06.04.2016 11:42 12,1 C 73 % 1013,6 hPa 0,0 l/m 12,3 km/h (3 Bft) W 263 0 min 0,000 mm 0,9 UV-I 193 W/m 7,4 C 8,8 C 16,1 km/h (3 Bft) 96,55 %
06.04.2016 11:43 12,2 C 73 % 1013,5 hPa 0,0 l/m 9,6 km/h (2 Bft) W-SW 242 0 min 0,000 mm 0,9 UV-I 187 W/m 7,5 C 10,2 C 12,9 km/h (3 Bft) 100,00 %
06.04.2016 11:44 12,1 C 73 % 1013,5 hPa 0,0 l/m 7,5 km/h (2 Bft) W 279 0 min 0,000 mm 0,9 UV-I 186 W/m 7,4 C 11,4 C 11,3 km/h (2 Bft) 100,00 %
06.04.2016 11:45 12,2 C 73 % 1013,5 hPa 0,0 l/m 11,1 km/h (2 Bft) W-NW 288 0 min 0,000 mm 0,9 UV-I 187 W/m 7,5 C 9,5 C 17,7 km/h (3 Bft) 100,00 %
06.04.2016 11:46 12,2 C 72 % 1013,5 hPa 0,0 l/m 10,5 km/h (2 Bft) W-SW 243 0 min 0,000 mm 0,9 UV-I 189 W/m 7,3 C 9,8 C 12,9 km/h (3 Bft) 100,00 %
06.04.2016 11:47 12,2 C 72 % 1013,5 hPa 0,0 l/m 10,1 km/h (2 Bft) W-NW 289 0 min 0,000 mm 0,9 UV-I 188 W/m 7,3 C 10,0 C 14,5 km/h (3 Bft) 100,00 %
06.04.2016 11:48 12,2 C 73 % 1013,5 hPa 0,0 l/m 8,7 km/h (2 Bft) W 265 0 min 0,000 mm 0,9 UV-I 186 W/m 7,5 C 10,7 C 12,9 km/h (3 Bft) 96,15 %
06.04.2016 11:49 12,2 C 72 % 1013,5 hPa 0,0 l/m 12,5 km/h (3 Bft) W-SW 252 0 min 0,000 mm 0,9 UV-I 186 W/m 7,3 C 8,8 C 17,7 km/h (3 Bft) 100,00 %
06.04.2016 11:50 12,2 C 72 % 1013,5 hPa 0,0 l/m 11,8 km/h (2 Bft) W-NW 290 0 min 0,000 mm 0,9 UV-I 188 W/m 7,3 C 9,1 C 16,1 km/h (3 Bft) 100,00 %
06.04.2016 11:51 12,2 C 72 % 1013,5 hPa 0,0 l/m 7,8 km/h (2 Bft) W 274 0 min 0,000 mm 0,9 UV-I 189 W/m 7,3 C 11,3 C 12,9 km/h (3 Bft) 100,00 %
06.04.2016 11:52 12,2 C 72 % 1013,5 hPa 0,0 l/m 9,7 km/h (2 Bft) W-SW 256 0 min 0,000 mm 0,9 UV-I 190 W/m 7,3 C 10,2 C 12,9 km/h (3 Bft) 100,00 %
06.04.2016 11:53 12,2 C 72 % 1013,6 hPa 0,0 l/m 16,4 km/h (3 Bft) W 260 0 min 0,000 mm 0,9 UV-I 192 W/m 7,3 C 7,3 C 20,9 km/h (4 Bft) 100,00 %
06.04.2016 11:54 12,2 C 71 % 1013,5 hPa 0,0 l/m 13,4 km/h (3 Bft) W 272 0 min 0,000 mm 0,9 UV-I 192 W/m 7,1 C 8,4 C 16,1 km/h (3 Bft) 100,00 %
06.04.2016 11:55 12,2 C 72 % 1013,5 hPa 0,0 l/m 12,5 km/h (3 Bft) W-SW 241 0 min 0,000 mm 0,9 UV-I 190 W/m 7,3 C 8,8 C 22,5 km/h (4 Bft) 96,15 %
06.04.2016 11:56 12,2 C 71 % 1013,5 hPa 0,0 l/m 13,7 km/h (3 Bft) W-NW 290 0 min 0,000 mm 0,9 UV-I 187 W/m 7,1 C 8,3 C 19,3 km/h (3 Bft) 100,00 %
06.04.2016 11:57 12,2 C 71 % 1013,5 hPa 0,0 l/m 7,7 km/h (2 Bft) W-SW 248 0 min 0,000 mm 0,9 UV-I 180 W/m 7,1 C 11,3 C 11,3 km/h (2 Bft) 100,00 %
06.04.2016 11:58 12,3 C 71 % 1013,5 hPa 0,0 l/m 10,8 km/h (2 Bft) W-SW 252 0 min 0,000 mm 0,8 UV-I 173 W/m 7,2 C 9,7 C 16,1 km/h (3 Bft) 100,00 %
06.04.2016 11:59 12,2 C 72 % 1013,5 hPa 0,0 l/m 16,7 km/h (3 Bft) W 260 0 min 0,000 mm 0,8 UV-I 163 W/m 7,3 C 7,2 C 20,9 km/h (4 Bft) 100,00 %
06.04.2016 12:00 12,3 C 72 % 1013,5 hPa 0,0 l/m 13,6 km/h (3 Bft) W-SW 248 0 min 0,000 mm 0,7 UV-I 152 W/m 7,4 C 8,5 C 17,7 km/h (3 Bft) 100,00 %
06.04.2016 12:01 12,3 C 71 % 1013,6 hPa 0,0 l/m 12,6 km/h (3 Bft) W 263 0 min 0,102 mm 0,7 UV-I 147 W/m 7,2 C 8,9 C 16,1 km/h (3 Bft) 100,00 %
06.04.2016 12:02 12,2 C 71 % 1013,5 hPa 0,0 l/m 11,3 km/h (2 Bft) W 268 0 min 0,000 mm 0,7 UV-I 144 W/m 7,1 C 9,4 C 14,5 km/h (3 Bft) 100,00 %
06.04.2016 12:03 12,2 C 72 % 1013,5 hPa 0,0 l/m 9,3 km/h (2 Bft) W 265 0 min 0,000 mm 0,7 UV-I 140 W/m 7,3 C 10,4 C 14,5 km/h (3 Bft) 96,55 %
06.04.2016 12:04 12,2 C 71 % 1013,5 hPa 0,0 l/m 13,8 km/h (3 Bft) SW 235 0 min 0,000 mm 0,7 UV-I 139 W/m 7,1 C 8,3 C 19,3 km/h (3 Bft) 100,00 %
06.04.2016 12:05 12,2 C 71 % 1013,5 hPa 0,0 l/m 13,9 km/h (3 Bft) SW 232 0 min 0,000 mm 0,7 UV-I 144 W/m 7,1 C 8,2 C 17,7 km/h (3 Bft) 100,00 %
06.04.2016 12:06 12,2 C 72 % 1013,5 hPa 0,0 l/m 9,2 km/h (2 Bft) W-NW 286 0 min 0,000 mm 0,8 UV-I 150 W/m 7,3 C 10,5 C 12,9 km/h (3 Bft) 100,00 %
06.04.2016 12:07 12,2 C 72 % 1013,5 hPa 0,0 l/m 10,1 km/h (2 Bft) W 261 0 min 0,000 mm 0,8 UV-I 159 W/m 7,3 C 10,0 C 12,9 km/h (3 Bft) 100,00 %
06.04.2016 12:08 12,2 C 72 % 1013,5 hPa 0,0 l/m 7,8 km/h (2 Bft) W 265 0 min 0,000 mm 0,8 UV-I 171 W/m 7,3 C 11,3 C 11,3 km/h (2 Bft) 100,00 %
06.04.2016 12:09 12,2 C 73 % 1013,5 hPa 0,0 l/m 9,7 km/h (2 Bft) W 267 0 min 0,000 mm 0,9 UV-I 193 W/m 7,5 C 10,2 C 14,5 km/h (3 Bft) 100,00 %
06.04.2016 12:10 12,2 C 72 % 1013,6 hPa 0,0 l/m 9,4 km/h (2 Bft) W-SW 253 0 min 0,000 mm 1,1 UV-I 218 W/m 7,3 C 10,3 C 12,9 km/h (3 Bft) 100,00 %
06.04.2016 12:11 12,3 C 73 % 1013,5 hPa 0,0 l/m 5,3 km/h (1 Bft) W-NW 285 0 min 0,000 mm 1,2 UV-I 245 W/m 7,6 C 12,3 C 9,7 km/h (2 Bft) 100,00 %
06.04.2016 12:12 12,3 C 73 % 1013,5 hPa 0,0 l/m 6,6 km/h (2 Bft) W-SW 240 0 min 0,000 mm 1,3 UV-I 264 W/m 7,6 C 12,2 C 14,5 km/h (3 Bft) 100,00 %
06.04.2016 12:13 12,3 C 73 % 1013,5 hPa 0,0 l/m 7,7 km/h (2 Bft) W-NW 285 0 min 0,000 mm 1,3 UV-I 275 W/m 7,6 C 11,5 C 12,9 km/h (3 Bft) 100,00 %
06.04.2016 12:14 12,4 C 72 % 1013,5 hPa 0,0 l/m 4,9 km/h (1 Bft) W-SW 254 0 min 0,000 mm 1,4 UV-I 279 W/m 7,5 C 12,4 C 6,4 km/h (2 Bft) 100,00 %
06.04.2016 12:15 12,4 C 72 % 1013,5 hPa 0,0 l/m 4,1 km/h (1 Bft) W-SW 241 0 min 0,000 mm 1,4 UV-I 286 W/m 7,5 C 12,4 C 6,4 km/h (2 Bft) 100,00 %
06.04.2016 12:16 12,5 C 73 % 1013,5 hPa 0,0 l/m 10,2 km/h (2 Bft) SW 225 0 min 0,000 mm 1,4 UV-I 292 W/m 7,8 C 10,3 C 16,1 km/h (3 Bft) 100,00 %
06.04.2016 12:17 12,6 C 73 % 1013,5 hPa 0,0 l/m 14,8 km/h (3 Bft) W-SW 252 0 min 0,000 mm 1,4 UV-I 288 W/m 7,9 C 8,4 C 17,7 km/h (3 Bft) 100,00 %
06.04.2016 12:18 12,6 C 72 % 1013,6 hPa 0,0 l/m 7,8 km/h (2 Bft) W-SW 237 0 min 0,000 mm 1,4 UV-I 277 W/m 7,7 C 11,7 C 12,9 km/h (3 Bft) 100,00 %
06.04.2016 12:19 12,6 C 73 % 1013,5 hPa 0,0 l/m 6,4 km/h (2 Bft) SW 223 0 min 0,000 mm 1,3 UV-I 265 W/m 7,9 C 12,6 C 12,9 km/h (3 Bft) 100,00 %
06.04.2016 12:20 12,6 C 72 % 1013,6 hPa 0,0 l/m 9,1 km/h (2 Bft) W-SW 238 0 min 0,000 mm 1,3 UV-I 261 W/m 7,7 C 10,9 C 14,5 km/h (3 Bft) 100,00 %
06.04.2016 12:21 12,7 C 73 % 1013,6 hPa 0,0 l/m 8,6 km/h (2 Bft) W 265 0 min 0,000 mm 1,3 UV-I 259 W/m 8,0 C 11,3 C 14,5 km/h (3 Bft) 100,00 %
06.04.2016 12:22 12,7 C 73 % 1013,6 hPa 0,0 l/m 9,4 km/h (2 Bft) W 259 0 min 0,000 mm 1,3 UV-I 257 W/m 8,0 C 10,9 C 12,9 km/h (3 Bft) 100,00 %
06.04.2016 12:23 12,7 C 73 % 1013,6 hPa 0,0 l/m 17,7 km/h (3 Bft) W-SW 244 0 min 0,000 mm 1,3 UV-I 253 W/m 8,0 C 7,5 C 20,9 km/h (4 Bft) 93,33 %
06.04.2016 12:24 12,7 C 72 % 1013,6 hPa 0,0 l/m 10,7 km/h (2 Bft) SW 214 0 min 0,000 mm 1,3 UV-I 253 W/m 7,8 C 10,2 C 14,5 km/h (3 Bft) 100,00 %
06.04.2016 12:25 12,7 C 72 % 1013,6 hPa 0,0 l/m 11,9 km/h (2 Bft) W 259 0 min 0,000 mm 1,3 UV-I 262 W/m 7,8 C 9,7 C 16,1 km/h (3 Bft) 100,00 %
06.04.2016 12:26 12,7 C 72 % 1013,6 hPa 0,0 l/m 12,9 km/h (3 Bft) W-SW 248 0 min 0,000 mm 1,3 UV-I 274 W/m 7,8 C 9,2 C 17,7 km/h (3 Bft) 100,00 %
06.04.2016 12:27 12,7 C 72 % 1013,6 hPa 0,0 l/m 9,4 km/h (2 Bft) W-SW 252 0 min 0,000 mm 1,4 UV-I 290 W/m 7,8 C 10,9 C 14,5 km/h (3 Bft) 96,30 %
06.04.2016 12:28 12,7 C 71 % 1013,6 hPa 0,0 l/m 12,8 km/h (3 Bft) W-SW 247 0 min 0,000 mm 1,4 UV-I 295 W/m 7,6 C 9,3 C 17,7 km/h (3 Bft) 100,00 %
06.04.2016 12:29 12,7 C 72 % 1013,6 hPa 0,0 l/m 10,9 km/h (2 Bft) SW 233 0 min 0,000 mm 1,3 UV-I 273 W/m 7,8 C 10,1 C 17,7 km/h (3 Bft) 91,67 %
06.04.2016 12:30 12,8 C 71 % 1013,6 hPa 0,0 l/m 9,2 km/h (2 Bft) W 265 0 min 0,000 mm 1,2 UV-I 243 W/m 7,7 C 11,1 C 12,9 km/h (3 Bft) 100,00 %
06.04.2016 12:31 12,8 C 70 % 1013,6 hPa 0,0 l/m 6,6 km/h (2 Bft) W-SW 242 0 min 0,000 mm 1,0 UV-I 209 W/m 7,5 C 12,7 C 12,9 km/h (3 Bft) 100,00 %
06.04.2016 12:32 12,8 C 69 % 1013,6 hPa 0,0 l/m 11,3 km/h (2 Bft) W-SW 250 0 min 0,000 mm 0,9 UV-I 183 W/m 7,3 C 10,1 C 12,9 km/h (3 Bft) 100,00 %
06.04.2016 12:33 12,8 C 69 % 1013,6 hPa 0,0 l/m 6,7 km/h (2 Bft) W-NW 282 0 min 0,000 mm 0,8 UV-I 159 W/m 7,3 C 12,6 C 12,9 km/h (3 Bft) 100,00 %
06.04.2016 12:34 12,8 C 70 % 1013,6 hPa 0,0 l/m 8,4 km/h (2 Bft) W 266 0 min 0,000 mm 0,7 UV-I 141 W/m 7,5 C 11,6 C 16,1 km/h (3 Bft) 100,00 %
06.04.2016 12:35 12,7 C 70 % 1013,6 hPa 0,0 l/m 14,1 km/h (3 Bft) W-SW 243 0 min 0,000 mm 0,6 UV-I 124 W/m 7,4 C 8,7 C 19,3 km/h (3 Bft) 92,86 %
06.04.2016 12:36 12,7 C 70 % 1013,6 hPa 0,0 l/m 14,3 km/h (3 Bft) SW 219 0 min 0,000 mm 0,6 UV-I 115 W/m 7,4 C 8,7 C 17,7 km/h (3 Bft) 100,00 %
06.04.2016 12:37 12,7 C 70 % 1013,6 hPa 0,0 l/m 16,1 km/h (3 Bft) W-SW 257 0 min 0,000 mm 0,6 UV-I 113 W/m 7,4 C 8,0 C 20,9 km/h (4 Bft) 100,00 %
06.04.2016 12:38 12,6 C 71 % 1013,6 hPa 0,0 l/m 16,4 km/h (3 Bft) W 265 0 min 0,000 mm 0,6 UV-I 113 W/m 7,5 C 7,8 C 24,1 km/h (4 Bft) 100,00 %
06.04.2016 12:39 12,6 C 70 % 1013,6 hPa 0,0 l/m 15,0 km/h (3 Bft) W 261 0 min 0,000 mm 0,6 UV-I 113 W/m 7,3 C 8,3 C 19,3 km/h (3 Bft) 100,00 %
06.04.2016 12:40 12,5 C 70 % 1013,6 hPa 0,0 l/m 9,2 km/h (2 Bft) W-SW 241 0 min 0,000 mm 0,6 UV-I 113 W/m 7,2 C 10,8 C 14,5 km/h (3 Bft) 100,00 %
06.04.2016 12:41 12,5 C 71 % 1013,6 hPa 0,0 l/m 16,9 km/h (3 Bft) W-SW 246 0 min 0,000 mm 0,6 UV-I 117 W/m 7,4 C 7,5 C 24,1 km/h (4 Bft) 100,00 %
06.04.2016 12:42 12,4 C 70 % 1013,6 hPa 0,0 l/m 15,7 km/h (3 Bft) W-SW 251 0 min 0,000 mm 0,6 UV-I 126 W/m 7,1 C 7,8 C 20,9 km/h (4 Bft) 100,00 %
06.04.2016 12:43 12,4 C 71 % 1013,6 hPa 0,0 l/m 12,0 km/h (2 Bft) W 262 0 min 0,000 mm 0,7 UV-I 132 W/m 7,3 C 9,3 C 19,3 km/h (3 Bft) 100,00 %
06.04.2016 12:44 12,4 C 70 % 1013,6 hPa 0,0 l/m 13,6 km/h (3 Bft) W 261 0 min 0,000 mm 0,7 UV-I 136 W/m 7,1 C 8,6 C 20,9 km/h (4 Bft) 100,00 %
06.04.2016 12:45 12,4 C 70 % 1013,6 hPa 0,0 l/m 12,7 km/h (3 Bft) SW 236 0 min 0,000 mm 0,7 UV-I 141 W/m 7,1 C 9,0 C 17,7 km/h (3 Bft) 100,00 %
06.04.2016 12:46 12,4 C 70 % 1013,6 hPa 0,0 l/m 8,9 km/h (2 Bft) W 263 0 min 0,000 mm 0,8 UV-I 142 W/m 7,1 C 10,8 C 14,5 km/h (3 Bft) 100,00 %
06.04.2016 12:47 12,3 C 71 % 1013,6 hPa 0,0 l/m 11,3 km/h (2 Bft) W-SW 251 0 min 0,000 mm 0,8 UV-I 144 W/m 7,2 C 9,5 C 17,7 km/h (3 Bft) 100,00 %
06.04.2016 12:48 12,4 C 71 % 1013,6 hPa 0,0 l/m 9,6 km/h (2 Bft) W 265 0 min 0,000 mm 0,7 UV-I 142 W/m 7,3 C 10,5 C 14,5 km/h (3 Bft) 96,15 %
06.04.2016 12:49 12,4 C 71 % 1013,6 hPa 0,0 l/m 12,6 km/h (3 Bft) W-NW 290 0 min 0,000 mm 0,7 UV-I 142 W/m 7,3 C 9,0 C 17,7 km/h (3 Bft) 100,00 %
06.04.2016 12:50 12,4 C 71 % 1013,6 hPa 0,0 l/m 10,4 km/h (2 Bft) W-SW 257 0 min 0,000 mm 0,7 UV-I 140 W/m 7,3 C 10,0 C 14,5 km/h (3 Bft) 100,00 %
06.04.2016 12:51 12,4 C 70 % 1013,6 hPa 0,0 l/m 7,0 km/h (2 Bft) W-SW 248 0 min 0,000 mm 0,7 UV-I 139 W/m 7,1 C 12,0 C 9,7 km/h (2 Bft) 100,00 %
06.04.2016 12:52 12,4 C 71 % 1013,6 hPa 0,0 l/m 6,9 km/h (2 Bft) W-SW 251 0 min 0,000 mm 0,7 UV-I 137 W/m 7,3 C 12,1 C 11,3 km/h (2 Bft) 100,00 %
06.04.2016 12:53 12,4 C 71 % 1013,6 hPa 0,0 l/m 10,2 km/h (2 Bft) W 271 0 min 0,000 mm 0,7 UV-I 136 W/m 7,3 C 10,1 C 14,5 km/h (3 Bft) 100,00 %
06.04.2016 12:54 12,4 C 71 % 1013,6 hPa 0,0 l/m 7,5 km/h (2 Bft) SW 234 0 min 0,000 mm 0,7 UV-I 134 W/m 7,3 C 11,7 C 11,3 km/h (2 Bft) 93,33 %
06.04.2016 12:55 12,4 C 71 % 1013,6 hPa 0,0 l/m 8,9 km/h (2 Bft) W-SW 252 0 min 0,000 mm 0,7 UV-I 129 W/m 7,3 C 10,8 C 12,9 km/h (3 Bft) 100,00 %
06.04.2016 12:56 12,4 C 71 % 1013,5 hPa 0,0 l/m 11,2 km/h (2 Bft) W-SW 246 0 min 0,000 mm 0,7 UV-I 127 W/m 7,3 C 9,6 C 19,3 km/h (3 Bft) 96,15 %
06.04.2016 12:57 12,4 C 71 % 1013,6 hPa 0,0 l/m 9,4 km/h (2 Bft) W-SW 246 0 min 0,000 mm 0,7 UV-I 127 W/m 7,3 C 10,6 C 12,9 km/h (3 Bft) 93,33 %
06.04.2016 12:58 12,4 C 71 % 1013,6 hPa 0,0 l/m 12,5 km/h (3 Bft) W 259 0 min 0,000 mm 0,7 UV-I 129 W/m 7,3 C 9,1 C 17,7 km/h (3 Bft) 100,00 %
06.04.2016 12:59 12,4 C 71 % 1013,6 hPa 0,0 l/m 9,5 km/h (2 Bft) W-NW 284 0 min 0,000 mm 0,7 UV-I 136 W/m 7,3 C 10,5 C 12,9 km/h (3 Bft) 91,67 %
06.04.2016 13:00 12,4 C 71 % 1013,6 hPa 0,0 l/m 5,5 km/h (1 Bft) W-NW 292 0 min 0,127 mm 0,7 UV-I 144 W/m 7,3 C 12,4 C 6,4 km/h (2 Bft) 100,00 %
06.04.2016 13:01 12,4 C 71 % 1013,6 hPa 0,0 l/m 5,7 km/h (1 Bft) W-SW 253 0 min 0,000 mm 0,8 UV-I 151 W/m 7,3 C 12,4 C 9,7 km/h (2 Bft) 97,56 %
06.04.2016 13:02 12,4 C 71 % 1013,6 hPa 0,0 l/m 8,0 km/h (2 Bft) W 268 0 min 0,000 mm 0,9 UV-I 158 W/m 7,3 C 11,4 C 11,3 km/h (2 Bft) 96,15 %
06.04.2016 13:03 12,4 C 71 % 1013,6 hPa 0,0 l/m 10,5 km/h (2 Bft) W 270 0 min 0,000 mm 0,9 UV-I 164 W/m 7,3 C 10,0 C 17,7 km/h (3 Bft) 100,00 %
06.04.2016 13:04 12,4 C 71 % 1013,6 hPa 0,0 l/m 7,0 km/h (2 Bft) W 259 0 min 0,000 mm 0,9 UV-I 173 W/m 7,3 C 12,0 C 11,3 km/h (2 Bft) 96,15 %
06.04.2016 13:05 12,4 C 71 % 1013,6 hPa 0,0 l/m 6,0 km/h (2 Bft) W-SW 241 0 min 0,000 mm 1,0 UV-I 186 W/m 7,3 C 12,4 C 8,0 km/h (2 Bft) 100,00 %
06.04.2016 13:06 12,4 C 72 % 1013,5 hPa 0,0 l/m 9,3 km/h (2 Bft) W 271 0 min 0,000 mm 1,0 UV-I 198 W/m 7,5 C 10,6 C 12,9 km/h (3 Bft) 91,67 %
06.04.2016 13:07 12,5 C 71 % 1013,5 hPa 0,0 l/m 13,3 km/h (3 Bft) W 273 0 min 0,000 mm 1,1 UV-I 214 W/m 7,4 C 8,8 C 16,1 km/h (3 Bft) 100,00 %
06.04.2016 13:08 12,6 C 71 % 1013,5 hPa 0,0 l/m 11,7 km/h (2 Bft) SW 232 0 min 0,000 mm 1,1 UV-I 223 W/m 7,5 C 9,6 C 19,3 km/h (3 Bft) 96,30 %
06.04.2016 13:09 12,6 C 71 % 1013,5 hPa 0,0 l/m 12,3 km/h (3 Bft) W-SW 252 0 min 0,000 mm 1,1 UV-I 225 W/m 7,5 C 9,4 C 16,1 km/h (3 Bft) 96,15 %
06.04.2016 13:10 12,6 C 70 % 1013,5 hPa 0,0 l/m 14,8 km/h (3 Bft) W-SW 252 0 min 0,000 mm 1,1 UV-I 221 W/m 7,3 C 8,4 C 16,1 km/h (3 Bft) 93,33 %
06.04.2016 13:11 12,6 C 71 % 1013,5 hPa 0,0 l/m 14,3 km/h (3 Bft) W 264 0 min 0,000 mm 1,1 UV-I 220 W/m 7,5 C 8,6 C 17,7 km/h (3 Bft) 96,88 %
06.04.2016 13:12 12,5 C 70 % 1013,6 hPa 0,0 l/m 10,5 km/h (2 Bft) W-SW 247 0 min 0,000 mm 1,1 UV-I 228 W/m 7,2 C 10,1 C 16,1 km/h (3 Bft) 100,00 %
06.04.2016 13:13 12,6 C 71 % 1013,5 hPa 0,0 l/m 9,4 km/h (2 Bft) W 259 0 min 0,000 mm 1,2 UV-I 237 W/m 7,5 C 10,8 C 12,9 km/h (3 Bft) 96,15 %
06.04.2016 13:14 12,6 C 70 % 1013,5 hPa 0,0 l/m 11,1 km/h (2 Bft) W-NW 296 0 min 0,000 mm 1,2 UV-I 244 W/m 7,3 C 9,9 C 17,7 km/h (3 Bft) 100,00 %
06.04.2016 13:15 12,6 C 70 % 1013,6 hPa 0,0 l/m 15,2 km/h (3 Bft) SW 226 0 min 0,000 mm 1,3 UV-I 254 W/m 7,3 C 8,2 C 19,3 km/h (3 Bft) 91,30 %
06.04.2016 13:16 12,6 C 69 % 1013,5 hPa 0,0 l/m 16,4 km/h (3 Bft) W-SW 248 0 min 0,000 mm 1,3 UV-I 271 W/m 7,1 C 7,8 C 24,1 km/h (4 Bft) 100,00 %
06.04.2016 13:17 12,6 C 69 % 1013,5 hPa 0,0 l/m 15,4 km/h (3 Bft) W-SW 253 0 min 0,000 mm 1,3 UV-I 277 W/m 7,1 C 8,1 C 20,9 km/h (4 Bft) 96,15 %
06.04.2016 13:18 12,6 C 68 % 1013,5 hPa 0,0 l/m 11,0 km/h (2 Bft) W 259 0 min 0,000 mm 1,3 UV-I 270 W/m 6,9 C 10,0 C 14,5 km/h (3 Bft) 100,00 %
06.04.2016 13:19 12,6 C 69 % 1013,5 hPa 0,0 l/m 8,1 km/h (2 Bft) W 281 0 min 0,000 mm 1,3 UV-I 267 W/m 7,1 C 11,5 C 11,3 km/h (2 Bft) 96,15 %
06.04.2016 13:20 12,7 C 68 % 1013,5 hPa 0,0 l/m 12,1 km/h (2 Bft) W-SW 258 0 min 0,000 mm 1,3 UV-I 270 W/m 6,9 C 9,6 C 16,1 km/h (3 Bft) 96,30 %
06.04.2016 13:21 12,7 C 68 % 1013,5 hPa 0,0 l/m 14,6 km/h (3 Bft) SW 236 0 min 0,000 mm 1,3 UV-I 271 W/m 6,9 C 8,6 C 20,9 km/h (4 Bft) 95,65 %
06.04.2016 13:22 12,7 C 69 % 1013,5 hPa 0,0 l/m 12,3 km/h (3 Bft) W 265 0 min 0,000 mm 1,3 UV-I 275 W/m 7,2 C 9,5 C 14,5 km/h (3 Bft) 93,33 %
06.04.2016 13:23 12,7 C 68 % 1013,5 hPa 0,0 l/m 13,2 km/h (3 Bft) W-SW 238 0 min 0,000 mm 1,4 UV-I 289 W/m 6,9 C 9,1 C 16,1 km/h (3 Bft) 100,00 %
06.04.2016 13:24 12,7 C 69 % 1013,5 hPa 0,0 l/m 10,9 km/h (2 Bft) W-SW 247 0 min 0,000 mm 1,5 UV-I 299 W/m 7,2 C 10,1 C 12,9 km/h (3 Bft) 94,44 %
06.04.2016 13:25 12,7 C 68 % 1013,5 hPa 0,0 l/m 9,7 km/h (2 Bft) W 261 0 min 0,000 mm 1,5 UV-I 296 W/m 6,9 C 10,7 C 12,9 km/h (3 Bft) 100,00 %
06.04.2016 13:26 12,7 C 68 % 1013,5 hPa 0,0 l/m 12,8 km/h (3 Bft) W 262 0 min 0,000 mm 1,6 UV-I 296 W/m 6,9 C 9,3 C 19,3 km/h (3 Bft) 95,65 %
06.04.2016 13:27 12,7 C 69 % 1013,5 hPa 0,0 l/m 10,6 km/h (2 Bft) SW 225 0 min 0,000 mm 1,7 UV-I 317 W/m 7,2 C 10,3 C 14,5 km/h (3 Bft) 100,00 %
06.04.2016 13:28 12,7 C 68 % 1013,5 hPa 0,0 l/m 8,0 km/h (2 Bft) S-SW 205 0 min 0,000 mm 1,8 UV-I 344 W/m 6,9 C 11,7 C 11,3 km/h (2 Bft) 90,91 %
06.04.2016 13:29 12,7 C 69 % 1013,4 hPa 0,0 l/m 12,3 km/h (3 Bft) W 273 0 min 0,000 mm 1,9 UV-I 355 W/m 7,2 C 9,5 C 16,1 km/h (3 Bft) 96,30 %
06.04.2016 13:30 12,8 C 69 % 1013,4 hPa 0,0 l/m 8,2 km/h (2 Bft) W-SW 246 0 min 0,000 mm 1,9 UV-I 369 W/m 7,3 C 11,7 C 12,9 km/h (3 Bft) 97,14 %
06.04.2016 13:31 12,8 C 68 % 1013,4 hPa 0,0 l/m 11,4 km/h (2 Bft) W-SW 250 0 min 0,000 mm 1,8 UV-I 355 W/m 7,0 C 10,0 C 14,5 km/h (3 Bft) 100,00 %
06.04.2016 13:32 12,9 C 69 % 1013,4 hPa 0,0 l/m 13,5 km/h (3 Bft) W 261 0 min 0,000 mm 1,8 UV-I 365 W/m 7,4 C 9,2 C 19,3 km/h (3 Bft) 100,00 %
06.04.2016 13:33 13,0 C 68 % 1013,4 hPa 0,0 l/m 10,3 km/h (2 Bft) SW 225 0 min 0,000 mm 2,0 UV-I 403 W/m 7,2 C 10,8 C 17,7 km/h (3 Bft) 100,00 %
06.04.2016 13:34 13,0 C 69 % 1013,4 hPa 0,0 l/m 8,0 km/h (2 Bft) SW 218 1 min 0,000 mm 2,0 UV-I 415 W/m 7,4 C 12,0 C 12,9 km/h (3 Bft) 100,00 %
06.04.2016 13:35 13,1 C 69 % 1013,4 hPa 0,0 l/m 10,8 km/h (2 Bft) S-SW 209 1 min 0,000 mm 2,0 UV-I 426 W/m 7,5 C 10,6 C 17,7 km/h (3 Bft) 100,00 %
06.04.2016 13:36 13,1 C 69 % 1013,4 hPa 0,0 l/m 10,8 km/h (2 Bft) W 263 1 min 0,000 mm 2,0 UV-I 433 W/m 7,5 C 10,6 C 16,1 km/h (3 Bft) 96,15 %
06.04.2016 13:37 13,1 C 68 % 1013,4 hPa 0,0 l/m 8,4 km/h (2 Bft) W-SW 251 1 min 0,000 mm 2,2 UV-I 471 W/m 7,3 C 11,9 C 14,5 km/h (3 Bft) 100,00 %
06.04.2016 13:38 13,2 C 69 % 1013,3 hPa 0,0 l/m 6,2 km/h (2 Bft) SW 235 1 min 0,000 mm 2,2 UV-I 453 W/m 7,6 C 13,2 C 11,3 km/h (2 Bft) 95,65 %
06.04.2016 13:39 13,3 C 68 % 1013,4 hPa 0,0 l/m 11,3 km/h (2 Bft) SW 222 1 min 0,000 mm 2,2 UV-I 475 W/m 7,5 C 10,6 C 14,5 km/h (3 Bft) 100,00 %
06.04.2016 13:40 13,3 C 68 % 1013,4 hPa 0,0 l/m 10,3 km/h (2 Bft) SW 233 1 min 0,000 mm 2,5 UV-I 550 W/m 7,5 C 11,1 C 16,1 km/h (3 Bft) 100,00 %
06.04.2016 13:41 13,4 C 68 % 1013,4 hPa 0,0 l/m 8,7 km/h (2 Bft) W-SW 257 1 min 0,000 mm 2,4 UV-I 508 W/m 7,6 C 12,0 C 14,5 km/h (3 Bft) 100,00 %
06.04.2016 13:42 13,4 C 68 % 1013,3 hPa 0,0 l/m 12,2 km/h (2 Bft) W-SW 257 1 min 0,000 mm 2,5 UV-I 515 W/m 7,6 C 10,3 C 14,5 km/h (3 Bft) 98,64 %
06.04.2016 13:43 13,6 C 69 % 1013,4 hPa 0,0 l/m 4,7 km/h (1 Bft) W 267 1 min 0,000 mm 2,4 UV-I 491 W/m 8,0 C 13,6 C 8,0 km/h (2 Bft) 100,00 %
06.04.2016 13:44 13,6 C 68 % 1013,4 hPa 0,0 l/m 3,7 km/h (1 Bft) W-SW 253 1 min 0,000 mm 2,2 UV-I 440 W/m 7,8 C 13,6 C 6,4 km/h (2 Bft) 100,00 %
06.04.2016 13:45 13,6 C 67 % 1013,3 hPa 0,0 l/m 5,2 km/h (1 Bft) S 189 0 min 0,000 mm 2,1 UV-I 394 W/m 7,6 C 13,6 C 6,4 km/h (2 Bft) 100,00 %
06.04.2016 13:46 13,6 C 67 % 1013,3 hPa 0,0 l/m 5,1 km/h (1 Bft) SW 216 0 min 0,000 mm 2,0 UV-I 368 W/m 7,6 C 13,6 C 6,4 km/h (2 Bft) 100,00 %
06.04.2016 13:47 13,6 C 68 % 1013,3 hPa 0,0 l/m 6,7 km/h (2 Bft) W 265 0 min 0,000 mm 1,9 UV-I 360 W/m 7,8 C 13,4 C 12,9 km/h (3 Bft) 100,00 %
06.04.2016 13:48 13,6 C 68 % 1013,3 hPa 0,0 l/m 6,8 km/h (2 Bft) W-NW 300 0 min 0,000 mm 1,9 UV-I 374 W/m 7,8 C 13,4 C 12,9 km/h (3 Bft) 100,00 %
06.04.2016 13:49 13,6 C 68 % 1013,3 hPa 0,0 l/m 3,0 km/h (1 Bft) W 274 0 min 0,000 mm 1,9 UV-I 380 W/m 7,8 C 13,6 C 3,2 km/h (1 Bft) 100,00 %
06.04.2016 13:50 13,6 C 67 % 1013,4 hPa 0,0 l/m 10,6 km/h (2 Bft) W-SW 252 0 min 0,000 mm 1,9 UV-I 380 W/m 7,6 C 11,3 C 20,9 km/h (4 Bft) 100,00 %
06.04.2016 13:51 13,6 C 66 % 1013,3 hPa 0,0 l/m 14,1 km/h (3 Bft) W 271 0 min 0,000 mm 1,9 UV-I 384 W/m 7,4 C 9,8 C 20,9 km/h (4 Bft) 100,00 %
06.04.2016 13:52 13,6 C 67 % 1013,3 hPa 0,0 l/m 14,5 km/h (3 Bft) W 281 1 min 0,000 mm 1,9 UV-I 406 W/m 7,6 C 9,7 C 25,7 km/h (4 Bft) 100,00 %
06.04.2016 13:53 13,6 C 66 % 1013,3 hPa 0,0 l/m 11,5 km/h (2 Bft) W 274 1 min 0,000 mm 2,1 UV-I 483 W/m 7,4 C 10,9 C 16,1 km/h (3 Bft) 100,00 %
06.04.2016 13:54 13,6 C 66 % 1013,3 hPa 0,0 l/m 9,4 km/h (2 Bft) W-NW 286 1 min 0,000 mm 1,9 UV-I 421 W/m 7,4 C 11,9 C 14,5 km/h (3 Bft) 100,00 %
06.04.2016 13:55 13,6 C 66 % 1013,3 hPa 0,0 l/m 5,6 km/h (1 Bft) W 264 0 min 0,000 mm 1,7 UV-I 326 W/m 7,4 C 13,6 C 12,9 km/h (3 Bft) 100,00 %
06.04.2016 13:56 13,6 C 66 % 1013,3 hPa 0,0 l/m 6,9 km/h (2 Bft) W-SW 245 0 min 0,000 mm 1,6 UV-I 305 W/m 7,4 C 13,3 C 12,9 km/h (3 Bft) 100,00 %
06.04.2016 13:57 13,6 C 66 % 1013,3 hPa 0,0 l/m 15,2 km/h (3 Bft) W-SW 245 0 min 0,000 mm 1,5 UV-I 285 W/m 7,4 C 9,4 C 17,7 km/h (3 Bft) 100,00 %
06.04.2016 13:58 13,5 C 66 % 1013,2 hPa 0,0 l/m 7,8 km/h (2 Bft) W-NW 282 0 min 0,000 mm 1,4 UV-I 273 W/m 7,3 C 12,6 C 16,1 km/h (3 Bft) 91,67 %
06.04.2016 13:59 13,5 C 67 % 1013,2 hPa 0,0 l/m 3,4 km/h (1 Bft) SW 234 0 min 0,000 mm 1,4 UV-I 270 W/m 7,5 C 13,5 C 9,7 km/h (2 Bft) 100,00 %
06.04.2016 14:00 13,5 C 67 % 1013,2 hPa 0,0 l/m 8,1 km/h (2 Bft) SW 221 0 min 0,000 mm 1,4 UV-I 278 W/m 7,5 C 12,5 C 11,3 km/h (2 Bft) 100,00 %
06.04.2016 14:01 13,5 C 67 % 1013,3 hPa 0,0 l/m 10,4 km/h (2 Bft) S-SW 208 0 min 0,203 mm 1,4 UV-I 291 W/m 7,5 C 11,3 C 14,5 km/h (3 Bft) 100,00 %
06.04.2016 14:02 13,4 C 67 % 1013,3 hPa 0,0 l/m 6,8 km/h (2 Bft) SW 230 0 min 0,000 mm 1,6 UV-I 313 W/m 7,4 C 13,2 C 9,7 km/h (2 Bft) 100,00 %
06.04.2016 14:03 13,4 C 68 % 1013,3 hPa 0,0 l/m 9,3 km/h (2 Bft) SW 234 0 min 0,000 mm 1,6 UV-I 320 W/m 7,6 C 11,7 C 14,5 km/h (3 Bft) 98,68 %
06.04.2016 14:04 13,3 C 68 % 1013,3 hPa 0,0 l/m 8,7 km/h (2 Bft) W-SW 243 0 min 0,000 mm 1,5 UV-I 316 W/m 7,5 C 11,9 C 11,3 km/h (2 Bft) 100,00 %
06.04.2016 14:05 13,3 C 69 % 1013,3 hPa 0,0 l/m 7,6 km/h (2 Bft) W-SW 249 0 min 0,000 mm 1,5 UV-I 317 W/m 7,7 C 12,6 C 11,3 km/h (2 Bft) 100,00 %
06.04.2016 14:06 13,3 C 68 % 1013,3 hPa 0,0 l/m 6,7 km/h (2 Bft) W-SW 245 0 min 0,000 mm 1,4 UV-I 288 W/m 7,5 C 13,1 C 11,3 km/h (2 Bft) 100,00 %
06.04.2016 14:07 13,3 C 69 % 1013,3 hPa 0,0 l/m 5,5 km/h (1 Bft) W 277 0 min 0,000 mm 1,2 UV-I 242 W/m 7,7 C 13,3 C 11,3 km/h (2 Bft) 100,00 %
06.04.2016 14:08 13,4 C 68 % 1013,3 hPa 0,0 l/m 6,0 km/h (2 Bft) W-NW 295 0 min 0,000 mm 1,0 UV-I 202 W/m 7,6 C 13,4 C 9,7 km/h (2 Bft) 100,00 %
06.04.2016 14:09 13,4 C 68 % 1013,3 hPa 0,0 l/m 6,5 km/h (2 Bft) W-SW 251 0 min 0,000 mm 0,8 UV-I 170 W/m 7,6 C 13,4 C 11,3 km/h (2 Bft) 100,00 %
06.04.2016 14:10 13,4 C 67 % 1013,3 hPa 0,0 l/m 5,2 km/h (1 Bft) W-SW 257 0 min 0,000 mm 0,7 UV-I 140 W/m 7,4 C 13,4 C 9,7 km/h (2 Bft) 100,00 %
06.04.2016 14:11 13,4 C 68 % 1013,3 hPa 0,0 l/m 6,7 km/h (2 Bft) SW 220 0 min 0,000 mm 0,6 UV-I 117 W/m 7,6 C 13,2 C 12,9 km/h (3 Bft) 100,00 %
06.04.2016 14:12 13,3 C 67 % 1013,3 hPa 0,0 l/m 4,4 km/h (1 Bft) W-SW 256 0 min 0,000 mm 0,5 UV-I 105 W/m 7,3 C 13,3 C 9,7 km/h (2 Bft) 100,00 %
06.04.2016 14:13 13,3 C 68 % 1013,2 hPa 0,0 l/m 1,7 km/h (1 Bft) W-NW 287 0 min 0,000 mm 0,1 UV-I 98 W/m 7,5 C 13,3 C 6,4 km/h (2 Bft) 100,00 %
06.04.2016 14:14 13,2 C 67 % 1013,2 hPa 0,0 l/m 6,0 km/h (2 Bft) W-SW 248 0 min 0,000 mm 0,0 UV-I 93 W/m 7,2 C 13,2 C 11,3 km/h (2 Bft) 100,00 %
06.04.2016 14:15 13,2 C 68 % 1013,2 hPa 0,0 l/m 10,0 km/h (2 Bft) W-SW 247 0 min 0,000 mm 0,0 UV-I 90 W/m 7,4 C 11,1 C 14,5 km/h (3 Bft) 100,00 %
06.04.2016 14:16 13,1 C 68 % 1013,2 hPa 0,0 l/m 10,6 km/h (2 Bft) W-NW 288 0 min 0,000 mm 0,0 UV-I 90 W/m 7,3 C 10,7 C 14,5 km/h (3 Bft) 100,00 %
06.04.2016 14:17 13,1 C 69 % 1013,2 hPa 0,0 l/m 7,0 km/h (2 Bft) W-SW 254 0 min 0,000 mm 0,0 UV-I 90 W/m 7,5 C 12,7 C 11,3 km/h (2 Bft) 100,00 %
06.04.2016 14:18 13,1 C 69 % 1013,2 hPa 0,0 l/m 9,0 km/h (2 Bft) W 269 0 min 0,000 mm 0,0 UV-I 91 W/m 7,5 C 11,5 C 11,3 km/h (2 Bft) 100,00 %
06.04.2016 14:19 13,1 C 69 % 1013,2 hPa 0,0 l/m 8,3 km/h (2 Bft) W 269 0 min 0,000 mm 0,0 UV-I 91 W/m 7,5 C 11,9 C 11,3 km/h (2 Bft) 100,00 %
06.04.2016 14:20 13,0 C 69 % 1013,2 hPa 0,0 l/m 6,1 km/h (2 Bft) W 273 0 min 0,000 mm 0,0 UV-I 95 W/m 7,4 C 13,0 C 9,7 km/h (2 Bft) 91,30 %
06.04.2016 14:21 13,0 C 69 % 1013,2 hPa 0,0 l/m 6,7 km/h (2 Bft) W-SW 254 0 min 0,000 mm 0,0 UV-I 100 W/m 7,4 C 12,8 C 11,3 km/h (2 Bft) 100,00 %
06.04.2016 14:22 12,9 C 68 % 1013,2 hPa 0,0 l/m 4,3 km/h (1 Bft) W-NW 298 0 min 0,000 mm 0,1 UV-I 103 W/m 7,1 C 12,9 C 12,9 km/h (3 Bft) 100,00 %
06.04.2016 14:23 12,9 C 69 % 1013,2 hPa 0,0 l/m 8,1 km/h (2 Bft) W-SW 257 0 min 0,000 mm 0,5 UV-I 109 W/m 7,4 C 11,8 C 12,9 km/h (3 Bft) 100,00 %
06.04.2016 14:24 12,9 C 69 % 1013,1 hPa 0,0 l/m 6,3 km/h (2 Bft) W-SW 252 0 min 0,000 mm 0,5 UV-I 117 W/m 7,4 C 12,9 C 9,7 km/h (2 Bft) 100,00 %
06.04.2016 14:25 12,9 C 69 % 1013,2 hPa 0,0 l/m 7,0 km/h (2 Bft) W-SW 248 0 min 0,000 mm 0,6 UV-I 126 W/m 7,4 C 12,5 C 12,9 km/h (3 Bft) 100,00 %
06.04.2016 14:26 12,9 C 70 % 1013,1 hPa 0,0 l/m 8,2 km/h (2 Bft) SW 227 0 min 0,000 mm 0,6 UV-I 139 W/m 7,6 C 11,8 C 12,9 km/h (3 Bft) 100,00 %
06.04.2016 14:27 12,9 C 71 % 1013,2 hPa 0,0 l/m 10,7 km/h (2 Bft) W 263 0 min 0,000 mm 0,7 UV-I 150 W/m 7,8 C 10,5 C 14,5 km/h (3 Bft) 100,00 %
06.04.2016 14:28 12,9 C 70 % 1013,1 hPa 0,0 l/m 7,5 km/h (2 Bft) W-SW 239 0 min 0,000 mm 0,7 UV-I 168 W/m 7,6 C 12,2 C 11,3 km/h (2 Bft) 100,00 %
06.04.2016 14:29 12,8 C 69 % 1013,1 hPa 0,0 l/m 11,3 km/h (2 Bft) W-SW 253 0 min 0,000 mm 0,8 UV-I 186 W/m 7,3 C 10,1 C 16,1 km/h (3 Bft) 100,00 %
06.04.2016 14:30 12,8 C 69 % 1013,1 hPa 0,0 l/m 13,2 km/h (3 Bft) W-SW 255 0 min 0,000 mm 0,9 UV-I 202 W/m 7,3 C 9,2 C 17,7 km/h (3 Bft) 100,00 %
06.04.2016 14:31 12,8 C 70 % 1013,1 hPa 0,0 l/m 10,1 km/h (2 Bft) W-SW 257 0 min 0,000 mm 1,0 UV-I 219 W/m 7,5 C 10,6 C 14,5 km/h (3 Bft) 100,00 %
06.04.2016 14:32 12,8 C 69 % 1013,1 hPa 0,0 l/m 9,5 km/h (2 Bft) W-SW 244 0 min 0,000 mm 1,1 UV-I 242 W/m 7,3 C 10,9 C 12,9 km/h (3 Bft) 100,00 %
06.04.2016 14:33 12,9 C 69 % 1013,0 hPa 0,0 l/m 10,3 km/h (2 Bft) SW 217 0 min 0,000 mm 1,2 UV-I 260 W/m 7,4 C 10,6 C 14,5 km/h (3 Bft) 100,00 %
06.04.2016 14:34 12,9 C 70 % 1013,0 hPa 0,0 l/m 12,3 km/h (3 Bft) W 259 0 min 0,000 mm 1,2 UV-I 267 W/m 7,6 C 9,7 C 14,5 km/h (3 Bft) 100,00 %
06.04.2016 14:35 12,9 C 69 % 1013,1 hPa 0,0 l/m 8,4 km/h (2 Bft) W 281 0 min 0,000 mm 1,3 UV-I 276 W/m 7,4 C 11,7 C 11,3 km/h (2 Bft) 100,00 %
06.04.2016 14:36 12,9 C 69 % 1013,0 hPa 0,0 l/m 4,7 km/h (1 Bft) W-SW 245 0 min 0,000 mm 1,3 UV-I 285 W/m 7,4 C 12,9 C 9,7 km/h (2 Bft) 100,00 %
06.04.2016 14:37 13,1 C 70 % 1013,1 hPa 0,0 l/m 11,7 km/h (2 Bft) W 260 0 min 0,000 mm 1,4 UV-I 293 W/m 7,8 C 10,2 C 17,7 km/h (3 Bft) 100,00 %
06.04.2016 14:38 13,1 C 69 % 1013,0 hPa 0,0 l/m 12,4 km/h (3 Bft) W-SW 256 0 min 0,000 mm 1,4 UV-I 294 W/m 7,5 C 9,9 C 16,1 km/h (3 Bft) 100,00 %
06.04.2016 14:39 13,1 C 69 % 1013,0 hPa 0,0 l/m 9,0 km/h (2 Bft) S-SW 196 0 min 0,000 mm 1,4 UV-I 290 W/m 7,5 C 11,5 C 12,9 km/h (3 Bft) 100,00 %
06.04.2016 14:40 13,1 C 69 % 1013,0 hPa 0,0 l/m 9,9 km/h (2 Bft) SW 223 0 min 0,000 mm 1,3 UV-I 279 W/m 7,5 C 11,1 C 14,5 km/h (3 Bft) 100,00 %
06.04.2016 14:41 13,2 C 68 % 1013,0 hPa 0,0 l/m 12,1 km/h (2 Bft) W-SW 243 0 min 0,000 mm 1,2 UV-I 265 W/m 7,4 C 10,2 C 16,1 km/h (3 Bft) 98,74 %
06.04.2016 14:42 13,1 C 68 % 1013,0 hPa 0,0 l/m 7,3 km/h (2 Bft) W 263 0 min 0,000 mm 1,1 UV-I 247 W/m 7,3 C 12,5 C 12,9 km/h (3 Bft) 100,00 %
06.04.2016 14:43 13,2 C 69 % 1013,0 hPa 0,0 l/m 8,5 km/h (2 Bft) W-SW 248 0 min 0,000 mm 1,1 UV-I 231 W/m 7,6 C 11,9 C 12,9 km/h (3 Bft) 100,00 %
06.04.2016 14:44 13,2 C 69 % 1013,0 hPa 0,0 l/m 7,6 km/h (2 Bft) W-SW 239 0 min 0,000 mm 1,0 UV-I 214 W/m 7,6 C 12,5 C 11,3 km/h (2 Bft) 93,33 %
06.04.2016 14:45 13,2 C 69 % 1013,0 hPa 0,0 l/m 6,2 km/h (2 Bft) W 275 0 min 0,000 mm 0,9 UV-I 206 W/m 7,6 C 13,2 C 9,7 km/h (2 Bft) 100,00 %
06.04.2016 14:46 13,2 C 69 % 1013,0 hPa 0,0 l/m 9,9 km/h (2 Bft) W-SW 248 0 min 0,000 mm 0,9 UV-I 203 W/m 7,6 C 11,2 C 14,5 km/h (3 Bft) 100,00 %
06.04.2016 14:47 13,2 C 69 % 1013,0 hPa 0,0 l/m 7,8 km/h (2 Bft) S-SW 201 0 min 0,000 mm 0,9 UV-I 200 W/m 7,6 C 12,3 C 12,9 km/h (3 Bft) 100,00 %
06.04.2016 14:48 13,1 C 68 % 1013,0 hPa 0,0 l/m 10,5 km/h (2 Bft) W-SW 249 0 min 0,000 mm 0,9 UV-I 197 W/m 7,3 C 10,8 C 14,5 km/h (3 Bft) 100,00 %
06.04.2016 14:49 13,1 C 69 % 1013,0 hPa 0,0 l/m 8,2 km/h (2 Bft) SW 228 0 min 0,000 mm 0,9 UV-I 197 W/m 7,5 C 12,0 C 12,9 km/h (3 Bft) 100,00 %
06.04.2016 14:50 13,1 C 69 % 1012,9 hPa 0,0 l/m 10,3 km/h (2 Bft) W 262 0 min 0,000 mm 0,9 UV-I 197 W/m 7,5 C 10,9 C 16,1 km/h (3 Bft) 100,00 %
06.04.2016 14:51 13,1 C 69 % 1012,9 hPa 0,0 l/m 11,8 km/h (2 Bft) W-SW 246 0 min 0,000 mm 0,9 UV-I 194 W/m 7,5 C 10,2 C 16,1 km/h (3 Bft) 100,00 %
06.04.2016 14:52 13,1 C 69 % 1012,9 hPa 0,0 l/m 11,1 km/h (2 Bft) W-SW 244 0 min 0,000 mm 0,9 UV-I 191 W/m 7,5 C 10,5 C 16,1 km/h (3 Bft) 100,00 %
06.04.2016 14:53 13,1 C 69 % 1012,9 hPa 0,0 l/m 10,5 km/h (2 Bft) SW 227 0 min 0,000 mm 0,8 UV-I 186 W/m 7,5 C 10,8 C 14,5 km/h (3 Bft) 96,30 %
06.04.2016 14:54 13,1 C 69 % 1012,9 hPa 0,0 l/m 8,9 km/h (2 Bft) W-SW 237 0 min 0,000 mm 0,8 UV-I 182 W/m 7,5 C 11,6 C 12,9 km/h (3 Bft) 100,00 %
06.04.2016 14:55 13,0 C 69 % 1012,9 hPa 0,0 l/m 7,0 km/h (2 Bft) SW 226 0 min 0,000 mm 0,8 UV-I 178 W/m 7,4 C 12,6 C 11,3 km/h (2 Bft) 100,00 %
06.04.2016 14:56 12,9 C 70 % 1012,9 hPa 0,0 l/m 8,8 km/h (2 Bft) W-SW 252 0 min 0,000 mm 0,8 UV-I 176 W/m 7,6 C 11,4 C 12,9 km/h (3 Bft) 96,15 %
06.04.2016 14:57 13,0 C 69 % 1012,9 hPa 0,0 l/m 9,1 km/h (2 Bft) SW 217 0 min 0,000 mm 0,8 UV-I 181 W/m 7,4 C 11,4 C 14,5 km/h (3 Bft) 96,30 %
06.04.2016 14:58 13,0 C 69 % 1012,9 hPa 0,0 l/m 9,7 km/h (2 Bft) SW 222 0 min 0,000 mm 0,8 UV-I 193 W/m 7,4 C 11,1 C 14,5 km/h (3 Bft) 100,00 %
06.04.2016 14:59 13,0 C 70 % 1012,8 hPa 0,0 l/m 10,1 km/h (2 Bft) SW 220 0 min 0,000 mm 0,9 UV-I 210 W/m 7,7 C 10,9 C 14,5 km/h (3 Bft) 96,30 %
06.04.2016 15:00 13,0 C 69 % 1012,8 hPa 0,0 l/m 8,4 km/h (2 Bft) W-SW 251 0 min 0,000 mm 0,9 UV-I 232 W/m 7,4 C 11,8 C 11,3 km/h (2 Bft) 100,00 %
06.04.2016 15:01 13,0 C 69 % 1012,8 hPa 0,0 l/m 10,4 km/h (2 Bft) W-SW 249 0 min 0,127 mm 1,1 UV-I 260 W/m 7,4 C 10,7 C 16,1 km/h (3 Bft) 91,67 %
06.04.2016 15:02 13,0 C 69 % 1012,8 hPa 0,0 l/m 11,7 km/h (2 Bft) S-SW 207 0 min 0,000 mm 1,2 UV-I 281 W/m 7,4 C 10,1 C 17,7 km/h (3 Bft) 100,00 %
06.04.2016 15:03 13,0 C 69 % 1012,8 hPa 0,0 l/m 8,9 km/h (2 Bft) W-SW 257 0 min 0,000 mm 1,2 UV-I 289 W/m 7,4 C 11,5 C 14,5 km/h (3 Bft) 95,65 %
06.04.2016 15:04 13,1 C 68 % 1012,8 hPa 0,0 l/m 10,3 km/h (2 Bft) W-SW 253 0 min 0,000 mm 1,3 UV-I 309 W/m 7,3 C 10,9 C 12,9 km/h (3 Bft) 95,83 %
06.04.2016 15:05 13,1 C 69 % 1012,7 hPa 0,0 l/m 7,6 km/h (2 Bft) W 259 0 min 0,000 mm 1,4 UV-I 330 W/m 7,5 C 12,3 C 11,3 km/h (2 Bft) 100,00 %
06.04.2016 15:06 13,2 C 69 % 1012,8 hPa 0,0 l/m 6,4 km/h (2 Bft) W 269 0 min 0,000 mm 1,4 UV-I 350 W/m 7,6 C 13,2 C 9,7 km/h (2 Bft) 95,83 %
06.04.2016 15:07 13,2 C 68 % 1012,8 hPa 0,0 l/m 10,4 km/h (2 Bft) W-SW 248 0 min 0,000 mm 1,4 UV-I 355 W/m 7,4 C 10,9 C 14,5 km/h (3 Bft) 95,65 %
06.04.2016 15:08 13,3 C 67 % 1012,8 hPa 0,0 l/m 9,4 km/h (2 Bft) W 259 0 min 0,000 mm 1,4 UV-I 338 W/m 7,3 C 11,5 C 11,3 km/h (2 Bft) 95,83 %
06.04.2016 15:09 13,3 C 67 % 1012,8 hPa 0,0 l/m 5,8 km/h (2 Bft) W 270 0 min 0,000 mm 1,3 UV-I 302 W/m 7,3 C 13,3 C 9,7 km/h (2 Bft) 96,15 %
06.04.2016 15:10 13,3 C 67 % 1012,8 hPa 0,0 l/m 9,5 km/h (2 Bft) W-SW 252 0 min 0,000 mm 1,3 UV-I 274 W/m 7,3 C 11,5 C 12,9 km/h (3 Bft) 91,67 %
06.04.2016 15:11 13,3 C 68 % 1012,8 hPa 0,0 l/m 3,4 km/h (1 Bft) W-SW 247 0 min 0,000 mm 1,1 UV-I 246 W/m 7,5 C 13,3 C 6,4 km/h (2 Bft) 96,67 %
06.04.2016 15:12 13,3 C 67 % 1012,7 hPa 0,0 l/m 6,0 km/h (2 Bft) W-SW 246 0 min 0,000 mm 1,1 UV-I 228 W/m 7,3 C 13,3 C 9,7 km/h (2 Bft) 96,30 %
06.04.2016 15:13 13,4 C 67 % 1012,7 hPa 0,0 l/m 5,0 km/h (1 Bft) W-SW 250 0 min 0,000 mm 1,0 UV-I 207 W/m 7,4 C 13,4 C 6,4 km/h (2 Bft) 94,12 %
06.04.2016 15:14 13,3 C 68 % 1012,7 hPa 0,0 l/m 5,9 km/h (2 Bft) W-SW 240 0 min 0,000 mm 1,0 UV-I 199 W/m 7,5 C 13,3 C 9,7 km/h (2 Bft) 100,00 %
06.04.2016 15:15 13,3 C 68 % 1012,7 hPa 0,0 l/m 11,9 km/h (2 Bft) W-SW 251 0 min 0,000 mm 0,9 UV-I 198 W/m 7,5 C 10,4 C 17,7 km/h (3 Bft) 95,65 %
06.04.2016 15:16 13,3 C 67 % 1012,7 hPa 0,0 l/m 12,9 km/h (3 Bft) W 270 0 min 0,000 mm 0,9 UV-I 200 W/m 7,3 C 9,9 C 16,1 km/h (3 Bft) 100,00 %
06.04.2016 15:17 13,3 C 67 % 1012,7 hPa 0,0 l/m 7,5 km/h (2 Bft) W-SW 249 0 min 0,000 mm 0,9 UV-I 202 W/m 7,3 C 12,6 C 11,3 km/h (2 Bft) 96,15 %
06.04.2016 15:18 13,3 C 67 % 1012,7 hPa 0,0 l/m 9,1 km/h (2 Bft) W 264 0 min 0,000 mm 0,9 UV-I 204 W/m 7,3 C 11,7 C 11,3 km/h (2 Bft) 100,00 %
06.04.2016 15:19 13,3 C 67 % 1012,7 hPa 0,0 l/m 6,0 km/h (2 Bft) W 279 0 min 0,000 mm 0,9 UV-I 204 W/m 7,3 C 13,3 C 9,7 km/h (2 Bft) 95,65 %
06.04.2016 15:20 13,3 C 67 % 1012,7 hPa 0,0 l/m 5,9 km/h (2 Bft) W-SW 242 0 min 0,000 mm 0,9 UV-I 200 W/m 7,3 C 13,3 C 8,0 km/h (2 Bft) 100,00 %
06.04.2016 15:21 13,3 C 67 % 1012,7 hPa 0,0 l/m 4,2 km/h (1 Bft) SW 220 0 min 0,000 mm 0,8 UV-I 194 W/m 7,3 C 13,3 C 8,0 km/h (2 Bft) 95,65 %
06.04.2016 15:22 13,3 C 67 % 1012,7 hPa 0,0 l/m 5,4 km/h (1 Bft) W 263 0 min 0,000 mm 0,8 UV-I 178 W/m 7,3 C 13,3 C 8,0 km/h (2 Bft) 95,83 %
06.04.2016 15:23 13,2 C 69 % 1012,7 hPa 0,0 l/m 4,7 km/h (1 Bft) SW 223 0 min 0,000 mm 0,7 UV-I 163 W/m 7,6 C 13,2 C 8,0 km/h (2 Bft) 100,00 %
06.04.2016 15:24 13,2 C 69 % 1012,7 hPa 0,0 l/m 6,5 km/h (2 Bft) W 273 0 min 0,000 mm 0,7 UV-I 156 W/m 7,6 C 13,2 C 8,0 km/h (2 Bft) 95,65 %
06.04.2016 15:25 13,3 C 68 % 1012,7 hPa 0,0 l/m 7,9 km/h (2 Bft) W-SW 254 0 min 0,000 mm 0,6 UV-I 151 W/m 7,5 C 12,4 C 12,9 km/h (3 Bft) 100,00 %
06.04.2016 15:26 13,2 C 67 % 1012,7 hPa 0,0 l/m 11,2 km/h (2 Bft) W-SW 251 0 min 0,000 mm 0,6 UV-I 149 W/m 7,2 C 10,6 C 14,5 km/h (3 Bft) 96,15 %
06.04.2016 15:27 13,2 C 67 % 1012,7 hPa 0,0 l/m 5,9 km/h (2 Bft) W-SW 240 0 min 0,000 mm 0,6 UV-I 154 W/m 7,2 C 13,2 C 8,0 km/h (2 Bft) 100,00 %
06.04.2016 15:28 13,2 C 68 % 1012,7 hPa 0,0 l/m 8,9 km/h (2 Bft) W-SW 256 0 min 0,000 mm 0,6 UV-I 164 W/m 7,4 C 11,7 C 14,5 km/h (3 Bft) 100,00 %
06.04.2016 15:29 13,2 C 67 % 1012,7 hPa 0,0 l/m 13,4 km/h (3 Bft) W 275 0 min 0,000 mm 0,6 UV-I 178 W/m 7,2 C 9,6 C 16,1 km/h (3 Bft) 100,00 %
06.04.2016 15:30 13,2 C 67 % 1012,6 hPa 0,0 l/m 12,9 km/h (3 Bft) W 261 0 min 0,000 mm 0,7 UV-I 194 W/m 7,2 C 9,8 C 16,1 km/h (3 Bft) 100,00 %
06.04.2016 15:31 13,2 C 68 % 1012,6 hPa 0,0 l/m 12,6 km/h (3 Bft) W 267 0 min 0,000 mm 0,8 UV-I 209 W/m 7,4 C 9,9 C 16,1 km/h (3 Bft) 100,00 %
06.04.2016 15:32 13,2 C 69 % 1012,6 hPa 0,0 l/m 10,2 km/h (2 Bft) SW 215 0 min 0,000 mm 0,8 UV-I 224 W/m 7,6 C 11,0 C 12,9 km/h (3 Bft) 100,00 %
06.04.2016 15:33 13,2 C 68 % 1012,6 hPa 0,0 l/m 9,3 km/h (2 Bft) W-SW 249 0 min 0,000 mm 0,9 UV-I 233 W/m 7,4 C 11,5 C 12,9 km/h (3 Bft) 100,00 %
06.04.2016 15:34 13,2 C 69 % 1012,6 hPa 0,0 l/m 7,2 km/h (2 Bft) W-SW 256 0 min 0,000 mm 0,9 UV-I 234 W/m 7,6 C 12,7 C 11,3 km/h (2 Bft) 100,00 %
06.04.2016 15:35 13,2 C 69 % 1012,6 hPa 0,0 l/m 5,8 km/h (2 Bft) W-SW 248 0 min 0,000 mm 0,9 UV-I 228 W/m 7,6 C 13,2 C 8,0 km/h (2 Bft) 95,83 %
06.04.2016 15:36 13,2 C 69 % 1012,6 hPa 0,0 l/m 3,7 km/h (1 Bft) W-NW 291 0 min 0,000 mm 0,9 UV-I 219 W/m 7,6 C 13,2 C 6,4 km/h (2 Bft) 100,00 %
06.04.2016 15:37 13,3 C 70 % 1012,6 hPa 0,0 l/m 4,4 km/h (1 Bft) W-NW 294 0 min 0,000 mm 0,9 UV-I 212 W/m 7,9 C 13,3 C 8,0 km/h (2 Bft) 100,00 %
06.04.2016 15:38 13,3 C 69 % 1012,6 hPa 0,0 l/m 4,0 km/h (1 Bft) NW 323 0 min 0,000 mm 0,9 UV-I 212 W/m 7,7 C 13,3 C 6,4 km/h (2 Bft) 100,00 %
06.04.2016 15:39 13,3 C 67 % 1012,5 hPa 0,0 l/m 4,9 km/h (1 Bft) W-NW 286 0 min 0,000 mm 0,9 UV-I 220 W/m 7,3 C 13,3 C 9,7 km/h (2 Bft) 96,67 %
06.04.2016 15:40 13,3 C 67 % 1012,5 hPa 0,0 l/m 4,6 km/h (1 Bft) N-NW 331 0 min 0,000 mm 0,9 UV-I 230 W/m 7,3 C 13,3 C 8,0 km/h (2 Bft) 100,00 %
06.04.2016 15:41 13,3 C 69 % 1012,6 hPa 0,0 l/m 6,8 km/h (2 Bft) W 269 0 min 0,000 mm 0,9 UV-I 239 W/m 7,7 C 13,1 C 12,9 km/h (3 Bft) 96,30 %
06.04.2016 15:42 13,3 C 68 % 1012,6 hPa 0,0 l/m 6,8 km/h (2 Bft) W-NW 284 0 min 0,000 mm 0,9 UV-I 254 W/m 7,5 C 13,1 C 11,3 km/h (2 Bft) 98,69 %
06.04.2016 15:43 13,3 C 68 % 1012,5 hPa 0,0 l/m 5,3 km/h (1 Bft) W-SW 240 0 min 0,000 mm 1,0 UV-I 274 W/m 7,5 C 13,3 C 8,0 km/h (2 Bft) 100,00 %
06.04.2016 15:44 13,3 C 68 % 1012,5 hPa 0,0 l/m 6,7 km/h (2 Bft) SW 214 0 min 0,000 mm 1,0 UV-I 295 W/m 7,5 C 13,1 C 9,7 km/h (2 Bft) 100,00 %
06.04.2016 15:45 13,4 C 68 % 1012,5 hPa 0,0 l/m 4,4 km/h (1 Bft) SW 234 0 min 0,000 mm 1,1 UV-I 312 W/m 7,6 C 13,4 C 6,4 km/h (2 Bft) 100,00 %
06.04.2016 15:46 13,4 C 70 % 1012,5 hPa 0,0 l/m 3,9 km/h (1 Bft) W-SW 255 1 min 0,000 mm 1,2 UV-I 343 W/m 8,0 C 13,4 C 6,4 km/h (2 Bft) 100,00 %
06.04.2016 15:47 13,6 C 69 % 1012,5 hPa 0,0 l/m 5,7 km/h (1 Bft) SW 228 1 min 0,000 mm 1,3 UV-I 424 W/m 8,0 C 13,6 C 8,0 km/h (2 Bft) 100,00 %
06.04.2016 15:48 13,7 C 70 % 1012,5 hPa 0,0 l/m 6,7 km/h (2 Bft) W 262 1 min 0,000 mm 1,5 UV-I 430 W/m 8,3 C 13,5 C 11,3 km/h (2 Bft) 100,00 %
06.04.2016 15:49 13,8 C 68 % 1012,5 hPa 0,0 l/m 4,2 km/h (1 Bft) W-NW 291 1 min 0,000 mm 1,3 UV-I 361 W/m 8,0 C 13,8 C 9,7 km/h (2 Bft) 100,00 %
06.04.2016 15:50 13,8 C 67 % 1012,5 hPa 0,0 l/m 6,2 km/h (2 Bft) W 261 0 min 0,000 mm 1,3 UV-I 315 W/m 7,8 C 13,8 C 12,9 km/h (3 Bft) 100,00 %
06.04.2016 15:51 13,9 C 65 % 1012,5 hPa 0,0 l/m 6,5 km/h (2 Bft) W 263 0 min 0,000 mm 1,2 UV-I 285 W/m 7,4 C 13,9 C 9,7 km/h (2 Bft) 100,00 %
06.04.2016 15:52 13,8 C 66 % 1012,5 hPa 0,0 l/m 5,0 km/h (1 Bft) W-SW 258 0 min 0,000 mm 1,1 UV-I 275 W/m 7,6 C 13,8 C 6,4 km/h (2 Bft) 100,00 %
06.04.2016 15:53 13,8 C 65 % 1012,4 hPa 0,0 l/m 4,5 km/h (1 Bft) W 269 0 min 0,000 mm 1,1 UV-I 266 W/m 7,3 C 13,8 C 9,7 km/h (2 Bft) 100,00 %
06.04.2016 15:54 13,8 C 66 % 1012,5 hPa 0,0 l/m 6,2 km/h (2 Bft) W 274 0 min 0,000 mm 1,3 UV-I 265 W/m 7,6 C 13,8 C 9,7 km/h (2 Bft) 100,00 %
06.04.2016 15:55 13,8 C 66 % 1012,5 hPa 0,0 l/m 2,5 km/h (1 Bft) W-NW 298 0 min 0,000 mm 0,9 UV-I 247 W/m 7,6 C 13,8 C 4,8 km/h (1 Bft) 100,00 %
06.04.2016 15:56 13,8 C 65 % 1012,4 hPa 0,0 l/m 1,4 km/h (1 Bft) W-NW 297 0 min 0,000 mm 0,8 UV-I 198 W/m 7,3 C 13,8 C 3,2 km/h (1 Bft) 100,00 %
06.04.2016 15:57 13,7 C 66 % 1012,5 hPa 0,0 l/m 1,0 km/h (0 Bft) W-NW 297 0 min 0,000 mm 0,8 UV-I 178 W/m 7,5 C 13,7 C 3,2 km/h (1 Bft) 100,00 %
06.04.2016 15:58 13,7 C 67 % 1012,4 hPa 0,0 l/m 3,3 km/h (1 Bft) S 177 0 min 0,000 mm 0,7 UV-I 166 W/m 7,7 C 13,7 C 6,4 km/h (2 Bft) 100,00 %
06.04.2016 15:59 13,7 C 67 % 1012,4 hPa 0,0 l/m 8,3 km/h (2 Bft) W-NW 288 0 min 0,000 mm 0,6 UV-I 147 W/m 7,7 C 12,6 C 12,9 km/h (3 Bft) 100,00 %
06.04.2016 16:00 13,7 C 67 % 1012,4 hPa 0,0 l/m 4,9 km/h (1 Bft) W 262 0 min 0,000 mm 0,6 UV-I 134 W/m 7,7 C 13,7 C 11,3 km/h (2 Bft) 100,00 %
06.04.2016 16:01 13,6 C 67 % 1012,4 hPa 0,0 l/m 6,6 km/h (2 Bft) W-SW 252 0 min 0,152 mm 0,5 UV-I 132 W/m 7,6 C 13,5 C 11,3 km/h (2 Bft) 100,00 %
06.04.2016 16:02 13,6 C 66 % 1012,4 hPa 0,0 l/m 5,8 km/h (2 Bft) W-SW 257 0 min 0,000 mm 0,5 UV-I 133 W/m 7,4 C 13,6 C 9,7 km/h (2 Bft) 100,00 %
06.04.2016 16:03 13,6 C 68 % 1012,4 hPa 0,0 l/m 3,0 km/h (1 Bft) W-SW 256 0 min 0,000 mm 0,5 UV-I 134 W/m 7,8 C 13,6 C 4,8 km/h (1 Bft) 100,00 %
06.04.2016 16:04 13,6 C 67 % 1012,4 hPa 0,0 l/m 2,7 km/h (1 Bft) W-SW 256 0 min 0,000 mm 0,5 UV-I 134 W/m 7,6 C 13,6 C 4,8 km/h (1 Bft) 100,00 %
06.04.2016 16:05 13,5 C 68 % 1012,4 hPa 0,0 l/m 3,2 km/h (1 Bft) W 275 0 min 0,000 mm 0,5 UV-I 132 W/m 7,7 C 13,5 C 6,4 km/h (2 Bft) 100,00 %
06.04.2016 16:06 13,5 C 67 % 1012,4 hPa 0,0 l/m 9,5 km/h (2 Bft) W 263 0 min 0,000 mm 0,5 UV-I 127 W/m 7,5 C 11,7 C 14,5 km/h (3 Bft) 96,15 %
06.04.2016 16:07 13,5 C 68 % 1012,4 hPa 0,0 l/m 5,8 km/h (2 Bft) SW 218 0 min 0,000 mm 0,0 UV-I 118 W/m 7,7 C 13,5 C 12,9 km/h (3 Bft) 100,00 %
06.04.2016 16:08 13,4 C 67 % 1012,4 hPa 0,0 l/m 9,6 km/h (2 Bft) W 267 0 min 0,000 mm 0,0 UV-I 107 W/m 7,4 C 11,6 C 16,1 km/h (3 Bft) 100,00 %
06.04.2016 16:09 13,4 C 67 % 1012,4 hPa 0,0 l/m 8,3 km/h (2 Bft) W 263 0 min 0,000 mm 0,0 UV-I 98 W/m 7,4 C 12,2 C 11,3 km/h (2 Bft) 100,00 %
06.04.2016 16:10 13,4 C 67 % 1012,4 hPa 0,0 l/m 3,2 km/h (1 Bft) W 273 0 min 0,000 mm 0,0 UV-I 91 W/m 7,4 C 13,4 C 6,4 km/h (2 Bft) 100,00 %
06.04.2016 16:11 13,3 C 67 % 1012,4 hPa 0,0 l/m 3,8 km/h (1 Bft) W-SW 248 0 min 0,000 mm 0,0 UV-I 91 W/m 7,3 C 13,3 C 4,8 km/h (1 Bft) 100,00 %
06.04.2016 16:12 13,4 C 68 % 1012,4 hPa 0,0 l/m 6,3 km/h (2 Bft) W-SW 248 0 min 0,000 mm 0,0 UV-I 94 W/m 7,6 C 13,4 C 9,7 km/h (2 Bft) 100,00 %
06.04.2016 16:13 13,3 C 67 % 1012,4 hPa 0,0 l/m 6,4 km/h (2 Bft) W-SW 250 0 min 0,000 mm 0,0 UV-I 98 W/m 7,3 C 13,3 C 9,7 km/h (2 Bft) 100,00 %
06.04.2016 16:14 13,3 C 67 % 1012,4 hPa 0,0 l/m 6,7 km/h (2 Bft) SW 229 0 min 0,000 mm 0,0 UV-I 104 W/m 7,3 C 13,1 C 8,0 km/h (2 Bft) 100,00 %
06.04.2016 16:15 13,3 C 67 % 1012,3 hPa 0,0 l/m 5,1 km/h (1 Bft) SW 220 0 min 0,000 mm 0,2 UV-I 111 W/m 7,3 C 13,3 C 6,4 km/h (2 Bft) 100,00 %
06.04.2016 16:16 13,3 C 68 % 1012,4 hPa 0,0 l/m 4,7 km/h (1 Bft) SW 228 0 min 0,000 mm 0,5 UV-I 122 W/m 7,5 C 13,3 C 6,4 km/h (2 Bft) 100,00 %
06.04.2016 16:17 13,3 C 68 % 1012,4 hPa 0,0 l/m 5,9 km/h (2 Bft) SW 233 0 min 0,000 mm 0,5 UV-I 136 W/m 7,5 C 13,3 C 9,7 km/h (2 Bft) 96,30 %
06.04.2016 16:18 13,3 C 68 % 1012,4 hPa 0,0 l/m 5,5 km/h (1 Bft) W-SW 247 0 min 0,000 mm 0,6 UV-I 148 W/m 7,5 C 13,3 C 9,7 km/h (2 Bft) 95,65 %
06.04.2016 16:19 13,3 C 69 % 1012,3 hPa 0,0 l/m 6,6 km/h (2 Bft) W-SW 238 0 min 0,000 mm 0,6 UV-I 159 W/m 7,7 C 13,2 C 9,7 km/h (2 Bft) 100,00 %
06.04.2016 16:20 13,3 C 69 % 1012,3 hPa 0,0 l/m 5,1 km/h (1 Bft) SW 225 0 min 0,000 mm 0,6 UV-I 170 W/m 7,7 C 13,3 C 8,0 km/h (2 Bft) 100,00 %
06.04.2016 16:21 13,3 C 68 % 1012,3 hPa 0,0 l/m 8,2 km/h (2 Bft) SW 232 0 min 0,000 mm 0,6 UV-I 179 W/m 7,5 C 12,2 C 12,9 km/h (3 Bft) 100,00 %
06.04.2016 16:22 13,3 C 67 % 1012,3 hPa 0,0 l/m 4,8 km/h (1 Bft) S-SW 200 0 min 0,000 mm 0,6 UV-I 177 W/m 7,3 C 13,3 C 8,0 km/h (2 Bft) 95,83 %
06.04.2016 16:23 13,3 C 67 % 1012,3 hPa 0,0 l/m 5,8 km/h (2 Bft) SW 217 0 min 0,000 mm 0,6 UV-I 172 W/m 7,3 C 13,3 C 9,7 km/h (2 Bft) 96,15 %
06.04.2016 16:24 13,3 C 67 % 1012,3 hPa 0,0 l/m 6,3 km/h (2 Bft) W-SW 237 0 min 0,000 mm 0,6 UV-I 171 W/m 7,3 C 13,3 C 8,0 km/h (2 Bft) 96,15 %
06.04.2016 16:25 13,3 C 67 % 1012,3 hPa 0,0 l/m 6,9 km/h (2 Bft) SW 236 0 min 0,000 mm 0,6 UV-I 175 W/m 7,3 C 13,0 C 9,7 km/h (2 Bft) 100,00 %
06.04.2016 16:26 13,3 C 68 % 1012,3 hPa 0,0 l/m 5,3 km/h (1 Bft) W-SW 250 0 min 0,000 mm 0,6 UV-I 186 W/m 7,5 C 13,3 C 8,0 km/h (2 Bft) 100,00 %
06.04.2016 16:27 13,3 C 68 % 1012,3 hPa 0,0 l/m 4,3 km/h (1 Bft) W-SW 245 0 min 0,000 mm 0,6 UV-I 201 W/m 7,5 C 13,3 C 6,4 km/h (2 Bft) 100,00 %
06.04.2016 16:28 13,4 C 68 % 1012,3 hPa 0,0 l/m 4,5 km/h (1 Bft) S 183 0 min 0,000 mm 0,7 UV-I 232 W/m 7,6 C 13,4 C 6,4 km/h (2 Bft) 100,00 %
06.04.2016 16:29 13,4 C 67 % 1012,3 hPa 0,0 l/m 7,1 km/h (2 Bft) SW 235 1 min 0,000 mm 0,8 UV-I 287 W/m 7,4 C 13,0 C 14,5 km/h (3 Bft) 100,00 %
06.04.2016 16:30 13,4 C 67 % 1012,2 hPa 0,0 l/m 7,1 km/h (2 Bft) W-SW 243 1 min 0,000 mm 1,1 UV-I 299 W/m 7,4 C 13,0 C 9,7 km/h (2 Bft) 100,00 %
06.04.2016 16:31 13,6 C 68 % 1012,2 hPa 0,0 l/m 5,7 km/h (1 Bft) W 263 1 min 0,000 mm 1,0 UV-I 408 W/m 7,8 C 13,6 C 9,7 km/h (2 Bft) 100,00 %
06.04.2016 16:32 13,7 C 67 % 1012,2 hPa 0,0 l/m 8,4 km/h (2 Bft) W 270 1 min 0,000 mm 1,1 UV-I 477 W/m 7,7 C 12,5 C 12,9 km/h (3 Bft) 100,00 %
06.04.2016 16:33 13,8 C 67 % 1012,2 hPa 0,0 l/m 7,9 km/h (2 Bft) W 275 1 min 0,000 mm 1,2 UV-I 530 W/m 7,8 C 12,9 C 9,7 km/h (2 Bft) 100,00 %
06.04.2016 16:34 13,9 C 66 % 1012,2 hPa 0,0 l/m 5,8 km/h (2 Bft) W-SW 254 1 min 0,000 mm 1,2 UV-I 512 W/m 7,7 C 13,9 C 9,7 km/h (2 Bft) 100,00 %
06.04.2016 16:35 13,9 C 66 % 1012,2 hPa 0,0 l/m 3,8 km/h (1 Bft) S-SW 198 1 min 0,000 mm 1,2 UV-I 473 W/m 7,7 C 13,9 C 6,4 km/h (2 Bft) 95,65 %
06.04.2016 16:36 13,9 C 66 % 1012,2 hPa 0,0 l/m 8,6 km/h (2 Bft) W-SW 241 1 min 0,000 mm 1,2 UV-I 482 W/m 7,7 C 12,6 C 12,9 km/h (3 Bft) 100,00 %
06.04.2016 16:37 14,0 C 66 % 1012,2 hPa 0,0 l/m 8,6 km/h (2 Bft) W-SW 248 1 min 0,000 mm 1,1 UV-I 451 W/m 7,7 C 12,7 C 14,5 km/h (3 Bft) 100,00 %
06.04.2016 16:38 14,0 C 66 % 1012,2 hPa 0,0 l/m 7,2 km/h (2 Bft) W-SW 253 1 min 0,000 mm 1,1 UV-I 396 W/m 7,7 C 13,5 C 12,9 km/h (3 Bft) 98,75 %
06.04.2016 16:39 14,0 C 65 % 1012,2 hPa 0,0 l/m 8,8 km/h (2 Bft) SW 222 1 min 0,000 mm 1,1 UV-I 395 W/m 7,5 C 12,6 C 12,9 km/h (3 Bft) 100,00 %
06.04.2016 16:40 13,9 C 64 % 1012,2 hPa 0,0 l/m 10,8 km/h (2 Bft) SW 222 1 min 0,000 mm 0,9 UV-I 385 W/m 7,2 C 11,5 C 12,9 km/h (3 Bft) 100,00 %
06.04.2016 16:41 13,9 C 64 % 1012,2 hPa 0,0 l/m 10,5 km/h (2 Bft) SW 215 0 min 0,000 mm 0,9 UV-I 236 W/m 7,2 C 11,7 C 11,3 km/h (2 Bft) 98,76 %
06.04.2016 16:44 13,8 C 66 % 1012,1 hPa 0,0 l/m 4,2 km/h (1 Bft) SW 235 0 min 0,000 mm 0,8 UV-I 211 W/m 7,6 C 13,8 C 8,0 km/h (2 Bft) 100,00 %
06.04.2016 16:45 13,8 C 67 % 1012,1 hPa 0,0 l/m 4,6 km/h (1 Bft) W 259 0 min 0,000 mm 0,7 UV-I 205 W/m 7,8 C 13,8 C 8,0 km/h (2 Bft) 100,00 %
06.04.2016 16:46 13,8 C 66 % 1012,1 hPa 0,0 l/m 4,2 km/h (1 Bft) S-SW 208 0 min 0,000 mm 0,7 UV-I 204 W/m 7,6 C 13,8 C 6,4 km/h (2 Bft) 100,00 %
06.04.2016 16:47 13,8 C 68 % 1012,1 hPa 0,0 l/m 4,0 km/h (1 Bft) S-SW 205 0 min 0,000 mm 0,7 UV-I 213 W/m 8,0 C 13,8 C 6,4 km/h (2 Bft) 100,00 %
06.04.2016 16:48 13,8 C 65 % 1012,1 hPa 0,0 l/m 8,6 km/h (2 Bft) W-SW 244 0 min 0,000 mm 0,7 UV-I 227 W/m 7,3 C 12,5 C 12,9 km/h (3 Bft) 100,00 %
06.04.2016 16:49 13,8 C 65 % 1012,0 hPa 0,0 l/m 6,9 km/h (2 Bft) W-SW 242 0 min 0,000 mm 0,7 UV-I 247 W/m 7,3 C 13,5 C 11,3 km/h (2 Bft) 100,00 %
06.04.2016 16:50 13,8 C 67 % 1012,1 hPa 0,0 l/m 8,3 km/h (2 Bft) W-SW 257 1 min 0,000 mm 0,8 UV-I 266 W/m 7,8 C 12,7 C 12,9 km/h (3 Bft) 92,86 %
06.04.2016 16:51 13,8 C 65 % 1012,0 hPa 0,0 l/m 7,6 km/h (2 Bft) W-SW 256 1 min 0,000 mm 0,8 UV-I 284 W/m 7,3 C 13,1 C 12,9 km/h (3 Bft) 100,00 %
06.04.2016 16:52 13,8 C 65 % 1012,0 hPa 0,0 l/m 9,4 km/h (2 Bft) W 265 1 min 0,000 mm 0,8 UV-I 306 W/m 7,3 C 12,1 C 11,3 km/h (2 Bft) 96,15 %
06.04.2016 16:53 13,8 C 66 % 1012,0 hPa 0,0 l/m 6,9 km/h (2 Bft) W 267 1 min 0,000 mm 0,8 UV-I 295 W/m 7,6 C 13,5 C 9,7 km/h (2 Bft) 100,00 %
06.04.2016 16:54 13,8 C 64 % 1012,0 hPa 0,0 l/m 9,2 km/h (2 Bft) W-SW 242 1 min 0,000 mm 0,8 UV-I 261 W/m 7,1 C 12,2 C 14,5 km/h (3 Bft) 96,15 %
06.04.2016 16:55 13,8 C 64 % 1012,0 hPa 0,0 l/m 9,1 km/h (2 Bft) W-SW 250 0 min 0,000 mm 0,7 UV-I 245 W/m 7,1 C 12,2 C 12,9 km/h (3 Bft) 96,30 %
06.04.2016 16:56 13,8 C 65 % 1012,0 hPa 0,0 l/m 9,6 km/h (2 Bft) W-SW 243 0 min 0,000 mm 0,7 UV-I 243 W/m 7,3 C 12,0 C 12,9 km/h (3 Bft) 100,00 %
06.04.2016 16:57 13,8 C 66 % 1012,0 hPa 0,0 l/m 8,2 km/h (2 Bft) W-SW 258 1 min 0,000 mm 0,7 UV-I 249 W/m 7,6 C 12,7 C 12,9 km/h (3 Bft) 95,83 %
06.04.2016 16:58 13,9 C 66 % 1012,0 hPa 0,0 l/m 10,1 km/h (2 Bft) W-SW 244 0 min 0,000 mm 0,6 UV-I 214 W/m 7,7 C 11,9 C 12,9 km/h (3 Bft) 100,00 %
06.04.2016 16:59 13,9 C 65 % 1012,0 hPa 0,0 l/m 7,4 km/h (2 Bft) SW 236 0 min 0,000 mm 0,6 UV-I 187 W/m 7,4 C 13,3 C 11,3 km/h (2 Bft) 96,55 %
06.04.2016 17:00 13,8 C 64 % 1011,9 hPa 0,0 l/m 4,2 km/h (1 Bft) S-SW 199 0 min 0,000 mm 0,6 UV-I 170 W/m 7,1 C 13,8 C 6,4 km/h (2 Bft) 100,00 %
06.04.2016 17:01 13,8 C 65 % 1011,9 hPa 0,0 l/m 4,3 km/h (1 Bft) W-SW 245 0 min 0,153 mm 0,5 UV-I 158 W/m 7,3 C 13,8 C 6,4 km/h (2 Bft) 96,30 %
06.04.2016 17:02 13,7 C 66 % 1011,9 hPa 0,0 l/m 4,5 km/h (1 Bft) SW 227 0 min 0,000 mm 0,5 UV-I 156 W/m 7,5 C 13,7 C 6,4 km/h (2 Bft) 95,65 %
06.04.2016 17:03 13,7 C 66 % 1011,9 hPa 0,0 l/m 4,4 km/h (1 Bft) SW 231 0 min 0,000 mm 0,5 UV-I 161 W/m 7,5 C 13,7 C 8,0 km/h (2 Bft) 100,00 %
06.04.2016 17:04 13,7 C 66 % 1011,9 hPa 0,0 l/m 7,1 km/h (2 Bft) SW 231 0 min 0,000 mm 0,5 UV-I 168 W/m 7,5 C 13,3 C 11,3 km/h (2 Bft) 100,00 %
06.04.2016 17:05 13,7 C 65 % 1011,9 hPa 0,0 l/m 5,9 km/h (2 Bft) SW 236 0 min 0,000 mm 0,5 UV-I 169 W/m 7,2 C 13,7 C 8,0 km/h (2 Bft) 92,86 %
06.04.2016 17:06 13,7 C 66 % 1011,9 hPa 0,0 l/m 6,9 km/h (2 Bft) W-SW 246 0 min 0,000 mm 0,5 UV-I 169 W/m 7,5 C 13,4 C 11,3 km/h (2 Bft) 100,00 %
06.04.2016 17:07 13,6 C 66 % 1011,9 hPa 0,0 l/m 5,1 km/h (1 Bft) SW 234 0 min 0,000 mm 0,5 UV-I 166 W/m 7,4 C 13,6 C 6,4 km/h (2 Bft) 96,55 %
06.04.2016 17:08 13,6 C 66 % 1011,9 hPa 0,0 l/m 7,8 km/h (2 Bft) W-SW 249 0 min 0,000 mm 0,5 UV-I 168 W/m 7,4 C 12,7 C 9,7 km/h (2 Bft) 96,30 %
06.04.2016 17:09 13,6 C 66 % 1011,9 hPa 0,0 l/m 10,9 km/h (2 Bft) W-SW 242 0 min 0,000 mm 0,5 UV-I 176 W/m 7,4 C 11,1 C 14,5 km/h (3 Bft) 100,00 %
06.04.2016 17:10 13,7 C 66 % 1011,9 hPa 0,0 l/m 7,7 km/h (2 Bft) W-SW 246 0 min 0,000 mm 0,6 UV-I 216 W/m 7,5 C 12,9 C 11,3 km/h (2 Bft) 96,67 %
06.04.2016 17:11 13,7 C 65 % 1011,9 hPa 0,0 l/m 10,2 km/h (2 Bft) W 259 0 min 0,000 mm 0,5 UV-I 211 W/m 7,2 C 11,6 C 12,9 km/h (3 Bft) 100,00 %
06.04.2016 17:12 13,7 C 66 % 1011,9 hPa 0,0 l/m 7,7 km/h (2 Bft) SW 219 0 min 0,000 mm 0,5 UV-I 215 W/m 7,5 C 12,9 C 11,3 km/h (2 Bft) 98,74 %
06.04.2016 17:13 13,7 C 66 % 1011,9 hPa 0,0 l/m 5,5 km/h (1 Bft) W 269 0 min 0,000 mm 0,5 UV-I 217 W/m 7,5 C 13,7 C 9,7 km/h (2 Bft) 95,74 %
06.04.2016 17:14 13,7 C 67 % 1011,9 hPa 0,0 l/m 6,7 km/h (2 Bft) W 263 0 min 0,000 mm 0,5 UV-I 211 W/m 7,7 C 13,5 C 11,3 km/h (2 Bft) 100,00 %
06.04.2016 17:15 13,7 C 67 % 1011,9 hPa 0,0 l/m 5,3 km/h (1 Bft) W 259 0 min 0,000 mm 0,5 UV-I 198 W/m 7,7 C 13,7 C 6,4 km/h (2 Bft) 96,15 %
06.04.2016 17:16 13,8 C 66 % 1011,9 hPa 0,0 l/m 4,6 km/h (1 Bft) S 190 0 min 0,000 mm 0,5 UV-I 185 W/m 7,6 C 13,8 C 6,4 km/h (2 Bft) 100,00 %
06.04.2016 17:17 13,8 C 66 % 1011,9 hPa 0,0 l/m 5,1 km/h (1 Bft) SW 231 0 min 0,000 mm 0,5 UV-I 173 W/m 7,6 C 13,8 C 8,0 km/h (2 Bft) 96,15 %
06.04.2016 17:18 13,8 C 67 % 1011,9 hPa 0,0 l/m 4,5 km/h (1 Bft) SW 224 0 min 0,000 mm 0,5 UV-I 163 W/m 7,8 C 13,8 C 4,8 km/h (1 Bft) 100,00 %
06.04.2016 17:19 13,7 C 66 % 1011,9 hPa 0,0 l/m 4,7 km/h (1 Bft) SW 231 0 min 0,000 mm 0,5 UV-I 156 W/m 7,5 C 13,7 C 6,4 km/h (2 Bft) 91,67 %
06.04.2016 17:20 13,7 C 68 % 1011,8 hPa 0,0 l/m 3,8 km/h (1 Bft) SW 232 0 min 0,000 mm 0,2 UV-I 149 W/m 7,9 C 13,7 C 6,4 km/h (2 Bft) 100,00 %
06.04.2016 17:21 13,7 C 67 % 1011,8 hPa 0,0 l/m 3,7 km/h (1 Bft) S 186 0 min 0,000 mm 0,0 UV-I 148 W/m 7,7 C 13,7 C 8,0 km/h (2 Bft) 100,00 %
06.04.2016 17:22 13,7 C 66 % 1011,9 hPa 0,0 l/m 7,8 km/h (2 Bft) W-SW 257 0 min 0,000 mm 0,0 UV-I 145 W/m 7,5 C 12,9 C 12,9 km/h (3 Bft) 96,55 %
06.04.2016 17:23 13,7 C 67 % 1011,9 hPa 0,0 l/m 7,2 km/h (2 Bft) SW 230 0 min 0,000 mm 0,0 UV-I 131 W/m 7,7 C 13,2 C 11,3 km/h (2 Bft) 100,00 %
06.04.2016 17:24 13,7 C 66 % 1011,8 hPa 0,0 l/m 6,0 km/h (2 Bft) W 277 0 min 0,000 mm 0,0 UV-I 130 W/m 7,5 C 13,7 C 6,4 km/h (2 Bft) 100,00 %
06.04.2016 17:25 13,7 C 66 % 1011,8 hPa 0,0 l/m 6,4 km/h (2 Bft) SW 232 0 min 0,000 mm 0,0 UV-I 128 W/m 7,5 C 13,7 C 9,7 km/h (2 Bft) 100,00 %
06.04.2016 17:26 13,6 C 66 % 1011,8 hPa 0,0 l/m 5,8 km/h (2 Bft) W-SW 241 0 min 0,000 mm 0,0 UV-I 125 W/m 7,4 C 13,6 C 8,0 km/h (2 Bft) 100,00 %
06.04.2016 17:27 13,6 C 66 % 1011,8 hPa 0,0 l/m 6,4 km/h (2 Bft) W-SW 257 0 min 0,000 mm 0,0 UV-I 121 W/m 7,4 C 13,6 C 8,0 km/h (2 Bft) 100,00 %
06.04.2016 17:28 13,6 C 66 % 1011,8 hPa 0,0 l/m 4,8 km/h (1 Bft) SW 226 0 min 0,000 mm 0,0 UV-I 120 W/m 7,4 C 13,6 C 9,7 km/h (2 Bft) 100,00 %
06.04.2016 17:29 13,6 C 66 % 1011,8 hPa 0,0 l/m 7,8 km/h (2 Bft) SW 235 0 min 0,000 mm 0,0 UV-I 118 W/m 7,4 C 12,7 C 11,3 km/h (2 Bft) 100,00 %
06.04.2016 17:30 13,6 C 66 % 1011,9 hPa 0,0 l/m 7,0 km/h (2 Bft) SW 227 0 min 0,000 mm 0,0 UV-I 119 W/m 7,4 C 13,2 C 11,3 km/h (2 Bft) 100,00 %
06.04.2016 17:31 13,6 C 65 % 1011,8 hPa 0,0 l/m 8,2 km/h (2 Bft) SW 232 0 min 0,000 mm 0,0 UV-I 117 W/m 7,1 C 12,5 C 12,9 km/h (3 Bft) 96,30 %
06.04.2016 17:32 13,5 C 65 % 1011,8 hPa 0,0 l/m 6,4 km/h (2 Bft) SW 221 0 min 0,000 mm 0,0 UV-I 115 W/m 7,1 C 13,5 C 8,0 km/h (2 Bft) 95,65 %
06.04.2016 17:33 13,5 C 66 % 1011,8 hPa 0,0 l/m 7,0 km/h (2 Bft) SW 229 0 min 0,000 mm 0,0 UV-I 114 W/m 7,3 C 13,1 C 9,7 km/h (2 Bft) 100,00 %
06.04.2016 17:34 13,5 C 66 % 1011,8 hPa 0,0 l/m 7,6 km/h (2 Bft) S-SW 203 0 min 0,000 mm 0,0 UV-I 113 W/m 7,3 C 12,8 C 11,3 km/h (2 Bft) 100,00 %
06.04.2016 17:35 13,4 C 66 % 1011,8 hPa 0,0 l/m 5,6 km/h (1 Bft) S 177 0 min 0,000 mm 0,0 UV-I 111 W/m 7,2 C 13,4 C 8,0 km/h (2 Bft) 100,00 %
06.04.2016 17:36 13,4 C 66 % 1011,8 hPa 0,0 l/m 7,5 km/h (2 Bft) SW 218 0 min 0,000 mm 0,0 UV-I 108 W/m 7,2 C 12,7 C 11,3 km/h (2 Bft) 100,00 %
06.04.2016 17:37 13,4 C 65 % 1011,8 hPa 0,0 l/m 6,9 km/h (2 Bft) S-SW 199 0 min 0,000 mm 0,0 UV-I 107 W/m 7,0 C 13,1 C 9,7 km/h (2 Bft) 100,00 %
06.04.2016 17:38 13,4 C 66 % 1011,8 hPa 0,0 l/m 7,7 km/h (2 Bft) S-SW 202 0 min 0,000 mm 0,0 UV-I 107 W/m 7,2 C 12,6 C 11,3 km/h (2 Bft) 100,00 %
06.04.2016 17:39 13,4 C 67 % 1011,8 hPa 0,0 l/m 8,2 km/h (2 Bft) S-SW 198 0 min 0,000 mm 0,0 UV-I 105 W/m 7,4 C 12,3 C 12,9 km/h (3 Bft) 100,00 %
06.04.2016 17:40 13,4 C 66 % 1011,8 hPa 0,0 l/m 7,4 km/h (2 Bft) SW 226 0 min 0,000 mm 0,0 UV-I 105 W/m 7,2 C 12,8 C 12,9 km/h (3 Bft) 100,00 %
06.04.2016 17:41 13,4 C 66 % 1011,8 hPa 0,0 l/m 7,2 km/h (2 Bft) SW 232 0 min 0,000 mm 0,0 UV-I 104 W/m 7,2 C 12,9 C 11,3 km/h (2 Bft) 100,00 %
06.04.2016 17:42 13,4 C 66 % 1011,8 hPa 0,0 l/m 5,6 km/h (1 Bft) SW 215 0 min 0,000 mm 0,0 UV-I 103 W/m 7,2 C 13,4 C 9,7 km/h (2 Bft) 96,15 %
06.04.2016 17:43 13,4 C 67 % 1011,8 hPa 0,0 l/m 5,2 km/h (1 Bft) W-SW 237 0 min 0,000 mm 0,0 UV-I 102 W/m 7,4 C 13,4 C 8,0 km/h (2 Bft) 100,00 %
06.04.2016 17:44 13,4 C 67 % 1011,8 hPa 0,0 l/m 3,5 km/h (1 Bft) W 270 0 min 0,000 mm 0,0 UV-I 102 W/m 7,4 C 13,4 C 6,4 km/h (2 Bft) 100,00 %
06.04.2016 17:45 13,4 C 67 % 1011,7 hPa 0,0 l/m 5,1 km/h (1 Bft) W-SW 238 0 min 0,000 mm 0,0 UV-I 104 W/m 7,4 C 13,4 C 8,0 km/h (2 Bft) 100,00 %
06.04.2016 17:46 13,4 C 68 % 1011,8 hPa 0,0 l/m 7,2 km/h (2 Bft) SW 223 0 min 0,000 mm 0,0 UV-I 104 W/m 7,6 C 12,9 C 11,3 km/h (2 Bft) 100,00 %
06.04.2016 17:47 13,4 C 67 % 1011,7 hPa 0,0 l/m 4,8 km/h (1 Bft) SW 221 0 min 0,000 mm 0,0 UV-I 103 W/m 7,4 C 13,4 C 6,4 km/h (2 Bft) 100,00 %
06.04.2016 17:48 13,4 C 67 % 1011,7 hPa 0,0 l/m 5,7 km/h (1 Bft) S-SW 212 0 min 0,000 mm 0,0 UV-I 102 W/m 7,4 C 13,4 C 11,3 km/h (2 Bft) 100,00 %
06.04.2016 17:49 13,4 C 67 % 1011,8 hPa 0,0 l/m 8,6 km/h (2 Bft) S 188 0 min 0,000 mm 0,0 UV-I 100 W/m 7,4 C 12,1 C 12,9 km/h (3 Bft) 100,00 %
06.04.2016 17:50 13,4 C 67 % 1011,7 hPa 0,0 l/m 6,2 km/h (2 Bft) W-SW 243 0 min 0,000 mm 0,0 UV-I 98 W/m 7,4 C 13,4 C 8,0 km/h (2 Bft) 100,00 %
06.04.2016 17:51 13,4 C 67 % 1011,7 hPa 0,0 l/m 6,5 km/h (2 Bft) SW 222 0 min 0,000 mm 0,0 UV-I 98 W/m 7,4 C 13,4 C 9,7 km/h (2 Bft) 95,65 %
06.04.2016 17:52 13,4 C 68 % 1011,7 hPa 0,0 l/m 6,6 km/h (2 Bft) S 190 0 min 0,000 mm 0,0 UV-I 98 W/m 7,6 C 13,3 C 8,0 km/h (2 Bft) 100,00 %
06.04.2016 17:53 13,4 C 68 % 1011,6 hPa 0,0 l/m 4,3 km/h (1 Bft) SW 228 0 min 0,000 mm 0,0 UV-I 97 W/m 7,6 C 13,4 C 8,0 km/h (2 Bft) 100,00 %
06.04.2016 17:54 13,4 C 66 % 1011,6 hPa 0,0 l/m 6,9 km/h (2 Bft) W-SW 239 0 min 0,000 mm 0,0 UV-I 98 W/m 7,2 C 13,1 C 11,3 km/h (2 Bft) 100,00 %
06.04.2016 17:55 13,4 C 66 % 1011,6 hPa 0,0 l/m 6,2 km/h (2 Bft) S 176 0 min 0,000 mm 0,0 UV-I 100 W/m 7,2 C 13,4 C 8,0 km/h (2 Bft) 100,00 %
06.04.2016 17:56 13,4 C 66 % 1011,6 hPa 0,0 l/m 6,4 km/h (2 Bft) S-SW 192 0 min 0,000 mm 0,0 UV-I 102 W/m 7,2 C 13,4 C 9,7 km/h (2 Bft) 100,00 %
06.04.2016 17:57 13,4 C 67 % 1011,6 hPa 0,0 l/m 7,9 km/h (2 Bft) S-SW 205 0 min 0,000 mm 0,0 UV-I 102 W/m 7,4 C 12,5 C 9,7 km/h (2 Bft) 100,00 %
06.04.2016 17:58 13,4 C 66 % 1011,6 hPa 0,0 l/m 8,3 km/h (2 Bft) SW 222 0 min 0,000 mm 0,0 UV-I 104 W/m 7,2 C 12,2 C 11,3 km/h (2 Bft) 100,00 %
06.04.2016 17:59 13,4 C 66 % 1011,6 hPa 0,0 l/m 8,4 km/h (2 Bft) S 185 0 min 0,000 mm 0,0 UV-I 107 W/m 7,2 C 12,2 C 11,3 km/h (2 Bft) 100,00 %
06.04.2016 18:00 13,4 C 66 % 1011,6 hPa 0,0 l/m 9,5 km/h (2 Bft) S 186 0 min 0,000 mm 0,0 UV-I 115 W/m 7,2 C 11,6 C 11,3 km/h (2 Bft) 100,00 %
06.04.2016 18:01 13,4 C 66 % 1011,6 hPa 0,0 l/m 6,1 km/h (2 Bft) S-SO 163 0 min 0,101 mm 0,0 UV-I 120 W/m 7,2 C 13,4 C 8,0 km/h (2 Bft) 100,00 %
06.04.2016 18:02 13,4 C 66 % 1011,6 hPa 0,0 l/m 6,4 km/h (2 Bft) W 259 0 min 0,000 mm 0,0 UV-I 121 W/m 7,2 C 13,4 C 11,3 km/h (2 Bft) 100,00 %
06.04.2016 18:03 13,4 C 66 % 1011,6 hPa 0,0 l/m 8,6 km/h (2 Bft) SW 234 0 min 0,000 mm 0,0 UV-I 118 W/m 7,2 C 12,1 C 12,9 km/h (3 Bft) 100,00 %
06.04.2016 18:04 13,4 C 66 % 1011,6 hPa 0,0 l/m 10,5 km/h (2 Bft) SW 227 0 min 0,000 mm 0,0 UV-I 118 W/m 7,2 C 11,1 C 14,5 km/h (3 Bft) 100,00 %
06.04.2016 18:05 13,4 C 67 % 1011,6 hPa 0,0 l/m 10,3 km/h (2 Bft) SW 229 0 min 0,000 mm 0,0 UV-I 119 W/m 7,4 C 11,2 C 12,9 km/h (3 Bft) 100,00 %
06.04.2016 18:06 13,4 C 67 % 1011,6 hPa 0,0 l/m 8,2 km/h (2 Bft) W-SW 251 0 min 0,000 mm 0,0 UV-I 116 W/m 7,4 C 12,3 C 11,3 km/h (2 Bft) 100,00 %
06.04.2016 18:07 13,4 C 66 % 1011,6 hPa 0,0 l/m 7,4 km/h (2 Bft) S 182 0 min 0,000 mm 0,0 UV-I 113 W/m 7,2 C 12,8 C 11,3 km/h (2 Bft) 100,00 %
06.04.2016 18:08 13,4 C 66 % 1011,6 hPa 0,0 l/m 5,8 km/h (2 Bft) W-SW 240 0 min 0,000 mm 0,0 UV-I 109 W/m 7,2 C 13,4 C 8,0 km/h (2 Bft) 96,15 %
06.04.2016 18:09 13,4 C 66 % 1011,6 hPa 0,0 l/m 4,5 km/h (1 Bft) SW 226 0 min 0,000 mm 0,0 UV-I 107 W/m 7,2 C 13,4 C 8,0 km/h (2 Bft) 95,83 %
06.04.2016 18:10 13,4 C 67 % 1011,6 hPa 0,0 l/m 6,0 km/h (2 Bft) SW 229 0 min 0,000 mm 0,0 UV-I 105 W/m 7,4 C 13,4 C 8,0 km/h (2 Bft) 100,00 %
06.04.2016 18:11 13,4 C 68 % 1011,6 hPa 0,0 l/m 6,5 km/h (2 Bft) SW 227 0 min 0,000 mm 0,0 UV-I 105 W/m 7,6 C 13,4 C 9,7 km/h (2 Bft) 100,00 %
06.04.2016 18:12 13,4 C 67 % 1011,5 hPa 0,0 l/m 9,3 km/h (2 Bft) SW 229 0 min 0,000 mm 0,0 UV-I 103 W/m 7,4 C 11,7 C 12,9 km/h (3 Bft) 100,00 %
06.04.2016 18:13 13,4 C 68 % 1011,6 hPa 0,0 l/m 8,0 km/h (2 Bft) SW 225 0 min 0,000 mm 0,0 UV-I 99 W/m 7,6 C 12,4 C 11,3 km/h (2 Bft) 100,00 %
06.04.2016 18:14 13,4 C 68 % 1011,6 hPa 0,0 l/m 6,0 km/h (2 Bft) SW 220 0 min 0,000 mm 0,0 UV-I 95 W/m 7,6 C 13,4 C 9,7 km/h (2 Bft) 100,00 %
06.04.2016 18:15 13,4 C 68 % 1011,5 hPa 0,0 l/m 6,5 km/h (2 Bft) W-SW 246 0 min 0,000 mm 0,0 UV-I 91 W/m 7,6 C 13,4 C 9,7 km/h (2 Bft) 100,00 %
06.04.2016 18:16 13,4 C 68 % 1011,5 hPa 0,0 l/m 5,7 km/h (1 Bft) W 262 0 min 0,000 mm 0,0 UV-I 88 W/m 7,6 C 13,4 C 8,0 km/h (2 Bft) 95,65 %
06.04.2016 18:17 13,4 C 68 % 1011,5 hPa 0,0 l/m 5,5 km/h (1 Bft) W-SW 240 0 min 0,000 mm 0,0 UV-I 81 W/m 7,6 C 13,4 C 9,7 km/h (2 Bft) 100,00 %
06.04.2016 18:18 13,4 C 68 % 1011,5 hPa 0,0 l/m 7,0 km/h (2 Bft) SW 229 0 min 0,000 mm 0,0 UV-I 77 W/m 7,6 C 13,0 C 9,7 km/h (2 Bft) 100,00 %
06.04.2016 18:19 13,4 C 68 % 1011,5 hPa 0,0 l/m 8,4 km/h (2 Bft) SW 236 0 min 0,000 mm 0,0 UV-I 70 W/m 7,6 C 12,2 C 11,3 km/h (2 Bft) 100,00 %
06.04.2016 18:20 13,4 C 68 % 1011,5 hPa 0,0 l/m 7,1 km/h (2 Bft) SW 235 0 min 0,000 mm 0,0 UV-I 64 W/m 7,6 C 13,0 C 11,3 km/h (2 Bft) 100,00 %
06.04.2016 18:21 13,3 C 68 % 1011,5 hPa 0,0 l/m 5,6 km/h (1 Bft) W-SW 237 0 min 0,000 mm 0,0 UV-I 58 W/m 7,5 C 13,3 C 9,7 km/h (2 Bft) 100,00 %
06.04.2016 18:22 13,3 C 68 % 1011,4 hPa 0,0 l/m 6,2 km/h (2 Bft) SW 215 0 min 0,000 mm 0,0 UV-I 53 W/m 7,5 C 13,3 C 9,7 km/h (2 Bft) 100,00 %
06.04.2016 18:23 13,3 C 67 % 1011,4 hPa 0,0 l/m 5,4 km/h (1 Bft) SW 227 0 min 0,000 mm 0,0 UV-I 49 W/m 7,3 C 13,3 C 8,0 km/h (2 Bft) 100,00 %
06.04.2016 18:24 13,3 C 67 % 1011,4 hPa 0,0 l/m 3,9 km/h (1 Bft) S-SW 212 0 min 0,000 mm 0,0 UV-I 45 W/m 7,3 C 13,3 C 8,0 km/h (2 Bft) 100,00 %
06.04.2016 18:25 13,3 C 67 % 1011,5 hPa 0,0 l/m 5,4 km/h (1 Bft) W-SW 240 0 min 0,000 mm 0,0 UV-I 42 W/m 7,3 C 13,3 C 8,0 km/h (2 Bft) 100,00 %
06.04.2016 18:26 13,3 C 66 % 1011,5 hPa 0,0 l/m 6,0 km/h (2 Bft) W-SW 247 0 min 0,000 mm 0,0 UV-I 40 W/m 7,1 C 13,3 C 9,7 km/h (2 Bft) 93,33 %
06.04.2016 18:27 13,3 C 67 % 1011,5 hPa 0,0 l/m 4,4 km/h (1 Bft) S 186 0 min 0,000 mm 0,0 UV-I 40 W/m 7,3 C 13,3 C 6,4 km/h (2 Bft) 100,00 %
06.04.2016 18:28 13,3 C 67 % 1011,4 hPa 0,0 l/m 7,2 km/h (2 Bft) W-SW 246 0 min 0,000 mm 0,0 UV-I 38 W/m 7,3 C 12,8 C 12,9 km/h (3 Bft) 100,00 %
06.04.2016 18:29 13,3 C 67 % 1011,5 hPa 0,0 l/m 8,6 km/h (2 Bft) SW 225 0 min 0,000 mm 0,0 UV-I 37 W/m 7,3 C 12,0 C 11,3 km/h (2 Bft) 100,00 %
06.04.2016 18:30 13,3 C 67 % 1011,5 hPa 0,0 l/m 6,4 km/h (2 Bft) SW 217 0 min 0,000 mm 0,0 UV-I 37 W/m 7,3 C 13,3 C 9,7 km/h (2 Bft) 100,00 %
06.04.2016 18:31 13,3 C 67 % 1011,5 hPa 0,0 l/m 6,6 km/h (2 Bft) SW 222 0 min 0,000 mm 0,0 UV-I 37 W/m 7,3 C 13,2 C 9,7 km/h (2 Bft) 100,00 %
06.04.2016 18:32 13,2 C 67 % 1011,5 hPa 0,0 l/m 5,6 km/h (1 Bft) SW 235 0 min 0,000 mm 0,0 UV-I 35 W/m 7,2 C 13,2 C 8,0 km/h (2 Bft) 100,00 %
06.04.2016 18:33 13,2 C 67 % 1011,4 hPa 0,0 l/m 4,2 km/h (1 Bft) SW 236 0 min 0,000 mm 0,0 UV-I 35 W/m 7,2 C 13,2 C 6,4 km/h (2 Bft) 96,55 %
06.04.2016 18:34 13,2 C 68 % 1011,4 hPa 0,0 l/m 2,7 km/h (1 Bft) SW 236 0 min 0,000 mm 0,0 UV-I 36 W/m 7,4 C 13,2 C 4,8 km/h (1 Bft) 100,00 %
06.04.2016 18:35 13,2 C 68 % 1011,4 hPa 0,0 l/m 2,4 km/h (1 Bft) SW 236 0 min 0,000 mm 0,0 UV-I 37 W/m 7,4 C 13,2 C 3,2 km/h (1 Bft) 100,00 %
06.04.2016 18:36 13,2 C 68 % 1011,4 hPa 0,0 l/m 5,4 km/h (1 Bft) SW 219 0 min 0,000 mm 0,0 UV-I 37 W/m 7,4 C 13,2 C 8,0 km/h (2 Bft) 100,00 %
06.04.2016 18:37 13,2 C 68 % 1011,4 hPa 0,0 l/m 3,1 km/h (1 Bft) SW 229 0 min 0,000 mm 0,0 UV-I 37 W/m 7,4 C 13,2 C 4,8 km/h (1 Bft) 100,00 %
06.04.2016 18:38 13,2 C 68 % 1011,4 hPa 0,0 l/m 3,0 km/h (1 Bft) SW 230 0 min 0,000 mm 0,0 UV-I 37 W/m 7,4 C 13,2 C 4,8 km/h (1 Bft) 100,00 %
06.04.2016 18:39 13,2 C 68 % 1011,4 hPa 0,0 l/m 3,6 km/h (1 Bft) SW 224 0 min 0,000 mm 0,0 UV-I 36 W/m 7,4 C 13,2 C 6,4 km/h (2 Bft) 100,00 %
06.04.2016 18:40 13,2 C 69 % 1011,4 hPa 0,0 l/m 3,9 km/h (1 Bft) SW 221 0 min 0,000 mm 0,0 UV-I 35 W/m 7,6 C 13,2 C 6,4 km/h (2 Bft) 91,67 %
06.04.2016 18:41 13,2 C 69 % 1011,4 hPa 0,0 l/m 7,6 km/h (2 Bft) W-SW 240 0 min 0,000 mm 0,0 UV-I 34 W/m 7,6 C 12,5 C 9,7 km/h (2 Bft) 100,00 %
06.04.2016 18:42 13,2 C 69 % 1011,4 hPa 0,0 l/m 8,2 km/h (2 Bft) SW 230 0 min 0,000 mm 0,0 UV-I 33 W/m 7,6 C 12,1 C 11,3 km/h (2 Bft) 100,00 %
06.04.2016 18:43 13,2 C 69 % 1011,4 hPa 0,0 l/m 5,9 km/h (2 Bft) SW 227 0 min 0,000 mm 0,0 UV-I 32 W/m 7,6 C 13,2 C 9,7 km/h (2 Bft) 100,00 %
06.04.2016 18:44 13,2 C 69 % 1011,4 hPa 0,0 l/m 4,0 km/h (1 Bft) SW 226 0 min 0,000 mm 0,0 UV-I 32 W/m 7,6 C 13,2 C 6,4 km/h (2 Bft) 100,00 %
06.04.2016 18:45 13,1 C 69 % 1011,4 hPa 0,0 l/m 3,2 km/h (1 Bft) SW 224 0 min 0,000 mm 0,0 UV-I 32 W/m 7,5 C 13,1 C 4,8 km/h (1 Bft) 100,00 %
06.04.2016 18:46 13,1 C 70 % 1011,3 hPa 0,0 l/m 2,7 km/h (1 Bft) SW 223 0 min 0,000 mm 0,0 UV-I 32 W/m 7,8 C 13,1 C 4,8 km/h (1 Bft) 96,43 %
06.04.2016 18:47 13,1 C 69 % 1011,3 hPa 0,0 l/m 5,0 km/h (1 Bft) SW 227 0 min 0,000 mm 0,0 UV-I 32 W/m 7,5 C 13,1 C 8,0 km/h (2 Bft) 96,30 %
06.04.2016 18:48 13,1 C 69 % 1011,3 hPa 0,0 l/m 4,9 km/h (1 Bft) S-SW 197 0 min 0,000 mm 0,0 UV-I 31 W/m 7,5 C 13,1 C 6,4 km/h (2 Bft) 91,30 %
06.04.2016 18:49 13,1 C 69 % 1011,3 hPa 0,0 l/m 4,4 km/h (1 Bft) SW 227 0 min 0,000 mm 0,0 UV-I 30 W/m 7,5 C 13,1 C 6,4 km/h (2 Bft) 95,83 %
06.04.2016 18:50 13,1 C 69 % 1011,4 hPa 0,0 l/m 6,4 km/h (2 Bft) SW 232 0 min 0,000 mm 0,0 UV-I 28 W/m 7,5 C 13,1 C 9,7 km/h (2 Bft) 96,15 %
06.04.2016 18:51 13,1 C 68 % 1011,4 hPa 0,0 l/m 5,6 km/h (1 Bft) S-SO 165 0 min 0,000 mm 0,0 UV-I 27 W/m 7,3 C 13,1 C 8,0 km/h (2 Bft) 100,00 %
06.04.2016 18:52 13,1 C 69 % 1011,4 hPa 0,0 l/m 4,2 km/h (1 Bft) W-SW 245 0 min 0,000 mm 0,0 UV-I 26 W/m 7,5 C 13,1 C 6,4 km/h (2 Bft) 95,65 %
06.04.2016 18:53 13,1 C 69 % 1011,4 hPa 0,0 l/m 4,8 km/h (1 Bft) W-SW 244 0 min 0,000 mm 0,0 UV-I 25 W/m 7,5 C 13,1 C 8,0 km/h (2 Bft) 100,00 %
06.04.2016 18:54 13,1 C 69 % 1011,4 hPa 0,0 l/m 4,8 km/h (1 Bft) SW 224 0 min 0,000 mm 0,0 UV-I 23 W/m 7,5 C 13,1 C 6,4 km/h (2 Bft) 96,15 %
06.04.2016 18:55 13,1 C 69 % 1011,4 hPa 0,0 l/m 4,7 km/h (1 Bft) SW 231 0 min 0,000 mm 0,0 UV-I 23 W/m 7,5 C 13,1 C 6,4 km/h (2 Bft) 96,30 %
06.04.2016 18:56 13,1 C 69 % 1011,4 hPa 0,0 l/m 6,0 km/h (2 Bft) W-SW 239 0 min 0,000 mm 0,0 UV-I 23 W/m 7,5 C 13,1 C 8,0 km/h (2 Bft) 100,00 %
06.04.2016 18:57 13,1 C 70 % 1011,5 hPa 0,0 l/m 5,8 km/h (2 Bft) SW 222 0 min 0,000 mm 0,0 UV-I 23 W/m 7,8 C 13,1 C 8,0 km/h (2 Bft) 96,30 %
06.04.2016 18:58 13,0 C 70 % 1011,4 hPa 0,0 l/m 6,8 km/h (2 Bft) W-SW 240 0 min 0,000 mm 0,0 UV-I 23 W/m 7,7 C 12,8 C 8,0 km/h (2 Bft) 100,00 %
06.04.2016 18:59 13,0 C 70 % 1011,4 hPa 0,0 l/m 5,2 km/h (1 Bft) SW 227 0 min 0,000 mm 0,0 UV-I 23 W/m 7,7 C 13,0 C 6,4 km/h (2 Bft) 95,83 %
06.04.2016 19:00 13,0 C 70 % 1011,4 hPa 0,0 l/m 5,3 km/h (1 Bft) SW 231 0 min 0,000 mm 0,0 UV-I 22 W/m 7,7 C 13,0 C 6,4 km/h (2 Bft) 98,76 %
06.04.2016 19:01 12,9 C 70 % 1011,4 hPa 0,0 l/m 4,2 km/h (1 Bft) SW 231 0 min 0,051 mm 0,0 UV-I 19 W/m 7,6 C 12,9 C 6,4 km/h (2 Bft) 94,74 %
06.04.2016 19:02 12,9 C 71 % 1011,4 hPa 0,0 l/m 3,6 km/h (1 Bft) SW 231 0 min 0,000 mm 0,0 UV-I 19 W/m 7,8 C 12,9 C 4,8 km/h (1 Bft) 100,00 %
06.04.2016 19:03 12,9 C 70 % 1011,4 hPa 0,0 l/m 2,9 km/h (1 Bft) SW 231 0 min 0,000 mm 0,0 UV-I 17 W/m 7,6 C 12,9 C 4,8 km/h (1 Bft) 95,65 %
06.04.2016 19:04 12,9 C 70 % 1011,4 hPa 0,0 l/m 3,1 km/h (1 Bft) SW 231 0 min 0,000 mm 0,0 UV-I 16 W/m 7,6 C 12,9 C 4,8 km/h (1 Bft) 100,00 %
06.04.2016 19:05 12,9 C 70 % 1011,4 hPa 0,0 l/m 3,4 km/h (1 Bft) SW 225 0 min 0,000 mm 0,0 UV-I 15 W/m 7,6 C 12,9 C 4,8 km/h (1 Bft) 95,65 %
06.04.2016 19:06 12,9 C 71 % 1011,3 hPa 0,0 l/m 4,2 km/h (1 Bft) SW 225 0 min 0,000 mm 0,0 UV-I 12 W/m 7,8 C 12,9 C 4,8 km/h (1 Bft) 95,83 %
06.04.2016 19:07 12,9 C 70 % 1011,3 hPa 0,0 l/m 4,8 km/h (1 Bft) SW 219 0 min 0,000 mm 0,0 UV-I 12 W/m 7,6 C 12,9 C 6,4 km/h (2 Bft) 100,00 %
06.04.2016 19:08 12,9 C 70 % 1011,3 hPa 0,0 l/m 4,6 km/h (1 Bft) SW 217 0 min 0,000 mm 0,0 UV-I 12 W/m 7,6 C 12,9 C 6,4 km/h (2 Bft) 97,44 %
06.04.2016 19:09 12,9 C 70 % 1011,3 hPa 0,0 l/m 3,2 km/h (1 Bft) SW 217 0 min 0,000 mm 0,0 UV-I 11 W/m 7,6 C 12,9 C 4,8 km/h (1 Bft) 100,00 %
06.04.2016 19:10 12,9 C 70 % 1011,3 hPa 0,0 l/m 4,2 km/h (1 Bft) SW 217 0 min 0,000 mm 0,0 UV-I 11 W/m 7,6 C 12,9 C 4,8 km/h (1 Bft) 91,67 %
06.04.2016 19:11 12,9 C 69 % 1011,3 hPa 0,0 l/m 4,6 km/h (1 Bft) SW 221 0 min 0,000 mm 0,0 UV-I 10 W/m 7,4 C 12,9 C 6,4 km/h (2 Bft) 98,74 %
06.04.2016 19:12 12,9 C 69 % 1011,3 hPa 0,0 l/m 3,6 km/h (1 Bft) SW 221 0 min 0,000 mm 0,0 UV-I 9 W/m 7,4 C 12,9 C 4,8 km/h (1 Bft) 95,45 %
06.04.2016 19:13 12,9 C 69 % 1011,3 hPa 0,0 l/m 3,9 km/h (1 Bft) S 175 0 min 0,000 mm 0,0 UV-I 9 W/m 7,4 C 12,9 C 6,4 km/h (2 Bft) 96,15 %
06.04.2016 19:14 12,9 C 70 % 1011,3 hPa 0,0 l/m 4,6 km/h (1 Bft) SW 227 0 min 0,000 mm 0,0 UV-I 9 W/m 7,6 C 12,9 C 6,4 km/h (2 Bft) 100,00 %
06.04.2016 19:15 12,9 C 70 % 1011,3 hPa 0,0 l/m 4,4 km/h (1 Bft) S-SW 212 0 min 0,000 mm 0,0 UV-I 9 W/m 7,6 C 12,9 C 6,4 km/h (2 Bft) 95,65 %
06.04.2016 19:16 12,9 C 70 % 1011,4 hPa 0,0 l/m 4,2 km/h (1 Bft) SW 215 0 min 0,000 mm 0,0 UV-I 9 W/m 7,6 C 12,9 C 4,8 km/h (1 Bft) 100,00 %
06.04.2016 19:17 12,9 C 70 % 1011,3 hPa 0,0 l/m 4,4 km/h (1 Bft) S-SW 207 0 min 0,000 mm 0,0 UV-I 9 W/m 7,6 C 12,9 C 6,4 km/h (2 Bft) 95,65 %
06.04.2016 19:18 12,8 C 70 % 1011,3 hPa 0,0 l/m 4,2 km/h (1 Bft) S-SW 211 0 min 0,000 mm 0,0 UV-I 9 W/m 7,5 C 12,8 C 6,4 km/h (2 Bft) 98,73 %
06.04.2016 19:19 12,8 C 70 % 1011,3 hPa 0,0 l/m 3,4 km/h (1 Bft) S-SW 204 0 min 0,000 mm 0,0 UV-I 7 W/m 7,5 C 12,8 C 4,8 km/h (1 Bft) 97,44 %
06.04.2016 19:20 12,8 C 70 % 1011,3 hPa 0,0 l/m 3,4 km/h (1 Bft) S-SW 207 0 min 0,000 mm 0,0 UV-I 7 W/m 7,5 C 12,8 C 6,4 km/h (2 Bft) 95,65 %
06.04.2016 19:21 12,8 C 70 % 1011,3 hPa 0,0 l/m 4,8 km/h (1 Bft) S-SW 206 0 min 0,000 mm 0,0 UV-I 6 W/m 7,5 C 12,8 C 6,4 km/h (2 Bft) 100,00 %
06.04.2016 19:22 12,8 C 70 % 1011,3 hPa 0,0 l/m 5,7 km/h (1 Bft) S-SW 210 0 min 0,000 mm 0,0 UV-I 5 W/m 7,5 C 12,8 C 8,0 km/h (2 Bft) 100,00 %
06.04.2016 19:23 12,8 C 70 % 1011,3 hPa 0,0 l/m 5,9 km/h (2 Bft) S 188 0 min 0,000 mm 0,0 UV-I 5 W/m 7,5 C 12,8 C 8,0 km/h (2 Bft) 96,15 %
06.04.2016 19:24 12,8 C 70 % 1011,3 hPa 0,0 l/m 3,4 km/h (1 Bft) S 188 0 min 0,000 mm 0,0 UV-I 5 W/m 7,5 C 12,8 C 4,8 km/h (1 Bft) 100,00 %
06.04.2016 19:25 12,8 C 70 % 1011,3 hPa 0,0 l/m 6,4 km/h (2 Bft) S-SW 202 0 min 0,000 mm 0,0 UV-I 5 W/m 7,5 C 12,8 C 8,0 km/h (2 Bft) 100,00 %
06.04.2016 19:26 12,8 C 71 % 1011,3 hPa 0,0 l/m 5,0 km/h (1 Bft) S-SW 198 0 min 0,000 mm 0,0 UV-I 5 W/m 7,7 C 12,8 C 6,4 km/h (2 Bft) 100,00 %
06.04.2016 19:27 12,8 C 71 % 1011,3 hPa 0,0 l/m 4,7 km/h (1 Bft) S-SW 198 0 min 0,000 mm 0,0 UV-I 5 W/m 7,7 C 12,8 C 6,4 km/h (2 Bft) 100,00 %
06.04.2016 19:28 12,8 C 70 % 1011,3 hPa 0,0 l/m 5,5 km/h (1 Bft) S-SW 198 0 min 0,000 mm 0,0 UV-I 5 W/m 7,5 C 12,8 C 8,0 km/h (2 Bft) 96,15 %
06.04.2016 19:29 12,8 C 71 % 1011,3 hPa 0,0 l/m 4,5 km/h (1 Bft) S-SW 204 0 min 0,000 mm 0,0 UV-I 5 W/m 7,7 C 12,8 C 6,4 km/h (2 Bft) 100,00 %
06.04.2016 19:30 12,7 C 72 % 1011,3 hPa 0,0 l/m 5,3 km/h (1 Bft) S-SW 203 0 min 0,000 mm 0,0 UV-I 5 W/m 7,8 C 12,7 C 6,4 km/h (2 Bft) 92,86 %
06.04.2016 19:31 12,7 C 72 % 1011,3 hPa 0,0 l/m 6,0 km/h (2 Bft) S-SW 204 0 min 0,000 mm 0,0 UV-I 5 W/m 7,8 C 12,7 C 6,4 km/h (2 Bft) 100,00 %
06.04.2016 19:32 12,7 C 71 % 1011,3 hPa 0,0 l/m 5,6 km/h (1 Bft) S-SW 198 0 min 0,000 mm 0,0 UV-I 5 W/m 7,6 C 12,7 C 6,4 km/h (2 Bft) 96,15 %
06.04.2016 19:33 12,7 C 72 % 1011,3 hPa 0,0 l/m 4,6 km/h (1 Bft) S-SW 198 0 min 0,000 mm 0,0 UV-I 5 W/m 7,8 C 12,7 C 4,8 km/h (1 Bft) 100,00 %
06.04.2016 19:34 12,7 C 72 % 1011,3 hPa 0,0 l/m 4,8 km/h (1 Bft) S-SW 199 0 min 0,000 mm 0,0 UV-I 2 W/m 7,8 C 12,7 C 6,4 km/h (2 Bft) 100,00 %
06.04.2016 19:35 12,7 C 72 % 1011,3 hPa 0,0 l/m 4,3 km/h (1 Bft) SW 219 0 min 0,000 mm 0,0 UV-I 0 W/m 7,8 C 12,7 C 6,4 km/h (2 Bft) 100,00 %
06.04.2016 19:36 12,6 C 72 % 1011,2 hPa 0,0 l/m 4,0 km/h (1 Bft) SW 217 0 min 0,000 mm 0,0 UV-I 0 W/m 7,7 C 12,6 C 4,8 km/h (1 Bft) 100,00 %
06.04.2016 19:37 12,6 C 72 % 1011,2 hPa 0,0 l/m 4,8 km/h (1 Bft) S-SW 201 0 min 0,000 mm 0,0 UV-I 0 W/m 7,7 C 12,6 C 6,4 km/h (2 Bft) 100,00 %
06.04.2016 19:38 12,6 C 72 % 1011,2 hPa 0,0 l/m 4,0 km/h (1 Bft) S 182 0 min 0,000 mm 0,0 UV-I 0 W/m 7,7 C 12,6 C 6,4 km/h (2 Bft) 100,00 %
06.04.2016 19:39 12,6 C 72 % 1011,2 hPa 0,0 l/m 3,5 km/h (1 Bft) S 180 0 min 0,000 mm 0,0 UV-I 0 W/m 7,7 C 12,6 C 4,8 km/h (1 Bft) 100,00 %
06.04.2016 19:40 12,6 C 72 % 1011,2 hPa 0,0 l/m 5,3 km/h (1 Bft) S 189 0 min 0,000 mm 0,0 UV-I 0 W/m 7,7 C 12,6 C 8,0 km/h (2 Bft) 100,00 %
06.04.2016 19:41 12,6 C 72 % 1011,2 hPa 0,0 l/m 4,7 km/h (1 Bft) S-SW 203 0 min 0,000 mm 0,0 UV-I 0 W/m 7,7 C 12,6 C 6,4 km/h (2 Bft) 100,00 %
06.04.2016 19:42 12,6 C 71 % 1011,2 hPa 0,0 l/m 3,8 km/h (1 Bft) S-SW 210 0 min 0,000 mm 0,0 UV-I 0 W/m 7,5 C 12,6 C 6,4 km/h (2 Bft) 100,00 %
06.04.2016 19:43 12,6 C 71 % 1011,2 hPa 0,0 l/m 4,8 km/h (1 Bft) S 177 0 min 0,000 mm 0,0 UV-I 0 W/m 7,5 C 12,6 C 8,0 km/h (2 Bft) 100,00 %
06.04.2016 19:44 12,6 C 71 % 1011,2 hPa 0,0 l/m 5,3 km/h (1 Bft) S 182 0 min 0,000 mm 0,0 UV-I 0 W/m 7,5 C 12,6 C 8,0 km/h (2 Bft) 100,00 %
06.04.2016 19:45 12,6 C 71 % 1011,2 hPa 0,0 l/m 2,5 km/h (1 Bft) S 180 0 min 0,000 mm 0,0 UV-I 0 W/m 7,5 C 12,6 C 3,2 km/h (1 Bft) 100,00 %
06.04.2016 19:46 12,6 C 71 % 1011,2 hPa 0,0 l/m 3,2 km/h (1 Bft) S 169 0 min 0,000 mm 0,0 UV-I 0 W/m 7,5 C 12,6 C 9,7 km/h (2 Bft) 100,00 %
06.04.2016 19:47 12,6 C 71 % 1011,2 hPa 0,0 l/m 5,2 km/h (1 Bft) SW 232 0 min 0,000 mm 0,0 UV-I 0 W/m 7,5 C 12,6 C 8,0 km/h (2 Bft) 100,00 %
06.04.2016 19:48 12,6 C 71 % 1011,1 hPa 0,0 l/m 3,2 km/h (1 Bft) S 188 0 min 0,000 mm 0,0 UV-I 0 W/m 7,5 C 12,6 C 6,4 km/h (2 Bft) 100,00 %
06.04.2016 19:49 12,6 C 71 % 1011,2 hPa 0,0 l/m 6,0 km/h (2 Bft) S 189 0 min 0,000 mm 0,0 UV-I 0 W/m 7,5 C 12,6 C 8,0 km/h (2 Bft) 100,00 %
06.04.2016 19:50 12,6 C 72 % 1011,1 hPa 0,0 l/m 4,2 km/h (1 Bft) S 189 0 min 0,000 mm 0,0 UV-I 0 W/m 7,7 C 12,6 C 4,8 km/h (1 Bft) 100,00 %
06.04.2016 19:51 12,6 C 72 % 1011,1 hPa 0,0 l/m 3,2 km/h (1 Bft) S-SW 197 0 min 0,000 mm 0,0 UV-I 0 W/m 7,7 C 12,6 C 4,8 km/h (1 Bft) 100,00 %
06.04.2016 19:52 12,6 C 72 % 1011,2 hPa 0,0 l/m 4,1 km/h (1 Bft) S-SW 197 0 min 0,000 mm 0,0 UV-I 0 W/m 7,7 C 12,6 C 4,8 km/h (1 Bft) 100,00 %
06.04.2016 19:53 12,6 C 72 % 1011,1 hPa 0,0 l/m 4,3 km/h (1 Bft) S-SW 197 0 min 0,000 mm 0,0 UV-I 0 W/m 7,7 C 12,6 C 4,8 km/h (1 Bft) 100,00 %
06.04.2016 19:54 12,6 C 72 % 1011,2 hPa 0,0 l/m 3,6 km/h (1 Bft) SW 215 0 min 0,000 mm 0,0 UV-I 0 W/m 7,7 C 12,6 C 4,8 km/h (1 Bft) 100,00 %
06.04.2016 19:55 12,6 C 72 % 1011,2 hPa 0,0 l/m 4,1 km/h (1 Bft) S-SW 196 0 min 0,000 mm 0,0 UV-I 0 W/m 7,7 C 12,6 C 4,8 km/h (1 Bft) 100,00 %
06.04.2016 19:56 12,5 C 73 % 1011,2 hPa 0,0 l/m 3,2 km/h (1 Bft) S-SW 195 0 min 0,000 mm 0,0 UV-I 0 W/m 7,8 C 12,5 C 4,8 km/h (1 Bft) 100,00 %
06.04.2016 19:57 12,4 C 73 % 1011,2 hPa 0,0 l/m 3,5 km/h (1 Bft) S-SW 204 0 min 0,000 mm 0,0 UV-I 0 W/m 7,7 C 12,4 C 6,4 km/h (2 Bft) 100,00 %
06.04.2016 19:58 12,4 C 73 % 1011,2 hPa 0,0 l/m 2,4 km/h (1 Bft) S-SW 204 0 min 0,000 mm 0,0 UV-I 0 W/m 7,7 C 12,4 C 4,8 km/h (1 Bft) 100,00 %
06.04.2016 19:59 12,4 C 73 % 1011,2 hPa 0,0 l/m 3,0 km/h (1 Bft) S-SW 204 0 min 0,000 mm 0,0 UV-I 0 W/m 7,7 C 12,4 C 4,8 km/h (1 Bft) 100,00 %
06.04.2016 20:00 12,4 C 73 % 1011,2 hPa 0,0 l/m 3,8 km/h (1 Bft) S-SW 207 0 min 0,000 mm 0,0 UV-I 0 W/m 7,7 C 12,4 C 4,8 km/h (1 Bft) 100,00 %
06.04.2016 20:01 12,4 C 73 % 1011,2 hPa 0,0 l/m 4,4 km/h (1 Bft) SW 219 0 min 0,026 mm 0,0 UV-I 0 W/m 7,7 C 12,4 C 6,4 km/h (2 Bft) 95,83 %
06.04.2016 20:02 12,4 C 73 % 1011,2 hPa 0,0 l/m 2,7 km/h (1 Bft) SW 219 0 min 0,000 mm 0,0 UV-I 0 W/m 7,7 C 12,4 C 4,8 km/h (1 Bft) 100,00 %
06.04.2016 20:03 12,4 C 74 % 1011,2 hPa 0,0 l/m 3,9 km/h (1 Bft) S-SW 198 0 min 0,000 mm 0,0 UV-I 0 W/m 7,9 C 12,4 C 4,8 km/h (1 Bft) 100,00 %
06.04.2016 20:04 12,3 C 74 % 1011,2 hPa 0,0 l/m 3,1 km/h (1 Bft) S-SW 206 0 min 0,000 mm 0,0 UV-I 0 W/m 7,8 C 12,3 C 4,8 km/h (1 Bft) 100,00 %
06.04.2016 20:05 12,3 C 74 % 1011,3 hPa 0,0 l/m 5,3 km/h (1 Bft) S-SW 195 0 min 0,000 mm 0,0 UV-I 0 W/m 7,8 C 12,3 C 6,4 km/h (2 Bft) 100,00 %
06.04.2016 20:06 12,3 C 74 % 1011,3 hPa 0,0 l/m 2,9 km/h (1 Bft) S-SW 195 0 min 0,000 mm 0,0 UV-I 0 W/m 7,8 C 12,3 C 4,8 km/h (1 Bft) 96,15 %
06.04.2016 20:07 12,3 C 74 % 1011,3 hPa 0,0 l/m 2,7 km/h (1 Bft) S-SW 195 0 min 0,000 mm 0,0 UV-I 0 W/m 7,8 C 12,3 C 3,2 km/h (1 Bft) 100,00 %
06.04.2016 20:08 12,3 C 74 % 1011,3 hPa 0,0 l/m 3,4 km/h (1 Bft) S-SW 195 0 min 0,000 mm 0,0 UV-I 0 W/m 7,8 C 12,3 C 4,8 km/h (1 Bft) 100,00 %
06.04.2016 20:09 12,3 C 74 % 1011,3 hPa 0,0 l/m 4,0 km/h (1 Bft) S-SW 204 0 min 0,000 mm 0,0 UV-I 0 W/m 7,8 C 12,3 C 4,8 km/h (1 Bft) 100,00 %
06.04.2016 20:10 12,3 C 74 % 1011,3 hPa 0,0 l/m 4,5 km/h (1 Bft) S-SW 192 0 min 0,000 mm 0,0 UV-I 0 W/m 7,8 C 12,3 C 6,4 km/h (2 Bft) 100,00 %
06.04.2016 20:11 12,3 C 74 % 1011,3 hPa 0,0 l/m 5,9 km/h (2 Bft) SW 221 0 min 0,000 mm 0,0 UV-I 0 W/m 7,8 C 12,3 C 8,0 km/h (2 Bft) 100,00 %
06.04.2016 20:12 12,3 C 74 % 1011,3 hPa 0,0 l/m 6,7 km/h (2 Bft) S-SW 206 0 min 0,000 mm 0,0 UV-I 0 W/m 7,8 C 12,1 C 8,0 km/h (2 Bft) 100,00 %
06.04.2016 20:13 12,3 C 74 % 1011,3 hPa 0,0 l/m 6,1 km/h (2 Bft) S-SW 192 0 min 0,000 mm 0,0 UV-I 0 W/m 7,8 C 12,3 C 8,0 km/h (2 Bft) 100,00 %
06.04.2016 20:14 12,3 C 74 % 1011,3 hPa 0,0 l/m 5,5 km/h (1 Bft) S-SW 198 0 min 0,000 mm 0,0 UV-I 0 W/m 7,8 C 12,3 C 6,4 km/h (2 Bft) 100,00 %
06.04.2016 20:15 12,3 C 74 % 1011,3 hPa 0,0 l/m 6,2 km/h (2 Bft) S-SW 196 0 min 0,000 mm 0,0 UV-I 0 W/m 7,8 C 12,3 C 9,7 km/h (2 Bft) 100,00 %
06.04.2016 20:16 12,3 C 73 % 1011,3 hPa 0,0 l/m 5,6 km/h (1 Bft) S-SW 192 0 min 0,000 mm 0,0 UV-I 0 W/m 7,6 C 12,3 C 9,7 km/h (2 Bft) 100,00 %
06.04.2016 20:17 12,3 C 74 % 1011,3 hPa 0,0 l/m 4,9 km/h (1 Bft) S 188 0 min 0,000 mm 0,0 UV-I 0 W/m 7,8 C 12,3 C 6,4 km/h (2 Bft) 100,00 %
06.04.2016 20:18 12,3 C 73 % 1011,3 hPa 0,0 l/m 3,4 km/h (1 Bft) S 180 0 min 0,000 mm 0,0 UV-I 0 W/m 7,6 C 12,3 C 4,8 km/h (1 Bft) 100,00 %
06.04.2016 20:19 12,3 C 73 % 1011,3 hPa 0,0 l/m 5,6 km/h (1 Bft) SW 236 0 min 0,000 mm 0,0 UV-I 0 W/m 7,6 C 12,3 C 8,0 km/h (2 Bft) 100,00 %
06.04.2016 20:20 12,3 C 73 % 1011,3 hPa 0,0 l/m 5,1 km/h (1 Bft) SW 221 0 min 0,000 mm 0,0 UV-I 0 W/m 7,6 C 12,3 C 6,4 km/h (2 Bft) 100,00 %
06.04.2016 20:21 12,3 C 73 % 1011,4 hPa 0,0 l/m 5,8 km/h (2 Bft) W-SW 240 0 min 0,000 mm 0,0 UV-I 0 W/m 7,6 C 12,3 C 8,0 km/h (2 Bft) 100,00 %
06.04.2016 20:22 12,3 C 74 % 1011,4 hPa 0,0 l/m 6,3 km/h (2 Bft) W-SW 242 0 min 0,000 mm 0,0 UV-I 0 W/m 7,8 C 12,3 C 8,0 km/h (2 Bft) 100,00 %
06.04.2016 20:23 12,3 C 75 % 1011,4 hPa 0,0 l/m 5,6 km/h (1 Bft) SW 229 0 min 0,000 mm 0,0 UV-I 0 W/m 8,0 C 12,3 C 6,4 km/h (2 Bft) 96,15 %
06.04.2016 20:24 12,3 C 75 % 1011,4 hPa 0,0 l/m 5,1 km/h (1 Bft) SW 228 0 min 0,000 mm 0,0 UV-I 0 W/m 8,0 C 12,3 C 8,0 km/h (2 Bft) 100,00 %
06.04.2016 20:25 12,3 C 75 % 1011,4 hPa 0,0 l/m 5,1 km/h (1 Bft) SW 228 0 min 0,000 mm 0,0 UV-I 0 W/m 8,0 C 12,3 C 6,4 km/h (2 Bft) 100,00 %
06.04.2016 20:26 12,2 C 75 % 1011,5 hPa 0,0 l/m 4,9 km/h (1 Bft) SW 227 0 min 0,000 mm 0,0 UV-I 0 W/m 7,9 C 12,2 C 6,4 km/h (2 Bft) 100,00 %
06.04.2016 20:27 12,2 C 76 % 1011,5 hPa 0,0 l/m 3,8 km/h (1 Bft) SW 235 0 min 0,000 mm 0,0 UV-I 0 W/m 8,1 C 12,2 C 4,8 km/h (1 Bft) 95,65 %
06.04.2016 20:28 12,2 C 76 % 1011,5 hPa 0,0 l/m 4,1 km/h (1 Bft) SW 234 0 min 0,000 mm 0,0 UV-I 0 W/m 8,1 C 12,2 C 6,4 km/h (2 Bft) 100,00 %
06.04.2016 20:29 12,2 C 76 % 1011,5 hPa 0,0 l/m 3,4 km/h (1 Bft) SW 232 0 min 0,000 mm 0,0 UV-I 0 W/m 8,1 C 12,2 C 4,8 km/h (1 Bft) 100,00 %
06.04.2016 20:30 12,1 C 76 % 1011,5 hPa 0,0 l/m 3,9 km/h (1 Bft) SW 232 0 min 0,000 mm 0,0 UV-I 0 W/m 8,0 C 12,1 C 6,4 km/h (2 Bft) 100,00 %
06.04.2016 20:31 12,1 C 77 % 1011,4 hPa 0,0 l/m 4,2 km/h (1 Bft) SW 232 0 min 0,000 mm 0,0 UV-I 0 W/m 8,2 C 12,1 C 6,4 km/h (2 Bft) 100,00 %
06.04.2016 20:32 12,1 C 76 % 1011,5 hPa 0,0 l/m 4,4 km/h (1 Bft) SW 232 0 min 0,000 mm 0,0 UV-I 0 W/m 8,0 C 12,1 C 6,4 km/h (2 Bft) 96,30 %
06.04.2016 20:33 12,0 C 76 % 1011,5 hPa 0,0 l/m 4,7 km/h (1 Bft) SW 222 0 min 0,000 mm 0,0 UV-I 0 W/m 7,9 C 12,0 C 6,4 km/h (2 Bft) 96,15 %
06.04.2016 20:34 12,0 C 77 % 1011,5 hPa 0,0 l/m 4,1 km/h (1 Bft) SW 229 0 min 0,000 mm 0,0 UV-I 0 W/m 8,1 C 12,0 C 6,4 km/h (2 Bft) 100,00 %
06.04.2016 20:35 12,0 C 77 % 1011,5 hPa 0,0 l/m 4,3 km/h (1 Bft) SW 228 0 min 0,000 mm 0,0 UV-I 0 W/m 8,1 C 12,0 C 4,8 km/h (1 Bft) 100,00 %
06.04.2016 20:36 11,9 C 77 % 1011,4 hPa 0,0 l/m 3,4 km/h (1 Bft) SW 229 0 min 0,000 mm 0,0 UV-I 0 W/m 8,0 C 11,9 C 4,8 km/h (1 Bft) 100,00 %
06.04.2016 20:37 11,9 C 78 % 1011,4 hPa 0,0 l/m 2,9 km/h (1 Bft) SW 229 0 min 0,000 mm 0,0 UV-I 0 W/m 8,2 C 11,9 C 4,8 km/h (1 Bft) 100,00 %
06.04.2016 20:38 11,9 C 78 % 1011,5 hPa 0,0 l/m 2,2 km/h (1 Bft) SW 229 0 min 0,000 mm 0,0 UV-I 0 W/m 8,2 C 11,9 C 3,2 km/h (1 Bft) 95,83 %
06.04.2016 20:39 11,9 C 77 % 1011,5 hPa 0,0 l/m 3,1 km/h (1 Bft) SW 229 0 min 0,000 mm 0,0 UV-I 0 W/m 8,0 C 11,9 C 4,8 km/h (1 Bft) 96,15 %
06.04.2016 20:40 11,9 C 77 % 1011,5 hPa 0,0 l/m 2,6 km/h (1 Bft) SW 229 0 min 0,000 mm 0,0 UV-I 0 W/m 8,0 C 11,9 C 3,2 km/h (1 Bft) 100,00 %
06.04.2016 20:41 11,9 C 77 % 1011,5 hPa 0,0 l/m 3,2 km/h (1 Bft) SW 228 0 min 0,000 mm 0,0 UV-I 0 W/m 8,0 C 11,9 C 4,8 km/h (1 Bft) 100,00 %
06.04.2016 20:42 11,8 C 77 % 1011,5 hPa 0,0 l/m 2,5 km/h (1 Bft) SW 229 0 min 0,000 mm 0,0 UV-I 0 W/m 7,9 C 11,8 C 3,2 km/h (1 Bft) 100,00 %
06.04.2016 20:43 11,8 C 77 % 1011,5 hPa 0,0 l/m 2,3 km/h (1 Bft) SW 228 0 min 0,000 mm 0,0 UV-I 0 W/m 7,9 C 11,8 C 4,8 km/h (1 Bft) 100,00 %
06.04.2016 20:44 11,8 C 78 % 1011,5 hPa 0,0 l/m 3,4 km/h (1 Bft) SW 228 0 min 0,000 mm 0,0 UV-I 0 W/m 8,1 C 11,8 C 4,8 km/h (1 Bft) 100,00 %
06.04.2016 20:45 11,8 C 78 % 1011,5 hPa 0,0 l/m 3,3 km/h (1 Bft) SW 228 0 min 0,000 mm 0,0 UV-I 0 W/m 8,1 C 11,8 C 4,8 km/h (1 Bft) 100,00 %
06.04.2016 20:46 11,8 C 78 % 1011,5 hPa 0,0 l/m 3,6 km/h (1 Bft) SW 228 0 min 0,000 mm 0,0 UV-I 0 W/m 8,1 C 11,8 C 4,8 km/h (1 Bft) 100,00 %
06.04.2016 20:47 11,8 C 78 % 1011,5 hPa 0,0 l/m 3,6 km/h (1 Bft) SW 228 0 min 0,000 mm 0,0 UV-I 0 W/m 8,1 C 11,8 C 6,4 km/h (2 Bft) 93,33 %
06.04.2016 20:48 11,8 C 78 % 1011,5 hPa 0,0 l/m 4,0 km/h (1 Bft) SW 228 0 min 0,000 mm 0,0 UV-I 0 W/m 8,1 C 11,8 C 4,8 km/h (1 Bft) 100,00 %
06.04.2016 20:49 11,8 C 77 % 1011,5 hPa 0,0 l/m 2,9 km/h (1 Bft) SW 228 0 min 0,000 mm 0,0 UV-I 0 W/m 7,9 C 11,8 C 4,8 km/h (1 Bft) 95,83 %
06.04.2016 20:50 11,8 C 77 % 1011,5 hPa 0,0 l/m 3,0 km/h (1 Bft) SW 228 0 min 0,000 mm 0,0 UV-I 0 W/m 7,9 C 11,8 C 4,8 km/h (1 Bft) 91,30 %
06.04.2016 20:51 11,8 C 78 % 1011,5 hPa 0,0 l/m 3,2 km/h (1 Bft) SW 228 0 min 0,000 mm 0,0 UV-I 0 W/m 8,1 C 11,8 C 4,8 km/h (1 Bft) 96,30 %
06.04.2016 20:52 11,8 C 78 % 1011,5 hPa 0,0 l/m 3,1 km/h (1 Bft) SW 228 0 min 0,000 mm 0,0 UV-I 0 W/m 8,1 C 11,8 C 4,8 km/h (1 Bft) 95,65 %
06.04.2016 20:53 11,8 C 78 % 1011,5 hPa 0,0 l/m 2,3 km/h (1 Bft) SW 228 0 min 0,000 mm 0,0 UV-I 0 W/m 8,1 C 11,8 C 3,2 km/h (1 Bft) 100,00 %
06.04.2016 20:54 11,8 C 78 % 1011,5 hPa 0,0 l/m 2,8 km/h (1 Bft) SW 228 0 min 0,000 mm 0,0 UV-I 0 W/m 8,1 C 11,8 C 3,2 km/h (1 Bft) 95,65 %
06.04.2016 20:55 11,8 C 78 % 1011,5 hPa 0,0 l/m 3,0 km/h (1 Bft) SW 228 0 min 0,000 mm 0,0 UV-I 0 W/m 8,1 C 11,8 C 4,8 km/h (1 Bft) 100,00 %
06.04.2016 20:56 11,8 C 77 % 1011,5 hPa 0,0 l/m 2,6 km/h (1 Bft) SW 228 0 min 0,000 mm 0,0 UV-I 0 W/m 7,9 C 11,8 C 3,2 km/h (1 Bft) 93,33 %
06.04.2016 20:57 11,8 C 77 % 1011,5 hPa 0,0 l/m 2,8 km/h (1 Bft) SW 228 0 min 0,000 mm 0,0 UV-I 0 W/m 7,9 C 11,8 C 3,2 km/h (1 Bft) 100,00 %
06.04.2016 20:58 11,8 C 77 % 1011,4 hPa 0,0 l/m 3,2 km/h (1 Bft) SW 228 0 min 0,000 mm 0,0 UV-I 0 W/m 7,9 C 11,8 C 4,8 km/h (1 Bft) 95,83 %
06.04.2016 20:59 11,8 C 77 % 1011,5 hPa 0,0 l/m 3,1 km/h (1 Bft) SW 228 0 min 0,000 mm 0,0 UV-I 0 W/m 7,9 C 11,8 C 4,8 km/h (1 Bft) 88,46 %
06.04.2016 21:00 11,8 C 77 % 1011,4 hPa 0,0 l/m 3,5 km/h (1 Bft) SW 228 0 min 0,000 mm 0,0 UV-I 0 W/m 7,9 C 11,8 C 4,8 km/h (1 Bft) 100,00 %
06.04.2016 21:01 11,8 C 77 % 1011,4 hPa 0,0 l/m 2,6 km/h (1 Bft) SW 228 0 min 0,025 mm 0,0 UV-I 0 W/m 7,9 C 11,8 C 3,2 km/h (1 Bft) 96,15 %
06.04.2016 21:02 11,8 C 77 % 1011,4 hPa 0,0 l/m 2,7 km/h (1 Bft) SW 228 0 min 0,000 mm 0,0 UV-I 0 W/m 7,9 C 11,8 C 3,2 km/h (1 Bft) 100,00 %
06.04.2016 21:03 11,8 C 76 % 1011,4 hPa 0,0 l/m 1,8 km/h (1 Bft) SW 228 0 min 0,000 mm 0,0 UV-I 0 W/m 7,7 C 11,8 C 3,2 km/h (1 Bft) 95,65 %
06.04.2016 21:04 11,8 C 76 % 1011,4 hPa 0,0 l/m 1,7 km/h (1 Bft) SW 228 0 min 0,000 mm 0,0 UV-I 0 W/m 7,7 C 11,8 C 3,2 km/h (1 Bft) 100,00 %
06.04.2016 21:05 11,8 C 76 % 1011,4 hPa 0,0 l/m 2,2 km/h (1 Bft) SW 228 0 min 0,000 mm 0,0 UV-I 0 W/m 7,7 C 11,8 C 3,2 km/h (1 Bft) 95,65 %
06.04.2016 21:06 11,8 C 76 % 1011,4 hPa 0,0 l/m 1,4 km/h (1 Bft) SW 228 0 min 0,000 mm 0,0 UV-I 0 W/m 7,7 C 11,8 C 1,6 km/h (1 Bft) 96,30 %
06.04.2016 21:07 11,8 C 77 % 1011,4 hPa 0,0 l/m 1,1 km/h (1 Bft) SW 228 0 min 0,000 mm 0,0 UV-I 0 W/m 7,9 C 11,8 C 3,2 km/h (1 Bft) 100,00 %
06.04.2016 21:08 11,8 C 78 % 1011,4 hPa 0,0 l/m 0,5 km/h (0 Bft) SW 228 0 min 0,000 mm 0,0 UV-I 0 W/m 8,1 C 11,8 C 1,6 km/h (1 Bft) 95,83 %
06.04.2016 21:09 11,8 C 79 % 1011,3 hPa 0,0 l/m 0,0 km/h (0 Bft) SW 228 0 min 0,000 mm 0,0 UV-I 0 W/m 8,3 C 11,8 C 0,0 km/h (0 Bft) 100,00 %
06.04.2016 21:10 11,8 C 78 % 1011,3 hPa 0,0 l/m 0,1 km/h (0 Bft) SW 228 0 min 0,000 mm 0,0 UV-I 0 W/m 8,1 C 11,8 C 1,6 km/h (1 Bft) 95,83 %
06.04.2016 21:11 11,7 C 79 % 1011,3 hPa 0,0 l/m 0,7 km/h (0 Bft) SW 228 0 min 0,000 mm 0,0 UV-I 0 W/m 8,2 C 11,7 C 1,6 km/h (1 Bft) 100,00 %
06.04.2016 21:12 11,7 C 79 % 1011,4 hPa 0,0 l/m 0,5 km/h (0 Bft) SW 228 0 min 0,000 mm 0,0 UV-I 0 W/m 8,2 C 11,7 C 1,6 km/h (1 Bft) 96,30 %
06.04.2016 21:13 11,7 C 80 % 1011,3 hPa 0,0 l/m 0,6 km/h (0 Bft) SW 228 0 min 0,000 mm 0,0 UV-I 0 W/m 8,4 C 11,7 C 1,6 km/h (1 Bft) 96,15 %
06.04.2016 21:14 11,6 C 80 % 1011,3 hPa 0,0 l/m 1,3 km/h (1 Bft) SW 228 0 min 0,000 mm 0,0 UV-I 0 W/m 8,3 C 11,6 C 3,2 km/h (1 Bft) 100,00 %
06.04.2016 21:15 11,6 C 80 % 1011,3 hPa 0,0 l/m 1,5 km/h (1 Bft) SW 228 0 min 0,000 mm 0,0 UV-I 0 W/m 8,3 C 11,6 C 3,2 km/h (1 Bft) 95,65 %
06.04.2016 21:16 11,5 C 80 % 1011,3 hPa 0,0 l/m 1,6 km/h (1 Bft) SW 228 0 min 0,000 mm 0,0 UV-I 0 W/m 8,2 C 11,5 C 3,2 km/h (1 Bft) 100,00 %
06.04.2016 21:17 11,5 C 80 % 1011,2 hPa 0,0 l/m 1,1 km/h (1 Bft) SW 228 0 min 0,000 mm 0,0 UV-I 0 W/m 8,2 C 11,5 C 1,6 km/h (1 Bft) 100,00 %
06.04.2016 21:18 11,4 C 80 % 1011,2 hPa 0,0 l/m 1,4 km/h (1 Bft) SW 228 0 min 0,000 mm 0,0 UV-I 0 W/m 8,1 C 11,4 C 3,2 km/h (1 Bft) 95,65 %
06.04.2016 21:19 11,4 C 81 % 1011,2 hPa 0,0 l/m 1,4 km/h (1 Bft) SW 228 0 min 0,000 mm 0,0 UV-I 0 W/m 8,3 C 11,4 C 3,2 km/h (1 Bft) 95,83 %
06.04.2016 21:20 11,4 C 80 % 1011,2 hPa 0,0 l/m 1,1 km/h (1 Bft) SW 228 0 min 0,000 mm 0,0 UV-I 0 W/m 8,1 C 11,4 C 1,6 km/h (1 Bft) 96,55 %
06.04.2016 21:21 11,4 C 80 % 1011,2 hPa 0,0 l/m 1,1 km/h (1 Bft) SW 228 0 min 0,000 mm 0,0 UV-I 0 W/m 8,1 C 11,4 C 1,6 km/h (1 Bft) 96,30 %
06.04.2016 21:22 11,4 C 80 % 1011,2 hPa 0,0 l/m 1,0 km/h (0 Bft) SW 228 0 min 0,000 mm 0,0 UV-I 0 W/m 8,1 C 11,4 C 1,6 km/h (1 Bft) 100,00 %
06.04.2016 21:23 11,4 C 79 % 1011,2 hPa 0,0 l/m 0,7 km/h (0 Bft) SW 228 0 min 0,000 mm 0,0 UV-I 0 W/m 7,9 C 11,4 C 1,6 km/h (1 Bft) 100,00 %
06.04.2016 21:24 11,4 C 79 % 1011,2 hPa 0,0 l/m 0,4 km/h (0 Bft) SW 228 0 min 0,000 mm 0,0 UV-I 0 W/m 7,9 C 11,4 C 1,6 km/h (1 Bft) 95,65 %
06.04.2016 21:25 11,4 C 79 % 1011,2 hPa 0,0 l/m 0,4 km/h (0 Bft) SW 228 0 min 0,000 mm 0,0 UV-I 0 W/m 7,9 C 11,4 C 1,6 km/h (1 Bft) 100,00 %
06.04.2016 21:26 11,4 C 80 % 1011,2 hPa 0,0 l/m 0,6 km/h (0 Bft) SW 228 0 min 0,000 mm 0,0 UV-I 0 W/m 8,1 C 11,4 C 1,6 km/h (1 Bft) 100,00 %
06.04.2016 21:27 11,4 C 80 % 1011,2 hPa 0,0 l/m 0,8 km/h (0 Bft) SW 228 0 min 0,000 mm 0,0 UV-I 0 W/m 8,1 C 11,4 C 1,6 km/h (1 Bft) 100,00 %
06.04.2016 21:28 11,4 C 80 % 1011,2 hPa 0,0 l/m 0,1 km/h (0 Bft) SW 228 0 min 0,000 mm 0,0 UV-I 0 W/m 8,1 C 11,4 C 1,6 km/h (1 Bft) 100,00 %
06.04.2016 21:29 11,4 C 79 % 1011,2 hPa 0,0 l/m 0,9 km/h (0 Bft) SW 228 0 min 0,000 mm 0,0 UV-I 0 W/m 7,9 C 11,4 C 1,6 km/h (1 Bft) 95,83 %
06.04.2016 21:30 11,4 C 80 % 1011,2 hPa 0,0 l/m 1,5 km/h (1 Bft) SW 228 0 min 0,000 mm 0,0 UV-I 0 W/m 8,1 C 11,4 C 3,2 km/h (1 Bft) 100,00 %
06.04.2016 21:31 11,4 C 79 % 1011,2 hPa 0,0 l/m 1,7 km/h (1 Bft) SW 228 0 min 0,000 mm 0,0 UV-I 0 W/m 7,9 C 11,4 C 3,2 km/h (1 Bft) 100,00 %
06.04.2016 21:32 11,4 C 79 % 1011,1 hPa 0,0 l/m 2,1 km/h (1 Bft) SW 228 0 min 0,000 mm 0,0 UV-I 0 W/m 7,9 C 11,4 C 3,2 km/h (1 Bft) 100,00 %
06.04.2016 21:33 11,4 C 79 % 1011,2 hPa 0,0 l/m 2,2 km/h (1 Bft) SW 228 0 min 0,000 mm 0,0 UV-I 0 W/m 7,9 C 11,4 C 3,2 km/h (1 Bft) 91,67 %
06.04.2016 21:34 11,4 C 79 % 1011,2 hPa 0,0 l/m 0,6 km/h (0 Bft) SW 228 0 min 0,000 mm 0,0 UV-I 0 W/m 7,9 C 11,4 C 1,6 km/h (1 Bft) 100,00 %
06.04.2016 21:35 11,5 C 79 % 1011,1 hPa 0,0 l/m 0,9 km/h (0 Bft) SW 228 0 min 0,000 mm 0,0 UV-I 0 W/m 8,0 C 11,5 C 1,6 km/h (1 Bft) 100,00 %
06.04.2016 21:36 11,5 C 79 % 1011,1 hPa 0,0 l/m 0,1 km/h (0 Bft) SW 228 0 min 0,000 mm 0,0 UV-I 0 W/m 8,0 C 11,5 C 1,6 km/h (1 Bft) 100,00 %
06.04.2016 21:37 11,5 C 78 % 1011,1 hPa 0,0 l/m 0,4 km/h (0 Bft) SW 228 0 min 0,000 mm 0,0 UV-I 0 W/m 7,8 C 11,5 C 1,6 km/h (1 Bft) 100,00 %
06.04.2016 21:38 11,6 C 79 % 1011,1 hPa 0,0 l/m 2,1 km/h (1 Bft) SW 228 0 min 0,000 mm 0,0 UV-I 0 W/m 8,1 C 11,6 C 3,2 km/h (1 Bft) 100,00 %
06.04.2016 21:39 11,6 C 78 % 1011,1 hPa 0,0 l/m 2,3 km/h (1 Bft) SW 228 0 min 0,000 mm 0,0 UV-I 0 W/m 7,9 C 11,6 C 3,2 km/h (1 Bft) 100,00 %
06.04.2016 21:40 11,6 C 78 % 1011,1 hPa 0,0 l/m 1,7 km/h (1 Bft) SW 227 0 min 0,000 mm 0,0 UV-I 0 W/m 7,9 C 11,6 C 3,2 km/h (1 Bft) 100,00 %
06.04.2016 21:41 11,6 C 77 % 1011,1 hPa 0,0 l/m 1,6 km/h (1 Bft) SW 223 0 min 0,000 mm 0,0 UV-I 0 W/m 7,7 C 11,6 C 3,2 km/h (1 Bft) 100,00 %
06.04.2016 21:42 11,6 C 77 % 1011,1 hPa 0,0 l/m 2,4 km/h (1 Bft) SW 219 0 min 0,000 mm 0,0 UV-I 0 W/m 7,7 C 11,6 C 4,8 km/h (1 Bft) 100,00 %
06.04.2016 21:43 11,7 C 77 % 1011,1 hPa 0,0 l/m 1,8 km/h (1 Bft) S 184 0 min 0,000 mm 0,0 UV-I 0 W/m 7,8 C 11,7 C 3,2 km/h (1 Bft) 100,00 %
06.04.2016 21:44 11,7 C 77 % 1011,1 hPa 0,0 l/m 2,3 km/h (1 Bft) S 184 0 min 0,000 mm 0,0 UV-I 0 W/m 7,8 C 11,7 C 4,8 km/h (1 Bft) 100,00 %
06.04.2016 21:45 11,7 C 77 % 1011,1 hPa 0,0 l/m 2,4 km/h (1 Bft) S 184 0 min 0,000 mm 0,0 UV-I 0 W/m 7,8 C 11,7 C 3,2 km/h (1 Bft) 92,86 %
06.04.2016 21:46 11,7 C 77 % 1011,2 hPa 0,0 l/m 2,4 km/h (1 Bft) S 184 0 min 0,000 mm 0,0 UV-I 0 W/m 7,8 C 11,7 C 4,8 km/h (1 Bft) 100,00 %
06.04.2016 21:47 11,7 C 77 % 1011,2 hPa 0,0 l/m 1,8 km/h (1 Bft) S 184 0 min 0,000 mm 0,0 UV-I 0 W/m 7,8 C 11,7 C 3,2 km/h (1 Bft) 100,00 %
06.04.2016 21:48 11,7 C 77 % 1011,2 hPa 0,0 l/m 1,3 km/h (1 Bft) S 184 0 min 0,000 mm 0,0 UV-I 0 W/m 7,8 C 11,7 C 3,2 km/h (1 Bft) 100,00 %
06.04.2016 21:49 11,7 C 77 % 1011,2 hPa 0,0 l/m 1,2 km/h (1 Bft) S 184 0 min 0,000 mm 0,0 UV-I 0 W/m 7,8 C 11,7 C 3,2 km/h (1 Bft) 100,00 %
06.04.2016 21:50 11,7 C 77 % 1011,2 hPa 0,0 l/m 3,1 km/h (1 Bft) S 183 0 min 0,000 mm 0,0 UV-I 0 W/m 7,8 C 11,7 C 4,8 km/h (1 Bft) 100,00 %
06.04.2016 21:51 11,7 C 77 % 1011,2 hPa 0,0 l/m 2,6 km/h (1 Bft) S 183 0 min 0,000 mm 0,0 UV-I 0 W/m 7,8 C 11,7 C 4,8 km/h (1 Bft) 98,73 %
06.04.2016 21:52 11,7 C 77 % 1011,1 hPa 0,0 l/m 1,9 km/h (1 Bft) S 183 0 min 0,000 mm 0,0 UV-I 0 W/m 7,8 C 11,7 C 3,2 km/h (1 Bft) 100,00 %
06.04.2016 21:53 11,7 C 77 % 1011,1 hPa 0,0 l/m 1,0 km/h (0 Bft) S 183 0 min 0,000 mm 0,0 UV-I 0 W/m 7,8 C 11,7 C 1,6 km/h (1 Bft) 100,00 %
06.04.2016 21:54 11,7 C 77 % 1011,2 hPa 0,0 l/m 2,1 km/h (1 Bft) S 183 0 min 0,000 mm 0,0 UV-I 0 W/m 7,8 C 11,7 C 3,2 km/h (1 Bft) 100,00 %
06.04.2016 21:55 11,7 C 77 % 1011,1 hPa 0,0 l/m 1,1 km/h (1 Bft) S 183 0 min 0,000 mm 0,0 UV-I 0 W/m 7,8 C 11,7 C 1,6 km/h (1 Bft) 100,00 %
06.04.2016 21:56 11,7 C 78 % 1011,2 hPa 0,0 l/m 0,3 km/h (0 Bft) S 183 0 min 0,000 mm 0,0 UV-I 0 W/m 8,0 C 11,7 C 1,6 km/h (1 Bft) 100,00 %
06.04.2016 21:57 11,7 C 77 % 1011,1 hPa 0,0 l/m 0,0 km/h (0 Bft) S 183 0 min 0,000 mm 0,0 UV-I 0 W/m 7,8 C 11,7 C 0,0 km/h (0 Bft) 100,00 %
06.04.2016 21:58 11,7 C 77 % 1011,1 hPa 0,0 l/m 0,0 km/h (0 Bft) S 183 0 min 0,000 mm 0,0 UV-I 0 W/m 7,8 C 11,7 C 0,0 km/h (0 Bft) 100,00 %
06.04.2016 21:59 11,6 C 78 % 1011,1 hPa 0,0 l/m 0,0 km/h (0 Bft) S 183 0 min 0,000 mm 0,0 UV-I 0 W/m 7,9 C 11,6 C 0,0 km/h (0 Bft) 100,00 %
06.04.2016 22:00 11,6 C 79 % 1011,0 hPa 0,0 l/m 0,0 km/h (0 Bft) S 183 0 min 0,000 mm 0,0 UV-I 0 W/m 8,1 C 11,6 C 0,0 km/h (0 Bft) 100,00 %
06.04.2016 22:01 11,6 C 79 % 1011,1 hPa 0,0 l/m 0,0 km/h (0 Bft) S 183 0 min 0,000 mm 0,0 UV-I 0 W/m 8,1 C 11,6 C 0,0 km/h (0 Bft) 100,00 %
06.04.2016 22:02 11,5 C 79 % 1011,0 hPa 0,0 l/m 0,0 km/h (0 Bft) S 183 0 min 0,000 mm 0,0 UV-I 0 W/m 8,0 C 11,5 C 0,0 km/h (0 Bft) 95,65 %
06.04.2016 22:03 11,4 C 79 % 1011,1 hPa 0,0 l/m 0,0 km/h (0 Bft) S 183 0 min 0,000 mm 0,0 UV-I 0 W/m 7,9 C 11,4 C 0,0 km/h (0 Bft) 100,00 %
06.04.2016 22:04 11,4 C 79 % 1011,0 hPa 0,0 l/m 0,0 km/h (0 Bft) S 183 0 min 0,000 mm 0,0 UV-I 0 W/m 7,9 C 11,4 C 0,0 km/h (0 Bft) 100,00 %
06.04.2016 22:05 11,4 C 79 % 1011,0 hPa 0,0 l/m 0,0 km/h (0 Bft) S 183 0 min 0,000 mm 0,0 UV-I 0 W/m 7,9 C 11,4 C 0,0 km/h (0 Bft) 100,00 %
06.04.2016 22:06 11,4 C 79 % 1011,0 hPa 0,0 l/m 0,0 km/h (0 Bft) S 183 0 min 0,000 mm 0,0 UV-I 0 W/m 7,9 C 11,4 C 0,0 km/h (0 Bft) 100,00 %
06.04.2016 22:07 11,4 C 79 % 1011,0 hPa 0,0 l/m 0,0 km/h (0 Bft) S 183 0 min 0,000 mm 0,0 UV-I 0 W/m 7,9 C 11,4 C 0,0 km/h (0 Bft) 100,00 %
06.04.2016 22:08 11,4 C 80 % 1011,1 hPa 0,0 l/m 0,0 km/h (0 Bft) S 183 0 min 0,000 mm 0,0 UV-I 0 W/m 8,1 C 11,4 C 0,0 km/h (0 Bft) 92,31 %
06.04.2016 22:09 11,3 C 80 % 1011,0 hPa 0,0 l/m 0,5 km/h (0 Bft) S 183 0 min 0,000 mm 0,0 UV-I 0 W/m 8,0 C 11,3 C 1,6 km/h (1 Bft) 100,00 %
06.04.2016 22:10 11,3 C 80 % 1011,0 hPa 0,0 l/m 1,3 km/h (1 Bft) S 183 0 min 0,000 mm 0,0 UV-I 0 W/m 8,0 C 11,3 C 1,6 km/h (1 Bft) 100,00 %
06.04.2016 22:11 11,3 C 80 % 1011,0 hPa 0,0 l/m 0,3 km/h (0 Bft) S 183 0 min 0,000 mm 0,0 UV-I 0 W/m 8,0 C 11,3 C 1,6 km/h (1 Bft) 100,00 %
06.04.2016 22:12 11,3 C 81 % 1011,0 hPa 0,0 l/m 0,5 km/h (0 Bft) S 183 0 min 0,000 mm 0,0 UV-I 0 W/m 8,2 C 11,3 C 1,6 km/h (1 Bft) 100,00 %
06.04.2016 22:13 11,3 C 81 % 1011,1 hPa 0,0 l/m 2,9 km/h (1 Bft) S 183 0 min 0,000 mm 0,0 UV-I 0 W/m 8,2 C 11,3 C 3,2 km/h (1 Bft) 100,00 %
06.04.2016 22:14 11,2 C 81 % 1011,1 hPa 0,0 l/m 1,7 km/h (1 Bft) S 183 0 min 0,000 mm 0,0 UV-I 0 W/m 8,1 C 11,2 C 3,2 km/h (1 Bft) 100,00 %
06.04.2016 22:15 11,2 C 81 % 1011,1 hPa 0,0 l/m 2,0 km/h (1 Bft) S 182 0 min 0,000 mm 0,0 UV-I 0 W/m 8,1 C 11,2 C 3,2 km/h (1 Bft) 100,00 %
06.04.2016 22:16 11,2 C 81 % 1011,1 hPa 0,0 l/m 0,6 km/h (0 Bft) S 182 0 min 0,000 mm 0,0 UV-I 0 W/m 8,1 C 11,2 C 1,6 km/h (1 Bft) 95,83 %
06.04.2016 22:17 11,2 C 81 % 1011,1 hPa 0,0 l/m 1,1 km/h (1 Bft) S 182 0 min 0,000 mm 0,0 UV-I 0 W/m 8,1 C 11,2 C 3,2 km/h (1 Bft) 100,00 %
06.04.2016 22:18 11,2 C 81 % 1011,1 hPa 0,0 l/m 2,8 km/h (1 Bft) S 182 0 min 0,000 mm 0,0 UV-I 0 W/m 8,1 C 11,2 C 4,8 km/h (1 Bft) 100,00 %
06.04.2016 22:19 11,2 C 80 % 1011,2 hPa 0,0 l/m 2,5 km/h (1 Bft) S 182 0 min 0,000 mm 0,0 UV-I 0 W/m 7,9 C 11,2 C 3,2 km/h (1 Bft) 100,00 %
06.04.2016 22:20 11,2 C 80 % 1011,2 hPa 0,0 l/m 2,7 km/h (1 Bft) S 182 0 min 0,000 mm 0,0 UV-I 0 W/m 7,9 C 11,2 C 3,2 km/h (1 Bft) 100,00 %
06.04.2016 22:21 11,3 C 80 % 1011,1 hPa 0,0 l/m 2,1 km/h (1 Bft) S 182 0 min 0,000 mm 0,0 UV-I 0 W/m 8,0 C 11,3 C 4,8 km/h (1 Bft) 100,00 %
06.04.2016 22:22 11,3 C 79 % 1011,1 hPa 0,0 l/m 1,3 km/h (1 Bft) S 182 0 min 0,000 mm 0,0 UV-I 0 W/m 7,8 C 11,3 C 3,2 km/h (1 Bft) 100,00 %
06.04.2016 22:23 11,3 C 80 % 1011,1 hPa 0,0 l/m 2,5 km/h (1 Bft) S 182 0 min 0,000 mm 0,0 UV-I 0 W/m 8,0 C 11,3 C 4,8 km/h (1 Bft) 100,00 %
06.04.2016 22:24 11,3 C 79 % 1011,1 hPa 0,0 l/m 2,5 km/h (1 Bft) S 182 0 min 0,000 mm 0,0 UV-I 0 W/m 7,8 C 11,3 C 4,8 km/h (1 Bft) 100,00 %
06.04.2016 22:25 11,3 C 79 % 1011,2 hPa 0,0 l/m 3,2 km/h (1 Bft) S 182 0 min 0,000 mm 0,0 UV-I 0 W/m 7,8 C 11,3 C 6,4 km/h (2 Bft) 100,00 %
06.04.2016 22:26 11,4 C 80 % 1011,2 hPa 0,0 l/m 5,1 km/h (1 Bft) S 181 0 min 0,000 mm 0,0 UV-I 0 W/m 8,1 C 11,4 C 6,4 km/h (2 Bft) 95,83 %
06.04.2016 22:27 11,4 C 80 % 1011,2 hPa 0,0 l/m 4,7 km/h (1 Bft) S 182 0 min 0,000 mm 0,0 UV-I 0 W/m 8,1 C 11,4 C 6,4 km/h (2 Bft) 100,00 %
06.04.2016 22:28 11,4 C 80 % 1011,2 hPa 0,0 l/m 4,4 km/h (1 Bft) S 188 0 min 0,000 mm 0,0 UV-I 0 W/m 8,1 C 11,4 C 4,8 km/h (1 Bft) 100,00 %
06.04.2016 22:29 11,3 C 80 % 1011,2 hPa 0,0 l/m 3,9 km/h (1 Bft) S 190 0 min 0,000 mm 0,0 UV-I 0 W/m 8,0 C 11,3 C 6,4 km/h (2 Bft) 100,00 %
06.04.2016 22:30 11,3 C 80 % 1011,2 hPa 0,0 l/m 3,1 km/h (1 Bft) S 190 0 min 0,000 mm 0,0 UV-I 0 W/m 8,0 C 11,3 C 4,8 km/h (1 Bft) 100,00 %
06.04.2016 22:31 11,3 C 81 % 1011,2 hPa 0,0 l/m 3,8 km/h (1 Bft) S 190 0 min 0,000 mm 0,0 UV-I 0 W/m 8,2 C 11,3 C 4,8 km/h (1 Bft) 92,86 %
06.04.2016 22:32 11,3 C 82 % 1011,3 hPa 0,0 l/m 3,3 km/h (1 Bft) S 190 0 min 0,000 mm 0,0 UV-I 0 W/m 8,3 C 11,3 C 4,8 km/h (1 Bft) 96,30 %
06.04.2016 22:33 11,2 C 82 % 1011,3 hPa 0,0 l/m 3,9 km/h (1 Bft) S 190 0 min 0,000 mm 0,0 UV-I 0 W/m 8,2 C 11,2 C 4,8 km/h (1 Bft) 100,00 %
06.04.2016 22:34 11,2 C 82 % 1011,3 hPa 0,0 l/m 2,3 km/h (1 Bft) S 190 0 min 0,000 mm 0,0 UV-I 0 W/m 8,2 C 11,2 C 3,2 km/h (1 Bft) 100,00 %
06.04.2016 22:35 11,2 C 82 % 1011,2 hPa 0,0 l/m 3,4 km/h (1 Bft) S 190 0 min 0,000 mm 0,0 UV-I 0 W/m 8,2 C 11,2 C 4,8 km/h (1 Bft) 95,65 %
06.04.2016 22:36 11,2 C 82 % 1011,2 hPa 0,0 l/m 1,9 km/h (1 Bft) S 190 0 min 0,000 mm 0,0 UV-I 0 W/m 8,2 C 11,2 C 3,2 km/h (1 Bft) 100,00 %
06.04.2016 22:37 11,1 C 83 % 1011,2 hPa 0,0 l/m 1,9 km/h (1 Bft) S 190 0 min 0,000 mm 0,0 UV-I 0 W/m 8,3 C 11,1 C 3,2 km/h (1 Bft) 100,00 %
06.04.2016 22:38 11,1 C 83 % 1011,2 hPa 0,0 l/m 2,3 km/h (1 Bft) S 184 0 min 0,000 mm 0,0 UV-I 0 W/m 8,3 C 11,1 C 4,8 km/h (1 Bft) 100,00 %
06.04.2016 22:39 11,1 C 83 % 1011,2 hPa 0,0 l/m 2,8 km/h (1 Bft) S 182 0 min 0,000 mm 0,0 UV-I 0 W/m 8,3 C 11,1 C 4,8 km/h (1 Bft) 100,00 %
06.04.2016 22:40 11,1 C 84 % 1011,2 hPa 0,0 l/m 3,8 km/h (1 Bft) SO 134 0 min 0,000 mm 0,0 UV-I 0 W/m 8,5 C 11,1 C 6,4 km/h (2 Bft) 100,00 %
06.04.2016 22:41 11,0 C 85 % 1011,1 hPa 0,0 l/m 4,9 km/h (1 Bft) SO 142 0 min 0,000 mm 0,0 UV-I 0 W/m 8,6 C 11,0 C 6,4 km/h (2 Bft) 100,00 %
06.04.2016 22:42 10,9 C 85 % 1011,1 hPa 0,0 l/m 2,9 km/h (1 Bft) S-SO 151 0 min 0,000 mm 0,0 UV-I 0 W/m 8,5 C 10,9 C 4,8 km/h (1 Bft) 100,00 %
06.04.2016 22:43 10,9 C 85 % 1011,1 hPa 0,0 l/m 1,9 km/h (1 Bft) S-SO 157 0 min 0,000 mm 0,0 UV-I 0 W/m 8,5 C 10,9 C 4,8 km/h (1 Bft) 100,00 %
06.04.2016 22:44 10,8 C 85 % 1011,1 hPa 0,0 l/m 2,3 km/h (1 Bft) SO 136 0 min 0,000 mm 0,0 UV-I 0 W/m 8,4 C 10,8 C 4,8 km/h (1 Bft) 95,65 %
06.04.2016 22:45 10,8 C 86 % 1011,0 hPa 0,2 l/m 4,4 km/h (1 Bft) S-SO 153 0 min 0,000 mm 0,0 UV-I 0 W/m 8,6 C 10,8 C 8,0 km/h (2 Bft) 100,00 %
06.04.2016 22:46 10,8 C 86 % 1011,0 hPa 0,0 l/m 3,7 km/h (1 Bft) S-SO 159 0 min 0,000 mm 0,0 UV-I 0 W/m 8,6 C 10,8 C 6,4 km/h (2 Bft) 100,00 %
06.04.2016 22:47 10,7 C 85 % 1011,0 hPa 0,0 l/m 2,0 km/h (1 Bft) S-SO 154 0 min 0,000 mm 0,0 UV-I 0 W/m 8,3 C 10,7 C 4,8 km/h (1 Bft) 100,00 %
06.04.2016 22:48 10,7 C 85 % 1011,0 hPa 0,0 l/m 1,8 km/h (1 Bft) S-SO 153 0 min 0,000 mm 0,0 UV-I 0 W/m 8,3 C 10,7 C 4,8 km/h (1 Bft) 100,00 %
06.04.2016 22:49 10,7 C 85 % 1011,0 hPa 0,0 l/m 2,3 km/h (1 Bft) S-SO 157 0 min 0,000 mm 0,0 UV-I 0 W/m 8,3 C 10,7 C 3,2 km/h (1 Bft) 97,56 %
06.04.2016 22:50 10,7 C 85 % 1011,0 hPa 0,0 l/m 1,5 km/h (1 Bft) S-SO 157 0 min 0,000 mm 0,0 UV-I 0 W/m 8,3 C 10,7 C 3,2 km/h (1 Bft) 91,30 %
06.04.2016 22:51 10,7 C 86 % 1011,0 hPa 0,0 l/m 1,8 km/h (1 Bft) S-SO 158 0 min 0,000 mm 0,0 UV-I 0 W/m 8,5 C 10,7 C 3,2 km/h (1 Bft) 100,00 %
06.04.2016 22:52 10,7 C 85 % 1011,0 hPa 0,0 l/m 2,1 km/h (1 Bft) S 174 0 min 0,000 mm 0,0 UV-I 0 W/m 8,3 C 10,7 C 4,8 km/h (1 Bft) 98,76 %
06.04.2016 22:53 10,7 C 86 % 1011,0 hPa 0,0 l/m 2,0 km/h (1 Bft) S 169 0 min 0,000 mm 0,0 UV-I 0 W/m 8,5 C 10,7 C 6,4 km/h (2 Bft) 97,56 %
06.04.2016 22:54 10,7 C 86 % 1011,1 hPa 0,0 l/m 2,9 km/h (1 Bft) S 169 0 min 0,000 mm 0,0 UV-I 0 W/m 8,5 C 10,7 C 6,4 km/h (2 Bft) 92,31 %
06.04.2016 22:55 10,7 C 86 % 1011,1 hPa 0,0 l/m 3,0 km/h (1 Bft) S 169 0 min 0,000 mm 0,0 UV-I 0 W/m 8,5 C 10,7 C 6,4 km/h (2 Bft) 100,00 %
06.04.2016 22:56 10,7 C 86 % 1011,1 hPa 0,0 l/m 1,9 km/h (1 Bft) S 169 0 min 0,000 mm 0,0 UV-I 0 W/m 8,5 C 10,7 C 3,2 km/h (1 Bft) 96,15 %
06.04.2016 22:57 10,7 C 86 % 1011,1 hPa 0,0 l/m 3,1 km/h (1 Bft) S 169 0 min 0,000 mm 0,0 UV-I 0 W/m 8,5 C 10,7 C 6,4 km/h (2 Bft) 95,83 %
06.04.2016 22:58 10,7 C 86 % 1011,1 hPa 0,0 l/m 3,4 km/h (1 Bft) S 169 0 min 0,000 mm 0,0 UV-I 0 W/m 8,5 C 10,7 C 6,4 km/h (2 Bft) 100,00 %
06.04.2016 22:59 10,7 C 86 % 1011,1 hPa 0,0 l/m 4,0 km/h (1 Bft) S 173 0 min 0,000 mm 0,0 UV-I 0 W/m 8,5 C 10,7 C 6,4 km/h (2 Bft) 100,00 %
06.04.2016 23:00 10,7 C 86 % 1011,1 hPa 0,0 l/m 4,6 km/h (1 Bft) S 173 0 min 0,000 mm 0,0 UV-I 0 W/m 8,5 C 10,7 C 4,8 km/h (1 Bft) 95,83 %
06.04.2016 23:01 10,7 C 86 % 1011,1 hPa 0,0 l/m 3,2 km/h (1 Bft) S-SO 163 0 min 0,000 mm 0,0 UV-I 0 W/m 8,5 C 10,7 C 4,8 km/h (1 Bft) 92,31 %
06.04.2016 23:02 10,6 C 86 % 1011,2 hPa 0,0 l/m 1,6 km/h (1 Bft) S-SO 165 0 min 0,000 mm 0,0 UV-I 0 W/m 8,4 C 10,6 C 3,2 km/h (1 Bft) 100,00 %
06.04.2016 23:03 10,6 C 87 % 1011,1 hPa 0,0 l/m 2,2 km/h (1 Bft) S-SO 165 0 min 0,000 mm 0,0 UV-I 0 W/m 8,5 C 10,6 C 3,2 km/h (1 Bft) 96,15 %
06.04.2016 23:04 10,6 C 87 % 1011,2 hPa 0,0 l/m 1,9 km/h (1 Bft) S-SO 165 0 min 0,000 mm 0,0 UV-I 0 W/m 8,5 C 10,6 C 3,2 km/h (1 Bft) 100,00 %
06.04.2016 23:05 10,6 C 87 % 1011,2 hPa 0,0 l/m 2,1 km/h (1 Bft) S-SO 165 0 min 0,000 mm 0,0 UV-I 0 W/m 8,5 C 10,6 C 3,2 km/h (1 Bft) 95,65 %
06.04.2016 23:06 10,6 C 87 % 1011,2 hPa 0,0 l/m 2,2 km/h (1 Bft) S-SO 165 0 min 0,000 mm 0,0 UV-I 0 W/m 8,5 C 10,6 C 3,2 km/h (1 Bft) 100,00 %
06.04.2016 23:07 10,6 C 87 % 1011,2 hPa 0,0 l/m 2,5 km/h (1 Bft) S-SO 166 0 min 0,000 mm 0,0 UV-I 0 W/m 8,5 C 10,6 C 4,8 km/h (1 Bft) 96,00 %
06.04.2016 23:08 10,6 C 87 % 1011,2 hPa 0,0 l/m 4,9 km/h (1 Bft) S-SO 163 0 min 0,000 mm 0,0 UV-I 0 W/m 8,5 C 10,6 C 6,4 km/h (2 Bft) 92,59 %
06.04.2016 23:09 10,5 C 87 % 1011,2 hPa 0,0 l/m 4,3 km/h (1 Bft) S 190 0 min 0,000 mm 0,0 UV-I 0 W/m 8,4 C 10,5 C 8,0 km/h (2 Bft) 100,00 %
06.04.2016 23:10 10,5 C 87 % 1011,3 hPa 0,0 l/m 4,6 km/h (1 Bft) S-SO 168 0 min 0,000 mm 0,0 UV-I 0 W/m 8,4 C 10,5 C 9,7 km/h (2 Bft) 95,83 %
06.04.2016 23:11 10,5 C 87 % 1011,3 hPa 0,0 l/m 6,3 km/h (2 Bft) S-SW 199 0 min 0,000 mm 0,0 UV-I 0 W/m 8,4 C 10,5 C 9,7 km/h (2 Bft) 96,15 %
06.04.2016 23:12 10,5 C 87 % 1011,4 hPa 0,0 l/m 6,5 km/h (2 Bft) S 169 0 min 0,000 mm 0,0 UV-I 0 W/m 8,4 C 10,5 C 11,3 km/h (2 Bft) 95,83 %
06.04.2016 23:13 10,5 C 87 % 1011,4 hPa 0,0 l/m 6,4 km/h (2 Bft) S 182 0 min 0,000 mm 0,0 UV-I 0 W/m 8,4 C 10,5 C 9,7 km/h (2 Bft) 100,00 %
06.04.2016 23:14 10,5 C 87 % 1011,4 hPa 0,0 l/m 6,1 km/h (2 Bft) S 171 0 min 0,000 mm 0,0 UV-I 0 W/m 8,4 C 10,5 C 8,0 km/h (2 Bft) 96,88 %
06.04.2016 23:15 10,5 C 87 % 1011,4 hPa 0,0 l/m 6,3 km/h (2 Bft) S 178 0 min 0,000 mm 0,0 UV-I 0 W/m 8,4 C 10,5 C 8,0 km/h (2 Bft) 100,00 %
06.04.2016 23:16 10,5 C 87 % 1011,4 hPa 0,0 l/m 4,5 km/h (1 Bft) S 184 0 min 0,000 mm 0,0 UV-I 0 W/m 8,4 C 10,5 C 6,4 km/h (2 Bft) 96,15 %
06.04.2016 23:17 10,4 C 87 % 1011,4 hPa 0,0 l/m 3,4 km/h (1 Bft) S 184 0 min 0,000 mm 0,0 UV-I 0 W/m 8,3 C 10,4 C 6,4 km/h (2 Bft) 95,83 %
06.04.2016 23:18 10,4 C 87 % 1011,4 hPa 0,0 l/m 3,3 km/h (1 Bft) S 183 0 min 0,000 mm 0,0 UV-I 0 W/m 8,3 C 10,4 C 6,4 km/h (2 Bft) 95,65 %
06.04.2016 23:19 10,4 C 87 % 1011,3 hPa 0,0 l/m 1,8 km/h (1 Bft) S 171 0 min 0,000 mm 0,0 UV-I 0 W/m 8,3 C 10,4 C 3,2 km/h (1 Bft) 100,00 %
06.04.2016 23:20 10,4 C 87 % 1011,3 hPa 0,0 l/m 1,3 km/h (1 Bft) S 171 0 min 0,000 mm 0,0 UV-I 0 W/m 8,3 C 10,4 C 3,2 km/h (1 Bft) 97,14 %
06.04.2016 23:21 10,5 C 87 % 1011,3 hPa 0,0 l/m 1,7 km/h (1 Bft) S 171 0 min 0,000 mm 0,0 UV-I 0 W/m 8,4 C 10,5 C 3,2 km/h (1 Bft) 93,33 %
06.04.2016 23:22 10,4 C 87 % 1011,3 hPa 0,0 l/m 2,4 km/h (1 Bft) S 171 0 min 0,000 mm 0,0 UV-I 0 W/m 8,3 C 10,4 C 6,4 km/h (2 Bft) 100,00 %
06.04.2016 23:23 10,5 C 88 % 1011,3 hPa 0,0 l/m 3,3 km/h (1 Bft) S 171 0 min 0,000 mm 0,0 UV-I 0 W/m 8,6 C 10,5 C 6,4 km/h (2 Bft) 100,00 %
06.04.2016 23:24 10,4 C 87 % 1011,3 hPa 0,0 l/m 2,0 km/h (1 Bft) S 173 0 min 0,000 mm 0,0 UV-I 0 W/m 8,3 C 10,4 C 8,0 km/h (2 Bft) 100,00 %
06.04.2016 23:25 10,4 C 87 % 1011,3 hPa 0,0 l/m 1,5 km/h (1 Bft) S 173 0 min 0,000 mm 0,0 UV-I 0 W/m 8,3 C 10,4 C 3,2 km/h (1 Bft) 100,00 %
06.04.2016 23:26 10,4 C 87 % 1011,3 hPa 0,0 l/m 0,3 km/h (0 Bft) S 173 0 min 0,000 mm 0,0 UV-I 0 W/m 8,3 C 10,4 C 1,6 km/h (1 Bft) 100,00 %
06.04.2016 23:27 10,4 C 87 % 1011,3 hPa 0,0 l/m 0,6 km/h (0 Bft) S 173 0 min 0,000 mm 0,0 UV-I 0 W/m 8,3 C 10,4 C 1,6 km/h (1 Bft) 100,00 %
06.04.2016 23:28 10,4 C 87 % 1011,3 hPa 0,0 l/m 1,6 km/h (1 Bft) S 173 0 min 0,000 mm 0,0 UV-I 0 W/m 8,3 C 10,4 C 3,2 km/h (1 Bft) 90,91 %
06.04.2016 23:29 10,4 C 88 % 1011,3 hPa 0,0 l/m 2,3 km/h (1 Bft) S 173 0 min 0,000 mm 0,0 UV-I 0 W/m 8,5 C 10,4 C 3,2 km/h (1 Bft) 100,00 %
06.04.2016 23:30 10,4 C 87 % 1011,3 hPa 0,0 l/m 1,9 km/h (1 Bft) S 173 0 min 0,000 mm 0,0 UV-I 0 W/m 8,3 C 10,4 C 3,2 km/h (1 Bft) 96,15 %
06.04.2016 23:31 10,4 C 87 % 1011,3 hPa 0,0 l/m 0,8 km/h (0 Bft) S 173 0 min 0,000 mm 0,0 UV-I 0 W/m 8,3 C 10,4 C 1,6 km/h (1 Bft) 100,00 %
06.04.2016 23:32 10,4 C 87 % 1011,3 hPa 0,0 l/m 0,8 km/h (0 Bft) S 173 0 min 0,000 mm 0,0 UV-I 0 W/m 8,3 C 10,4 C 1,6 km/h (1 Bft) 100,00 %
06.04.2016 23:33 10,4 C 87 % 1011,3 hPa 0,0 l/m 0,0 km/h (0 Bft) S 173 0 min 0,000 mm 0,0 UV-I 0 W/m 8,3 C 10,4 C 0,0 km/h (0 Bft) 100,00 %
06.04.2016 23:34 10,4 C 87 % 1011,3 hPa 0,0 l/m 0,5 km/h (0 Bft) S 173 0 min 0,000 mm 0,0 UV-I 0 W/m 8,3 C 10,4 C 1,6 km/h (1 Bft) 100,00 %
06.04.2016 23:35 10,4 C 87 % 1011,3 hPa 0,0 l/m 0,8 km/h (0 Bft) S 173 0 min 0,000 mm 0,0 UV-I 0 W/m 8,3 C 10,4 C 1,6 km/h (1 Bft) 100,00 %
06.04.2016 23:36 10,4 C 87 % 1011,3 hPa 0,0 l/m 0,8 km/h (0 Bft) S 173 0 min 0,000 mm 0,0 UV-I 0 W/m 8,3 C 10,4 C 1,6 km/h (1 Bft) 100,00 %
06.04.2016 23:37 10,4 C 87 % 1011,3 hPa 0,0 l/m 1,8 km/h (1 Bft) S 173 0 min 0,000 mm 0,0 UV-I 0 W/m 8,3 C 10,4 C 3,2 km/h (1 Bft) 100,00 %
06.04.2016 23:38 10,4 C 87 % 1011,3 hPa 0,0 l/m 1,9 km/h (1 Bft) S 173 0 min 0,000 mm 0,0 UV-I 0 W/m 8,3 C 10,4 C 3,2 km/h (1 Bft) 100,00 %
06.04.2016 23:39 10,4 C 87 % 1011,3 hPa 0,0 l/m 2,1 km/h (1 Bft) S 173 0 min 0,000 mm 0,0 UV-I 0 W/m 8,3 C 10,4 C 3,2 km/h (1 Bft) 100,00 %
06.04.2016 23:40 10,4 C 87 % 1011,3 hPa 0,0 l/m 2,4 km/h (1 Bft) S 173 0 min 0,000 mm 0,0 UV-I 0 W/m 8,3 C 10,4 C 3,2 km/h (1 Bft) 100,00 %
06.04.2016 23:41 10,4 C 87 % 1011,3 hPa 0,0 l/m 2,1 km/h (1 Bft) S 173 0 min 0,000 mm 0,0 UV-I 0 W/m 8,3 C 10,4 C 3,2 km/h (1 Bft) 100,00 %
06.04.2016 23:42 10,4 C 87 % 1011,3 hPa 0,0 l/m 1,9 km/h (1 Bft) S 173 0 min 0,000 mm 0,0 UV-I 0 W/m 8,3 C 10,4 C 3,2 km/h (1 Bft) 95,83 %
06.04.2016 23:43 10,4 C 87 % 1011,3 hPa 0,0 l/m 2,5 km/h (1 Bft) S 173 0 min 0,000 mm 0,0 UV-I 0 W/m 8,3 C 10,4 C 3,2 km/h (1 Bft) 100,00 %
06.04.2016 23:44 10,4 C 87 % 1011,3 hPa 0,0 l/m 2,3 km/h (1 Bft) S 173 0 min 0,000 mm 0,0 UV-I 0 W/m 8,3 C 10,4 C 3,2 km/h (1 Bft) 100,00 %
06.04.2016 23:45 10,4 C 88 % 1011,3 hPa 0,0 l/m 0,4 km/h (0 Bft) S 173 0 min 0,000 mm 0,0 UV-I 0 W/m 8,5 C 10,4 C 3,2 km/h (1 Bft) 100,00 %
06.04.2016 23:46 10,4 C 89 % 1011,3 hPa 0,0 l/m 0,2 km/h (0 Bft) S 173 0 min 0,000 mm 0,0 UV-I 0 W/m 8,7 C 10,4 C 1,6 km/h (1 Bft) 100,00 %
06.04.2016 23:47 10,3 C 89 % 1011,3 hPa 0,0 l/m 0,5 km/h (0 Bft) S 173 0 min 0,000 mm 0,0 UV-I 0 W/m 8,6 C 10,3 C 1,6 km/h (1 Bft) 100,00 %
06.04.2016 23:48 10,3 C 89 % 1011,3 hPa 0,0 l/m 1,0 km/h (0 Bft) S 173 0 min 0,000 mm 0,0 UV-I 0 W/m 8,6 C 10,3 C 1,6 km/h (1 Bft) 100,00 %
06.04.2016 23:49 10,2 C 89 % 1011,3 hPa 0,0 l/m 1,0 km/h (0 Bft) S 173 0 min 0,000 mm 0,0 UV-I 0 W/m 8,5 C 10,2 C 1,6 km/h (1 Bft) 100,00 %
06.04.2016 23:50 10,2 C 89 % 1011,3 hPa 0,0 l/m 0,8 km/h (0 Bft) S 173 0 min 0,000 mm 0,0 UV-I 0 W/m 8,5 C 10,2 C 1,6 km/h (1 Bft) 100,00 %
06.04.2016 23:51 10,1 C 89 % 1011,3 hPa 0,0 l/m 1,0 km/h (0 Bft) S 173 0 min 0,000 mm 0,0 UV-I 0 W/m 8,4 C 10,1 C 3,2 km/h (1 Bft) 100,00 %
06.04.2016 23:52 10,1 C 90 % 1011,3 hPa 0,0 l/m 1,4 km/h (1 Bft) S 173 0 min 0,000 mm 0,0 UV-I 0 W/m 8,5 C 10,1 C 3,2 km/h (1 Bft) 100,00 %
06.04.2016 23:53 10,0 C 90 % 1011,3 hPa 0,0 l/m 1,0 km/h (0 Bft) S 173 0 min 0,000 mm 0,0 UV-I 0 W/m 8,4 C 10,0 C 1,6 km/h (1 Bft) 100,00 %
06.04.2016 23:54 10,0 C 90 % 1011,3 hPa 0,0 l/m 1,1 km/h (1 Bft) S-SO 167 0 min 0,000 mm 0,0 UV-I 0 W/m 8,4 C 10,0 C 1,6 km/h (1 Bft) 95,65 %
06.04.2016 23:55 10,0 C 90 % 1011,4 hPa 0,0 l/m 1,8 km/h (1 Bft) S-SO 166 0 min 0,000 mm 0,0 UV-I 0 W/m 8,4 C 10,0 C 4,8 km/h (1 Bft) 95,83 %
06.04.2016 23:56 9,9 C 90 % 1011,4 hPa 0,0 l/m 1,8 km/h (1 Bft) S-SO 166 0 min 0,000 mm 0,0 UV-I 0 W/m 8,3 C 9,9 C 4,8 km/h (1 Bft) 100,00 %
06.04.2016 23:57 9,9 C 90 % 1011,4 hPa 0,0 l/m 2,0 km/h (1 Bft) S-SO 166 0 min 0,000 mm 0,0 UV-I 0 W/m 8,3 C 9,9 C 4,8 km/h (1 Bft) 100,00 %
06.04.2016 23:58 9,9 C 90 % 1011,4 hPa 0,0 l/m 0,9 km/h (0 Bft) S-SO 166 0 min 0,000 mm 0,0 UV-I 0 W/m 8,3 C 9,9 C 1,6 km/h (1 Bft) 96,15 %
06.04.2016 23:59 9,9 C 90 % 1011,4 hPa 0,0 l/m 1,7 km/h (1 Bft) S-SO 166 0 min 0,000 mm 0,0 UV-I 0 W/m 8,3 C 9,9 C 4,8 km/h (1 Bft) 100,00 %
_ Min-Zeit 23:56 16:40 00:00 - 21:09 - - - - - - 13:18 05:52 21:09 09:06
Minimum _ 9,9 C 64 % 1007,0 hPa - 0,0 km/h (0 Bft) - - - - - - 6,9 C 6,3 C 0,0 km/h (0 Bft) 85,71 %
_ Max-Zeit 00:36 23:52 11:42 22:45 01:34 - - 13:34 14:01 13:40 13:40 01:00 16:34 02:10 00:03
Maximum _ 14,6 C 90 % 1013,6 hPa 0,2 l/m 27,2 km/h
W (4 Bft)
- - 1 min 0,203 mm 2,5 UV-I 550 W/m 10,6 C 13,9 C 37,0 km/h
SW (5 Bft)
100,00 %
Durchschnitt _ 12,8 C 74 % 1011,3 hPa #0,2 l/m 9,5 km/h (2 Bft) W-SW - #36 min. #1,778 mm 0,9 UV-I 154 W/m 8,2 C 10,8 C 13,7 km/h (3 Bft) 98,73 %